small town logo
Town Complex
St. John Police Department - "Serving with Pride and Integrity"
Top

Traffic Stop Information for 2016

Download as CSV
Date Time Address Unit Latitude Longitude Disposition
12/31/2016 11:57 pm 10749 WICKER AV SJ21 41.423403 -87.470089
12/31/2016 10:14 pm 9300 WICKER AV SJ27 41.449967 -87.470171
12/31/2016 9:43 pm W 109TH AV & WICKER AV SJ27
12/31/2016 9:30 pm 8496 WICKER AV SJ27 41.462763 -87.470351
12/31/2016 8:06 pm 8801 WICKER AV SJ26 41.458933 -87.470299
12/31/2016 7:03 pm 8300 WICKER AV SJ21 41.466787 -87.470378
12/31/2016 6:34 pm WICKER AV SJ21 41.422054 -87.470096
12/31/2016 6:24 pm 10300 WICKER AV SJ26 41.431350 -87.470039
12/31/2016 6:23 pm W 85TH AV & PATTERSON ST SJ27 41.464506 -87.481488
12/31/2016 5:59 pm W 93RD AV & PATTERSON ST SJ27 41.449971 -87.470688
12/31/2016 5:52 pm W 90TH AV & PATTERSON ST SJ27 41.455863 -87.474706
12/31/2016 5:21 pm 9300 WICKER AV SJ27 41.449967 -87.470171
12/31/2016 3:19 pm W 102ND AV & WHITE OAK AV SJ19 41.433370 -87.489295
12/31/2016 2:02 pm W 97TH AV & WICKER AV SJ19 41.441590 -87.470028
12/31/2016 1:49 pm 8400 WICKER AV SJ14 41.464281 -87.470364
12/31/2016 1:26 pm 9400 WICKER AV SJ14 41.447998 -87.470142
12/31/2016 12:43 pm NORTHCOTE ST & W 107TH AV SJ19 41.425199 -87.484557
12/31/2016 11:53 am W 93RD AV & SHEFFIELD AV SJ19 41.450102 -87.518152
12/31/2016 10:26 am 9400 WICKER AV SJ14 41.447998 -87.470142
12/30/2016 11:50 pm 9825 WICKER AV SJ21 41.440661 -87.470018
12/30/2016 10:58 pm W 109TH AV & ONTARIO SJ27
12/30/2016 10:42 pm W 93RD AV & WICKER AV SJ27 41.449967 -87.470171
12/30/2016 10:23 pm W 77TH AV & WICKER AV SJ27 41.478956 -87.470527
12/30/2016 10:16 pm 9800 OLCOTT AV SJ26 41.440244 -87.478804
12/30/2016 9:57 pm 9800 OLCOTT AV SJ26 41.440244 -87.478804
12/30/2016 9:37 pm 8500 WICKER AV SJ27 41.462715 -87.470350
12/30/2016 9:10 pm 8500 WICKER AV SJ26 41.462715 -87.470350
12/30/2016 8:28 pm 8500 WICKER AV SJ27 41.462715 -87.470350
12/30/2016 7:32 pm W 93RD AV & WICKER AV SJ27 41.449967 -87.470171
12/29/2016 11:56 pm 8400 WICKER AV SJ28 41.464281 -87.470364
12/29/2016 9:14 pm W 93RD AV & MALLARD LN SJ18 41.449778 -87.436813
12/29/2016 9:07 pm W 96TH AV & MARQUETTE PL SJ18 41.444160 -87.441821
12/29/2016 6:22 pm 9300 SCHILLTON DR SJ28 41.451674 -87.495593
12/29/2016 5:07 pm 9400 WICKER AV SJ18 41.447998 -87.470142
12/29/2016 8:25 am 8700 PATTERSON ST SJ13 41.460732 -87.478920
12/29/2016 8:13 am 9000 PATTERSON ST SJ13 41.455863 -87.474706
12/29/2016 6:33 am 10100 WICKER AV SJ24 41.436091 -87.469997
12/29/2016 3:01 am 9300 WICKER AV SJ28 41.449967 -87.470171
12/28/2016 10:23 pm 9400 WICKER AV SJ28 41.447998 -87.470142
12/28/2016 9:38 pm 9300 RENAISSANCE DR SJ4 41.449797 -87.446679
12/28/2016 8:05 pm W 101ST AV & EARL DR SJ28 41.437161 -87.468802
12/28/2016 7:50 pm 11000 W 93RD AV; SJPD SJ28 41.449956 -87.468941
12/28/2016 6:30 pm WICKER AV & JOLIET ST SJ28 41.447742 -87.470138
12/28/2016 8:09 am 9200 DEODOR ST SJ13 41.452322 -87.452785
12/28/2016 7:58 am 8600 MARQUETTE RD SJ13 41.460207 -87.441307
12/28/2016 7:44 am W 85TH AV & MARQUETTE RD SJ13 41.464263 -87.441366
12/28/2016 3:50 am 10100 WICKER AV SJ25 41.436091 -87.469997 CIT
12/28/2016 3:42 am 10900 WICKER AVE SJ25 VW
12/28/2016 3:16 am 10600 WHITE OAK AV SJ25 41.427178 -87.489314 VW
12/27/2016 10:50 pm WICKER AV;11000 BLOCK SJ25
12/27/2016 10:46 pm 8400 WICKER AV SJ19 41.464281 -87.470364
12/27/2016 10:42 pm 8800 WICKER AV SJ25 41.458947 -87.470300
12/27/2016 10:28 pm 8600 wicker ave SJ25 WW
12/27/2016 10:07 pm 9600 WICKER AV SJ25 41.443973 -87.470069 WW
12/27/2016 9:56 pm 8800 WICKER AV SJ25 41.458947 -87.470300 WW
12/27/2016 3:44 pm 77TH & 41 SJ27
12/27/2016 3:27 pm W 93RD AV & WICKER AV SJ27 41.449967 -87.470171
12/27/2016 3:18 pm 8200 WICKER AV SJ27 41.469318 -87.470392
12/27/2016 2:04 pm W 93RD AV & WICKER AV SJ27 41.449967 -87.470171
12/27/2016 7:52 am 9700 WICKER AV SJ27 41.443089 -87.470050
12/27/2016 7:27 am 231 & 41 SJ27
12/27/2016 3:50 am 9600 WICKER AV SJ25 41.443973 -87.470069
12/27/2016 3:26 am 10900 WICKER AV SJ25 41.421149 -87.470100
12/27/2016 1:38 am ST JOHN RD & JOLIET ST; EAST SIDE SJ63
12/27/2016 1:05 am 9200 WICKER AV SJ19 41.453592 -87.470222
12/27/2016 12:58 am JOLIET ST & HART ST SJ19 41.442976 -87.461448
12/27/2016 12:40 am 8600 WICKER AV SJ365 41.461624 -87.470339
12/26/2016 10:51 pm 8500 WICKER AV SJ19 41.462715 -87.470350
12/26/2016 9:42 pm 8801 WICKER AV SJ365 41.458933 -87.470299
12/26/2016 9:29 pm 8100 WICKER AV SJ365
12/26/2016 6:33 pm W 109TH AV & CLINE AV SJ19 41.420910 -87.431171
12/26/2016 6:31 pm W 101ST AV & SADDLE CREEK DR SJ25 41.435592 -87.499938
12/26/2016 3:13 pm 8200 WICKER AV SJ27 41.469318 -87.470392
12/26/2016 3:02 pm SCHOOL ST & WICKER AV SJ27 41.447742 -87.470138
12/26/2016 11:56 am W 93RD AV & WICKER AV SJ27 41.449967 -87.470171
12/26/2016 11:01 am 8500 WICKER AV SJ27 41.462715 -87.470350
12/26/2016 10:53 am 9200 WICKER AV SJ27 41.453592 -87.470222
12/25/2016 3:08 pm 8200 WICKER AV SJ343 41.469318 -87.470392
12/25/2016 2:54 pm 8500 WICKER AV SJ343 41.462715 -87.470350
12/25/2016 2:37 pm 41& VENTURA SJ343
12/25/2016 1:44 pm W 102ND AV & WHITE OAK AV SJ343 41.433370 -87.489295
12/25/2016 11:10 am W 90TH AV & COLUMBIA AV SJ343 41.455414 -87.498780
12/25/2016 10:21 am W 93RD AV & BELMONT AV SJ24 41.449965 -87.483809
12/25/2016 10:16 am HILLCREST LN & W 109TH AV SJ343 41.421205 -87.496638
12/23/2016 11:22 pm '8400 wicker SJ28
12/23/2016 7:38 pm 9825 WICKER AV; STRACK & VANTIL SJ16 41.440661 -87.470018
12/22/2016 9:38 pm W 117TH AV & WICKER AV SJ25 41.406558 -87.470069
12/22/2016 8:11 pm 8500 LAKE HILLS DR SJ25 41.464322 -87.455889
12/22/2016 12:36 pm W 97TH AV & WICKER AV SJ27 41.441590 -87.470028
12/21/2016 9:38 pm W 93RD AV & DEODOR ST SJ26 41.450808 -87.452756
12/21/2016 2:26 am W 109TH AV & PARK PL SJ28 41.420989 -87.441287
12/21/2016 2:11 am W 109TH AV & WICKER AV SJ28 41.421149 -87.470100
12/21/2016 12:45 am 10950 BROADWAY; SPEEDWAY SJ28 41.419248 -87.335383
12/20/2016 9:56 pm 8400 WICKER AV SJ28 41.464281 -87.470364
12/20/2016 9:22 pm SJ28
12/20/2016 6:54 pm W 93RD AV & WICKER AV SJ10 41.449967 -87.470171
12/20/2016 12:46 am 8400 WICKER AV SJ28 41.464281 -87.470364
12/19/2016 7:14 pm 9200 WICKER AV SJ10 41.453592 -87.470222
12/19/2016 12:00 pm 11000 41 SJ18
12/18/2016 8:52 pm W 109TH AV & MANOR DR SJ365 41.421247 -87.487135
12/18/2016 8:00 pm SCHOOL ST & WICKER AV SJ365 41.447742 -87.470138
12/18/2016 7:44 pm SCHOOL ST & WICKER AV SJ365 41.447742 -87.470138
12/18/2016 7:38 pm 9200 WICKER SJ14
12/18/2016 7:44 am 9500 WICKER AV SJ27 41.445991 -87.470111
12/17/2016 11:29 pm 10200 OLCOTT AV SJ14 41.433927 -87.481103
12/17/2016 11:27 pm 9600 WICKER AV SJ26 41.443973 -87.470069
12/17/2016 8:51 pm 8500 WICKER AV SJ19 41.462715 -87.470350
12/17/2016 7:59 pm PATTERSON ST & W 90TH AVE SJ19
12/17/2016 7:21 pm 9500 WICKER AV SJ26 41.445991 -87.470111
12/17/2016 2:01 pm WICKER AV & WALL ST SJ27 41.453043 -87.470213
12/17/2016 1:31 pm WICKER AV & 231 SJ27
12/17/2016 8:13 am WICKER AV & VENTURA DR SJ27 41.464281 -87.470364
12/17/2016 7:55 am W 97TH AV & WICKER AV SJ23 41.441590 -87.470028
12/17/2016 5:46 am W 93RD AV & WICKER AV SJ27 41.449967 -87.470171
12/17/2016 5:18 am W 83RD AV & PATTERSON SJ23
12/16/2016 9:16 pm W 85TH AV & WICKER AV SJ19 41.462715 -87.470350
12/16/2016 2:27 pm WICKER AV & VENTURA DR SJ27 41.464281 -87.470364
12/15/2016 11:18 am WHITE OAK AV & W 109TH AV SJ25 41.421258 -87.489398
12/13/2016 11:38 pm SCHOOL ST & WICKER AV SJ365 41.447742 -87.470138
12/13/2016 11:18 pm SCHOOL ST & WICKER AV SJ365 41.447742 -87.470138
12/13/2016 11:13 pm 12800 W 93RD AV SJ27 41.450009 -87.489482
12/13/2016 8:24 pm 10800 WICKER AV SJ19 41.422959 -87.470092
12/13/2016 8:19 pm W 109TH AV & WICKER AV SJ27 41.421149 -87.470100
12/13/2016 7:58 pm 11000 W 93RD AV SJ26 41.449956 -87.468941
12/13/2016 7:21 pm 8400 WICKER AV SJ27 41.464281 -87.470364
12/13/2016 6:50 pm 10100 WICKER AV SJ26 41.436091 -87.469997
12/13/2016 1:22 pm 9000 BURR SJ23
12/13/2016 2:40 am 8400 WICKER AV SJ27 41.464281 -87.470364
12/13/2016 2:12 am W 93RD AV & WICKER AV SJ27 41.449967 -87.470171
12/12/2016 10:31 pm 9500 WICKER AV SJ27 41.445991 -87.470111
12/12/2016 9:58 pm W 93RD AV & WICKER AV SJ27 41.449967 -87.470171
12/12/2016 9:34 pm 8400 WICKER AV SJ27 41.464281 -87.470364
12/12/2016 8:15 pm 10100 CALUMET AV SJ19
12/12/2016 8:03 pm 10900 CALUMET AV SJ19
12/12/2016 7:56 pm 10100 OLCOTT AV SJ26 41.435974 -87.481004
12/12/2016 7:51 pm 9500 WICKER AV SJ27 41.445991 -87.470111
12/12/2016 7:36 pm W 109TH AV & CALUMET AV SJ19
12/12/2016 7:03 pm WICKER AV & WALL ST SJ27 41.453043 -87.470213
12/12/2016 6:55 pm 9500 WICKER AV SJ27 41.445991 -87.470111
12/12/2016 6:43 pm 9800 WICKER AV SJ27 41.441083 -87.470022
12/10/2016 1:44 pm WICKER AV & W 97TH LN SJ28 41.441590 -87.470028
12/10/2016 1:38 pm 11700 W 93RD AV; PRAIRIE WEST PARK SJ24 41.449987 -87.476751
12/10/2016 1:30 pm 10600 WHITE OAK AV SJ28 41.427178 -87.489314
12/10/2016 12:12 pm W 85TH AV & PATTERSON ST SJ16 41.464506 -87.481488
12/10/2016 12:04 pm 8800 PATTERSON ST SJ16 41.459071 -87.478294
12/10/2016 11:53 am 8600 PATTERSON ST SJ16 41.462599 -87.479770
12/10/2016 9:18 am W 85TH AV & WICKER AV SJ24 41.462715 -87.470350
12/10/2016 1:35 am 9700 WICKER AV SJ4 41.443089 -87.470050
12/09/2016 10:09 pm W 109TH AV & SCHNEIDER PL SJ18 41.421141 -87.468343
12/09/2016 1:03 am 9700 WICKER AV SJ19 41.443089 -87.470050
12/08/2016 11:23 pm 10800 WICKER AV SJ19 41.422959 -87.470092
12/08/2016 10:53 pm W 109TH AV & WICKER AV SJ365
12/08/2016 10:29 pm 8575 WICKER AV SJ365 41.461959 -87.470344
12/08/2016 9:16 pm 8575 WICKER AV SJ365 41.461959 -87.470344
12/08/2016 9:15 pm 10900 whiteoak ave SJ25
12/08/2016 9:10 pm WALL ST & WICKER AV SJ19 41.453043 -87.470213
12/08/2016 9:03 pm 10900 wicker ave SJ25
12/08/2016 8:52 pm 10900 WICKER AV SJ25 41.421149 -87.470100
12/08/2016 8:52 pm W 93RD AV & PATTERSON ST SJ27 41.449971 -87.470688
12/08/2016 8:41 pm W 77TH AV & JUNE DR SJ27 41.478978 -87.476994
12/08/2016 8:33 pm PHEASANT LN & W 97TH LN SJ19 41.441077 -87.471281
12/08/2016 8:32 pm W 109TH AND MAPLE (SUBWAY) SJ26
12/08/2016 8:28 pm W 109TH AV & WICKER AV SJ27
12/08/2016 8:18 pm W 109TH AV; PARRISH SJ25
12/08/2016 8:09 pm W 108TH AV & E SCHNEIDER CT SJ25 41.423024 -87.467572
12/08/2016 7:57 pm 10900 wicker ave SJ25
12/08/2016 7:56 pm 9825 WICKER AV SJ26 41.440661 -87.470018
12/08/2016 7:46 pm WHITE OAK AV & W 109TH AV SJ25
12/08/2016 7:36 pm 10800 WICKER AV SJ25 41.422959 -87.470092
12/08/2016 7:33 pm W 97TH LN West OF OLCOTT SJ26
12/08/2016 6:31 pm WHITE OAK AV & W 109TH AV SJ25 41.421258 -87.489398
12/08/2016 6:12 pm W 109TH AV & WICKER AV SJ25 41.421149 -87.470100
12/08/2016 6:00 pm 10900 wicker ave SJ25
12/08/2016 5:43 pm 10900 WICKER AV SJ25 41.421149 -87.470100
12/08/2016 5:29 pm 10900 wicker ave SJ25
12/08/2016 2:27 pm PATTERSON ST & WILDWOOD DR SJ27 41.463196 -87.480041
12/08/2016 2:08 pm WICKER AV & SCHOOL ST SJ27 41.447742 -87.470138
12/08/2016 1:36 pm W 93RD AV & KEILMAN ST SJ27 41.449981 -87.472491
12/08/2016 11:35 am 93RD W OAK RIDGE SJ21
12/08/2016 9:21 am 10900 WICKER AV SJ25 41.421149 -87.470100
12/08/2016 8:41 am W 105TH ST & WHITE OAK AV SJ21 41.429197 -87.489325
12/08/2016 8:32 am 8600 WICKER AV SJ23 41.461624 -87.470339
12/08/2016 7:50 am ST JOHN OIL SJ25
12/08/2016 7:35 am 41 & SCHOOL SJ21
12/08/2016 7:11 am 9200 WICKER AV SJ21 41.453592 -87.470222
12/07/2016 8:35 pm 9200 WICKER AV SJ26 41.453592 -87.470222
12/07/2016 8:14 pm 9500 WICKER AV SJ26 41.445991 -87.470111
12/07/2016 7:58 pm W 101ST AV & WHITE OAK AV SJ19 41.435563 -87.489287
12/07/2016 7:44 pm 9900 OLCOTT AV SJ26 41.438624 -87.479369
12/07/2016 7:34 pm 9400 OLCOTT AV SJ26 41.449025 -87.480210
12/07/2016 7:13 pm W 97TH LN & KEILMAN ST SJ26 41.441070 -87.472398
12/07/2016 2:28 pm 93rd / WICKER AVE SJ27
12/07/2016 11:48 am W 93RD AV & WICKER AV SJ27 41.449967 -87.470171
12/07/2016 11:33 am 9800 WICKER AV SJ27 41.441083 -87.470022
12/07/2016 11:23 am 8900 WICKER AV; SCHILLING LUMBER SJ21 41.457608 -87.470280
12/07/2016 11:12 am W 95TH AV & WICKER AV SJ21 41.446031 -87.470111
12/07/2016 11:00 am 9300 WICKER AV SJ27 41.449967 -87.470171
12/07/2016 10:59 am 9500 WICKER AV SJ21 41.445991 -87.470111
12/07/2016 10:47 am 11400 WICKER AV SJ21 41.417265 -87.470090
12/07/2016 7:56 am WICKER AV & WALL ST SJ27 41.453043 -87.470213
12/06/2016 11:16 pm 9800 WICKER AV SJ18 41.441083 -87.470022
12/06/2016 10:49 pm 9200 WICKER AV; NB SJ13 41.453592 -87.470222
12/06/2016 10:18 pm W 101ST AV & WHITE OAK AV SJ24 41.435563 -87.489287
12/06/2016 10:18 pm W 93RD AV & CIVIC DR SJ18 41.449947 -87.467647
12/06/2016 1:33 pm WALL & 41 SJ12
12/06/2016 11:01 am WICKER AV & W 101ST AV SJ28 41.437165 -87.469986
12/06/2016 9:15 am 8575 WICKER AV; SPEEDWAY SJ16 41.461959 -87.470344
12/06/2016 9:09 am WICKER AV & W 95TH AV SJ28 41.446031 -87.470111
12/06/2016 8:41 am 9400 JOLIET ST SJ10 41.441165 -87.450616
12/06/2016 6:56 am HERON LAKE RD & W 83RD PL SJ10 41.467357 -87.481887
12/05/2016 11:51 pm 10200 WICKER AV SJ24 41.435026 -87.470008
12/05/2016 7:55 pm 8900 PATTERSON ST SJ13 41.455943 -87.474813
12/05/2016 7:46 pm 11700 W 93RD AV; PRAIRIE WEST PARK SJ24 41.449987 -87.476751
12/05/2016 6:29 pm 8400 WICKER AV; LAKE CENTRAL HIGH SCHOOL SJ13 41.464281 -87.470364
12/05/2016 6:22 pm 8400 WICKER AV SJ13 41.464281 -87.470364
12/05/2016 3:15 pm W 109TH AV & PARK PL SJ28 41.420989 -87.441287
12/04/2016 7:52 pm 8100 KNICKERBOCKER PL SJ19
12/04/2016 10:30 am BLAINE ST & W 101ST AV SJ27 41.436088 -87.426323
12/04/2016 10:22 am W 85TH AV & LAKE HILLS DR SJ25 41.464322 -87.455889
12/04/2016 8:27 am W 109TH AV & PARRISH AV SJ27 41.421037 -87.450588
12/03/2016 9:17 pm CHRISTOPHER DR & LANTERVIEW LN SJ19
12/03/2016 9:13 pm W 97TH East OF VILLAGIO SJ26
12/03/2016 8:53 pm 8915 W 93RD AV; CLARK MIDDLE SCHOOL SJ26 41.449796 -87.443725
12/03/2016 10:17 am JOLIET ST & INDUSTRIAL DR SJ23 41.443788 -87.464124
12/03/2016 8:13 am 8200 WICKER AV SJ23 41.469318 -87.470392
12/03/2016 7:17 am W 93RD AV & PATTERSON ST SJ23 41.449971 -87.470688
12/03/2016 12:46 am 10400 W 93RD AV SJ14 41.449906 -87.463029
12/02/2016 11:21 pm 11700 W 93RD AV SJ19 41.449987 -87.476751
12/02/2016 10:15 pm 11700 WICKER AV SJ19 41.406558 -87.470069
12/02/2016 8:15 pm 13200 WICKER AV SJ15 41.379076 -87.470026
12/02/2016 7:50 pm NORTHCOTE JUST North OF W 97TH LN SJ26
12/02/2016 7:04 pm 10100 OLCOTT AV SJ26 41.435974 -87.481004
12/02/2016 6:11 pm W 93RD AV & WICKER AV SJ26 41.449967 -87.470171
12/02/2016 4:10 pm 10800 WICKER AV SJ25 41.422959 -87.470092
12/02/2016 3:36 pm PATTERSON ST & WALL ST SJ16 41.452823 -87.472087
12/02/2016 3:24 pm PATTERSON ST & WALL ST SJ16 41.452823 -87.472087
12/02/2016 10:59 am 8100 PATTERSON ST SJ25
12/01/2016 10:14 pm W 93RD AV & PATTERSON ST SJ13 41.449971 -87.470688
12/01/2016 7:11 pm W 101ST AV & CLINE AV SJ10 41.436724 -87.431153
12/01/2016 6:49 pm TK739MJK SJ10
12/01/2016 6:07 pm 9200 PATTERSON ST SJ13 41.452344 -87.471852
12/01/2016 3:24 pm 9000 PATTERSON ST SJ4 41.455863 -87.474706
12/01/2016 6:26 am 9500 WICKER AV; SB SJ4 41.445991 -87.470111
12/01/2016 5:47 am W 101ST AV & SADDLE CREEK DR SJ24 41.435592 -87.499938
11/30/2016 8:50 pm 8700 WICKER AV SJ18 41.460285 -87.470319
11/30/2016 8:23 pm 8700 WICKER AV SJ18 41.460285 -87.470319
11/30/2016 2:27 pm 10900 wicker ave SJ25
11/30/2016 2:15 pm 10900 wicker ave SJ25
11/30/2016 12:55 pm 8200 wicker ave SJ25
11/30/2016 12:23 pm 9200 wicker ave SJ25
11/30/2016 10:51 am 10900 WICKER AVE SJ25
11/30/2016 10:39 am 10900 wicker ave SJ25
11/30/2016 10:22 am 10900 WICKER AV SJ25 41.421149 -87.470100
11/30/2016 10:00 am W 93RD AV & WICKER AV SJ27 41.449967 -87.470171
11/30/2016 9:54 am 10300blk WICKER AV SJ25 41.431350 -87.470039
11/30/2016 9:16 am 8600 WICKER AV SJ23 41.461624 -87.470339
11/30/2016 9:07 am 8600 WICKER AV SJ23 41.461624 -87.470339
11/30/2016 8:31 am 93rd & pardell SJ28
11/30/2016 8:17 am W 109TH AV & FORESTDALE ST SJ23 41.421168 -87.473684
11/30/2016 8:06 am W 109TH AV & OLCOTT AV SJ23 41.421214 -87.481530
11/30/2016 8:05 am SCHOOL ST & WICKER AV SJ27 41.447742 -87.470138
11/30/2016 7:59 am W 93RD AV & WICKER AV SJ27 41.449967 -87.470171
11/30/2016 7:30 am W 109TH AV & OLCOTT AV SJ23 41.421214 -87.481530
11/30/2016 7:06 am W 109TH AV & OLCOTT AV SJ23 41.421214 -87.481530
11/30/2016 6:48 am W 109TH AV & HURON ST SJ23 41.421160 -87.472295
11/30/2016 6:37 am 10200 WICKER AV SJ23 41.435026 -87.470008
11/30/2016 6:30 am 9700 WICKER AV SJ23 41.443089 -87.470050
11/30/2016 6:17 am 9500 WICKER AV SJ23 41.445991 -87.470111
11/30/2016 6:12 am 8500 WICKER AV SJ27 41.462715 -87.470350
11/30/2016 5:56 am 8600 WICKER AV SJ23 41.461624 -87.470339
11/30/2016 5:37 am 10800 WICKER AV SJ23 41.422959 -87.470092
11/29/2016 10:20 pm 9700 TULIP LN SJ26
11/29/2016 9:47 pm 9700 WICKER AV SJ23 41.443089 -87.470050
11/29/2016 9:34 pm W 93RD AV & WICKER AV; WALGREENS LOT SJ23 41.449967 -87.470171
11/29/2016 8:43 pm W 96TH PL & CLARMONTE DR SJ23 41.443210 -87.451072
11/29/2016 8:37 pm W OAKRIDGE DR; S OF 97TH SJ26 41.443393 -87.477159
11/29/2016 8:17 pm NORTHCOTE AV; S OF 97TH SJ26 41.441202 -87.480035
11/29/2016 3:27 pm 8400 WICKER AV SJ25 41.464281 -87.470364
11/29/2016 2:55 pm W 85TH AV & WICKER AV SJ27 41.462715 -87.470350
11/29/2016 11:29 am 9500 JOLIET ST SJ12 41.441379 -87.451835
11/29/2016 11:17 am 9600 41 SJ12
11/29/2016 11:12 am W 109TH AV & OLCOTT AV SJ23 41.421214 -87.481530
11/29/2016 11:00 am 109TH AND HURON SJ23
11/29/2016 10:52 am W 109TH AV & OLCOTT AV SJ23 41.421214 -87.481530
11/29/2016 10:39 am W 109TH AV & MANOR DR SJ23 41.421247 -87.487135
11/29/2016 10:22 am W 109TH AV & HILLCREST LN SJ23 41.421205 -87.496638
11/29/2016 10:20 am NOPLATE SJ27
11/29/2016 10:08 am 9800 WHITE OAK AV SJ23 41.440970 -87.489352
11/29/2016 9:58 am 109TH AND OLCOTT SJ23
11/29/2016 9:51 am W 109TH AV & ONTARIO ST SJ23 41.421154 -87.471273
11/29/2016 9:41 am 12500 W 93RD AV SJ27 41.449965 -87.483809
11/29/2016 9:33 am W 85TH AV & WICKER AV SJ27 41.462715 -87.470350
11/29/2016 9:30 am 9400 WHITE OAK AVE SJ23
11/29/2016 9:29 am W 93RD AV & WICKER AV SJ27 41.449967 -87.470171
11/29/2016 9:20 am 8400 WICKER AVE SJ23
11/29/2016 8:54 am 9400 WICKER AV SJ23 41.447998 -87.470142
11/29/2016 5:35 am 8600 WICKER AV SJ27 41.461624 -87.470339
11/29/2016 5:18 am W 109TH AV & WICKER AV SJ27 41.421149 -87.470100
11/28/2016 8:41 pm 9700 WICKER AV SJ14 41.443089 -87.470050
11/28/2016 11:13 am W 90TH AV & PATTERSON ST SJ19 41.455863 -87.474706
11/28/2016 10:58 am 9200 PATTERSON ST SJ19 41.452344 -87.471852
11/28/2016 10:42 am 9000 PATTERSON ST SJ19 41.455863 -87.474706
11/28/2016 10:29 am RAMBLEWOOD / 93RD SJ25 CIT
11/28/2016 10:20 am BLAINE / W 101ST SJ27
11/28/2016 7:16 am 93RD AV; SJPD SJ19 41.450131 -87.507993
11/27/2016 5:04 pm W 97TH AV & WICKER AV SJ24 41.441590 -87.470028
11/27/2016 1:58 pm W 109TH AV & CALUMET AV SJ18 41.421141 -87.508266
11/27/2016 10:56 am 9805 WICKER AV; FIFTH THIRD BANK SJ4 41.440999 -87.470022
11/27/2016 10:28 am W 101ST AV & CALUMET AV SJ28 41.435635 -87.508349
11/27/2016 9:53 am W 93RD AV & CIVIC DR SJ28 41.449947 -87.467647
11/27/2016 9:45 am 11000 WICKER AV SJ18 41.420373 -87.470098
11/27/2016 9:31 am 8700 WICKER AV SJ18 41.460285 -87.470319
11/26/2016 10:48 pm 8400 WICKER AV SJ19 41.464281 -87.470364
11/26/2016 10:11 pm 8400 WICKER AV SJ19 41.464281 -87.470364
11/26/2016 9:42 pm 8200 WICKER AV SJ19 41.469318 -87.470392
11/26/2016 9:19 pm 9600 WICKER AV SJ24 41.443973 -87.470069
11/26/2016 8:42 pm 10700 WHITE OAK AV SJ19 41.425204 -87.489324
11/26/2016 8:33 pm 10900 WICKER AV SJ19 41.421149 -87.470100
11/26/2016 8:00 pm 9500 WICKER AV SJ19
11/26/2016 7:00 pm WHITE OAK / ROSEWOOD SJ10
11/26/2016 6:50 pm 9400 WICKER AV SJ19 41.447998 -87.470142
11/26/2016 6:44 pm TOWN HALL PKLT; SJ SJ19 VW
11/26/2016 6:25 pm 9400 JOLIET ST SJ19 41.441165 -87.450616
11/26/2016 6:13 pm 101ST/ BLAINE SJ10
11/26/2016 5:32 pm WICKER AV & VENTURA DR SJ24 41.464281 -87.470364 WW
11/26/2016 5:18 pm W 109TH / WICKER SJ24
11/26/2016 12:23 pm 9500 WICKER AV SJ18 41.445991 -87.470111
11/26/2016 10:47 am W 101ST AV & SADDLE CREEK DR SJ28 41.435592 -87.499938
11/25/2016 10:35 pm 8915 W 93RD AV; CLARK MIDDLE SCHOOL SJ13 41.449796 -87.443725
11/25/2016 7:29 pm W 101ST AV & WHITE OAK AV SJ10 41.435563 -87.489287
11/25/2016 7:10 pm W 101ST AV & SADDLE CREEK DR SJ24 41.435592 -87.499938
11/25/2016 7:04 pm 8400 WICKER AV SJ13 41.464281 -87.470364
11/25/2016 8:22 am JOLIET ST & IVY AV SJ12 41.441512 -87.452718
11/25/2016 12:11 am W 77TH AV & WICKER AV SJ21 41.478956 -87.470527
11/24/2016 11:45 pm 8400 WICKER AV SJ27 41.464281 -87.470364
11/24/2016 11:17 pm 9200 WICKER AV SJ21 41.453592 -87.470222
11/24/2016 11:09 pm 8400 WICKER AV SJ21 41.464281 -87.470364
11/24/2016 11:05 pm PHEASANT LN & W 97TH LN SJ27 41.441077 -87.471281
11/24/2016 10:54 pm 8500 WICKER AV SJ27 41.462715 -87.470350
11/24/2016 9:27 pm WALL ST & PATTERSON ST SJ21 41.452823 -87.472087
11/24/2016 5:49 pm W 95TH AV & WICKER AV SJ27 41.446031 -87.470111
11/24/2016 3:38 pm 8400 WICKER AV SJ343 41.464281 -87.470364
11/24/2016 3:26 pm W 82ND LN & WICKER AV SJ343 41.469318 -87.470392
11/24/2016 3:05 pm W 93RD AV & COLUMBIA AV SJ343 41.450881 -87.500558
11/24/2016 12:56 pm 9500 WICKER AV SJ14 41.445991 -87.470111
11/24/2016 12:52 pm WALL & 41 SJ343
11/24/2016 10:52 am 8575 WICKER AV SJ343 41.461959 -87.470344
11/24/2016 5:21 am W 85TH AV & PATTERSON ST SJ14 41.464506 -87.481488
11/24/2016 4:10 am 8500 WICKER AV SJ21 41.462715 -87.470350
11/24/2016 12:28 am 8101 WICKER AV SJ21 41.471867 -87.470393
11/23/2016 11:56 pm W 93RD AV & WICKER AV SJ27 41.449967 -87.470171
11/23/2016 11:52 pm 11700 W 93RD AV SJ21 41.449987 -87.476751
11/23/2016 10:01 pm W 93RD AV & MONIX DR SJ365 41.450028 -87.491955
11/23/2016 9:06 pm W 85TH AV & FAIRWAY DR SJ21 41.464359 -87.463697
11/23/2016 8:22 pm 8500 WICKER AV SJ27 41.462715 -87.470350
11/23/2016 8:14 pm 9500 WICKER AV SJ27 41.445991 -87.470111
11/23/2016 7:47 pm 9280 WICKER AV SJ21 41.451133 -87.470187
11/23/2016 7:46 pm W 97TH LN & E OAKRIDGE DR SJ365 41.441195 -87.473430
11/23/2016 7:26 pm 8400 WICKER AV SJ27 41.464281 -87.470364
11/23/2016 6:56 pm W 105TH PL & BAILEY ST SJ365 41.427339 -87.468160
11/23/2016 6:56 pm W 109TH AVE / WICKER AVE SJ27
11/23/2016 6:49 pm W 109THA ND WICKER Ave SJ27
11/23/2016 6:48 pm 8800 WICKER AV SJ21 41.458947 -87.470300
11/23/2016 5:46 pm 8400 WICKER AV SJ365 41.464281 -87.470364
11/23/2016 6:49 am JOLIET ST; EAST OF WICKER AV SJ23 41.446940 -87.468764
11/22/2016 9:15 pm 10200 WICKER AV SJ16 41.435026 -87.470008
11/22/2016 1:49 pm W 101ST AV & BLUFF VIEW RD SJ18 41.435603 -87.505416
11/22/2016 12:05 pm 9700 WICKER AVE SJ27
11/22/2016 11:52 am 93RD AVE/ KARDEL DR SJ27
11/22/2016 11:32 am 8400 WICKER AVE SJ27
11/22/2016 11:15 am 93RD AVE / PATTERSON SJ27
11/22/2016 11:07 am 93RD AVE / WICKER AVE SJ27
11/22/2016 10:30 am 97TH AVE / WICKER AVE SJ27
11/22/2016 9:43 am 8400 WICKER AVE SJ27
11/22/2016 9:26 am 85TH AVE / WICKER AVE SJ27
11/22/2016 9:12 am WICKER AVE / WALL ST SJ27
11/22/2016 8:56 am 97th / wicker ave SJ27
11/22/2016 7:32 am 8700 WICKER AV SJ18 41.460285 -87.470319
11/21/2016 7:07 pm 9300 WHITE OAK AV SJ10 41.450009 -87.489482
11/21/2016 1:29 pm W 93RD AV & WICKER AV SJ27 41.449967 -87.470171
11/21/2016 12:04 pm OLCOTT / 109TH AVE SJ27
11/21/2016 11:47 am STANS AUTO SJ27
11/21/2016 11:34 am 109TH AND WHITE OAK SJ23
11/21/2016 11:32 am SCHILLTON DR & WAVERLY DR SJ28 41.453981 -87.493582
11/21/2016 11:32 am W 93RD AV & WICKER AV SJ27 41.449967 -87.470171
11/21/2016 11:23 am 109TH AND FORESTDALE SJ23
11/21/2016 11:21 am MARCOTTE & 93RD SJ27
11/21/2016 11:06 am W 93RD AV & WICKER AV SJ27 41.449967 -87.470171
11/21/2016 10:57 am W 109TH AV & OLCOTT AV SJ23 41.421214 -87.481530
11/21/2016 10:55 am 95TH & 41 SJ18
11/21/2016 10:52 am 9280 WICKER AV; WALGREENS #4276 SJ27 41.451133 -87.470187
11/21/2016 10:45 am 9825 WICKER AV; STRACK & VANTIL SJ27 41.440661 -87.470018
11/21/2016 10:42 am 225 JOLIET ST; CVS SJ28 41.493994 -87.521401
11/21/2016 10:32 am 9200 WICKER SJ23
11/21/2016 10:31 am W 93RD AV & WICKER AV SJ27 41.449967 -87.470171
11/21/2016 10:13 am 9200 WICKER SJ23
11/21/2016 9:58 am 9600 WICKER SJ23
11/21/2016 9:50 am 9200 WICKER SJ23
11/21/2016 9:41 am 9200 WICKER SJ23
11/21/2016 9:29 am 8200 WICKER SJ23
11/21/2016 9:11 am 77TH & AUSTIN SJ27
11/21/2016 9:10 am 9200 WICKER SJ23
11/21/2016 8:37 am W 109TH AV & HILLCREST LN SJ18 41.421205 -87.496638
11/20/2016 11:42 pm 9300 WICKER AV SJ27 41.449967 -87.470171
11/20/2016 11:35 pm WALL ST & WICKER AV SJ27 41.453043 -87.470213
11/20/2016 11:29 pm VENTURA DR & WICKER AV SJ27 41.464281 -87.470364
11/20/2016 10:14 pm 9300 WICKER AV SJ27 41.449967 -87.470171
11/20/2016 9:58 pm 8500 WICKER AV SJ27 41.462715 -87.470350
11/20/2016 9:56 pm 8600 WICKER AV; NB SJ365 41.461624 -87.470339
11/20/2016 9:47 pm 9500 WICKER AV SJ27 41.445991 -87.470111
11/20/2016 9:24 pm SCHOOL ST & WICKER AV SJ365 41.447742 -87.470138
11/20/2016 8:13 pm W 85TH AV & FARMINGTON ST SJ27 41.463284 -87.467568
11/20/2016 8:18 am W 101ST PL & CLINE AV SJ23 41.434770 -87.431164
11/20/2016 8:01 am 8500 WICKER AV SJ23 41.462715 -87.470350
11/20/2016 6:50 am W 109TH AV & FORESTDALE ST SJ23 41.421168 -87.473684
11/20/2016 6:30 am 9500 WICKER AV SJ23 41.445991 -87.470111
11/19/2016 11:42 pm 10600 WHITE OAK AV SJ26 41.427178 -87.489314
11/19/2016 10:29 pm W 97TH LN & HEDWIG AV SJ26 41.441070 -87.472398
11/19/2016 3:30 pm 9200 WICKER AV SJ19 41.453592 -87.470222
11/19/2016 3:11 pm 9400 WICKER AV SJ19 41.447998 -87.470142
11/19/2016 2:55 pm W 93RD AV & CLINE AV SJ19 41.449743 -87.431354
11/19/2016 2:52 pm 9600 WICKER AV SJ23 41.443973 -87.470069
11/19/2016 2:10 pm 8400 WICKER AV SJ19 41.464281 -87.470364
11/19/2016 12:07 pm W 102ND AV & WHITE OAK AV SJ14 41.433370 -87.489295
11/19/2016 11:45 am 8500 WICKER AV SJ14 41.462715 -87.470350
11/19/2016 10:42 am 9400 WICKER AV SJ19 41.447998 -87.470142
11/19/2016 9:03 am 231 & SCHNIEIDER SJ23
11/19/2016 8:52 am 9500 WICKER AV SJ23 41.445991 -87.470111
11/19/2016 8:25 am 9200 WICKER AV SJ23 41.453592 -87.470222
11/19/2016 8:16 am WALL ST & WICKER AV SJ23 41.453043 -87.470213
11/19/2016 12:06 am 9500 WICKER AV SJ21 41.445991 -87.470111
11/18/2016 11:05 pm 8600 WICKER AV SJ27 41.461624 -87.470339
11/18/2016 10:58 pm 10400 WICKER AV SJ27 41.429983 -87.470049
11/18/2016 10:47 pm 8500 WICKER AV SJ27 41.462715 -87.470350
11/18/2016 9:18 pm 82OO WICKER AVE SJ27
11/18/2016 9:18 pm 9500 WICKER AV SJ21 41.445991 -87.470111
11/18/2016 8:36 pm W 93RD AV & WICKER AV SJ27 41.449967 -87.470171
11/18/2016 8:24 pm 11033 W 93RD AV SJ27 41.449958 -87.469145
11/18/2016 10:02 am THIELEN ST & JOLIET ST SJ23 41.446138 -87.467390
11/18/2016 7:08 am WICKER AV; LAKE CENTRAL SJ1 41.422054 -87.470096 VW
11/18/2016 6:50 am 9280 WICKER AV SJ1 41.451133 -87.470187
11/18/2016 5:08 am 8400 WICKER AV SJ23 41.464281 -87.470364
11/17/2016 4:04 pm 77TH; EAST OF ST JOHN RD SJ1 WW
11/17/2016 10:36 am W 96TH AV & WICKER AV; SB SJ12 41.443973 -87.470069
11/17/2016 9:58 am 9100 WICKER AV; NB SJ12 41.454931 -87.470241
11/17/2016 8:11 am WICKER AV & WALL ST SJ18 41.453043 -87.470213
11/17/2016 8:03 am WHITE OAK AV & W 93RD AV SJ1 41.450009 -87.489482 WW
11/17/2016 7:46 am REDBUD / WHITE OAK SJ1 CIT
11/17/2016 7:20 am 9700 WHITE OAK SJ1 CIT
11/17/2016 7:02 am HERON LAKE RD SJ10 41.468272 -87.479936
11/16/2016 8:15 pm 8600 WICKER AV; SB SJ4 41.461624 -87.470339
11/16/2016 5:45 pm W 92ND AV & CLINE AV SJ19 41.451877 -87.431390
11/16/2016 5:23 pm W 93RD AV & CLINE AV SJ19 41.449743 -87.431354
11/16/2016 5:11 pm 9200 W 93RD AV SJ19 41.450902 -87.453235
11/16/2016 4:45 pm 9200 PATTERSON ST SJ19
11/16/2016 4:16 pm 10800 CALUMET AVE SJ19
11/16/2016 3:58 pm 10500 CALUMET AV SJ19 41.426624 -87.508310
11/16/2016 3:25 pm 10800 CALUMET AV SJ19 41.419816 -87.508261
11/16/2016 2:51 pm 8400 WICKER AVE SJ19
11/16/2016 2:33 pm 10800 WICKER AV SJ25 41.422959 -87.470092
11/16/2016 2:21 pm WALL ST & WICKER AVE SJ19
11/16/2016 2:17 pm 80TH PL & HAWTHORNE CT SJ10 41.472594 -87.478939
11/16/2016 2:05 pm 9400 WICKER AVE SJ19
11/16/2016 1:55 pm 11033 W 93RD AV; SJPD SJ25 41.449958 -87.469145
11/16/2016 1:47 pm PATTERSON ST& W 93RD AVE SJ19
11/16/2016 1:36 pm 9200 WICKER AV SJ19 41.453592 -87.470222
11/16/2016 1:24 pm 9400 WICKER AV SJ19 41.447998 -87.470142
11/16/2016 1:11 pm 10900 wicker ave SJ25
11/16/2016 12:55 pm 01900 WICKER AV SJ25
11/16/2016 12:46 pm 10900 wicker ave SJ25
11/16/2016 12:37 pm WHITE OAK AV & W 109TH AV SJ25 41.421258 -87.489398
11/16/2016 11:55 am 10500 WICKER AV SJ25 41.428395 -87.470062
11/16/2016 11:47 am 10900 wicker ave SJ25
11/16/2016 11:35 am 10900 WICKER AV SJ25 41.421149 -87.470100
11/16/2016 10:50 am 9400 WHITE OAK AV SJ10 41.448199 -87.489455
11/16/2016 10:48 am 10800 Wicker Avenue SJ25
11/16/2016 10:36 am WALL ST & WICKER AV SJ23 41.453043 -87.470213
11/16/2016 8:51 am WALL ST & WICKER AV SJ23 41.453043 -87.470213
11/16/2016 8:37 am 9200 WICKER AV SJ23 41.453592 -87.470222
11/16/2016 8:23 am 9200 WICKER AV SJ23 41.453592 -87.470222
11/16/2016 8:16 am W 93RD AV & WICKER AV SJ28 41.449967 -87.470171
11/16/2016 8:09 am 9200 WICKER SJ23
11/16/2016 7:28 am SCHOOL & 41 SJ28
11/16/2016 1:44 am W 93RD AV & W OAKRIDGE DR SJ21 41.449989 -87.478157
11/16/2016 12:58 am 9200 WICKER AV SJ21 41.453592 -87.470222
11/16/2016 12:22 am 8400 WICKER AV; LCHS LOT SJ27 41.464281 -87.470364
11/16/2016 12:19 am 9100 WICKER AV SJ25 41.454931 -87.470241
11/16/2016 12:13 am 9300 WICKER AV SJ25 41.449967 -87.470171
11/15/2016 11:22 pm W 101ST AV & PARK PL SJ21 41.437293 -87.438335
11/15/2016 10:44 pm WICKER AV & WALL ST SJ27 41.453043 -87.470213
11/15/2016 9:03 pm 8600 WICKER AV SJ365 41.461624 -87.470339
11/15/2016 8:42 pm 8300 WICKER AV; NB SJ365 41.466787 -87.470378
11/15/2016 7:51 pm W 109TH AV & CLINE AV SJ27 41.420910 -87.431171
11/15/2016 7:20 pm W 93RD AV & CLINE AV SJ21 41.449743 -87.431354
11/15/2016 10:17 am OLCOTT AV & W 109TH AV SJ10 41.421214 -87.481530
11/15/2016 9:48 am W 109TH AV & WHITE OAK AV SJ10 41.421258 -87.489398
11/15/2016 7:00 am 9200 WICKER AV SJ10 41.453592 -87.470222
11/15/2016 7:00 am W 101ST AV & WHITE OAK AV SJ14 41.435563 -87.489287
11/15/2016 6:42 am W 101ST AV & WHITE OAK AV SJ14 41.435563 -87.489287
11/15/2016 6:28 am PATTERSON ST & WALL ST SJ10 41.452823 -87.472087
11/15/2016 3:49 am 9200 WICKER AVE SJ25
11/15/2016 3:30 am 8200 WICKER AV SJ25 41.469318 -87.470392
11/15/2016 2:55 am 10900 WICKER AV SJ21 41.421149 -87.470100
11/15/2016 2:48 am 11100 WICKER AV SJ25 41.419596 -87.470096
11/15/2016 2:18 am 9500 KEILMAN ST SJ25 41.446388 -87.472473
11/15/2016 12:05 am W 92ND AV & MONIX DR SJ25 41.451894 -87.492244
11/14/2016 11:53 pm 9400 WICKER AV SJ25 41.447998 -87.470142
11/14/2016 11:20 pm W 93RD AV & WHITE OAK AV SJ27 41.450009 -87.489482
11/14/2016 11:09 pm 10400 WICKER AV SJ27 41.429983 -87.470049
11/14/2016 10:51 pm W 85TH AV & ALEXANDER SJ27
11/14/2016 10:42 pm W 109TH AV & CLINE AV SJ21 41.420910 -87.431171
11/14/2016 10:20 pm W 82ND LN & WICKER AV SJ21 41.469318 -87.470392
11/14/2016 9:36 pm 9600 WICKER AV SJ27 41.443973 -87.470069
11/14/2016 9:30 pm wall st & Wicker Ave SJ25
11/14/2016 9:30 pm 8001 WICKER AV SJ27 41.472752 -87.470400
11/14/2016 9:23 pm W 85TH AV & WICKER AV SJ27 41.462715 -87.470350
11/14/2016 9:21 pm WALL ST & WICKER AV SJ25 41.453043 -87.470213
11/14/2016 9:05 pm 9769 WICKER AV; MCDONALDS SJ25 41.441394 -87.470026
11/14/2016 8:55 pm E OAKWOOD DR & PATTERSON ST SJ25 41.459686 -87.478444
11/14/2016 8:47 pm W 93RD AV & KEILMAN ST SJ27 41.449981 -87.472491
11/14/2016 8:33 pm 10400 WICKER AV SJ25 41.429983 -87.470049
11/14/2016 6:29 pm 10700 CALUMET AV SJ25 41.422100 -87.508276 VW
11/14/2016 3:49 pm 8800 W 93RD AV SJ19 41.449792 -87.441074
11/14/2016 3:48 pm 9500 Keilman st SJ25 CIT
11/14/2016 3:37 pm 9300 keilman SJ25
11/14/2016 3:20 pm W 93RD AV & KEILMAN ST SJ25 41.449981 -87.472491
11/14/2016 2:57 pm 10900 wicker SJ25
11/14/2016 2:37 pm W 93RD AV & WICKER AV SJ19 41.449967 -87.470171
11/14/2016 2:16 pm 80TH PL & KNICKERBOCKER PL SJ19 41.472194 -87.477521
11/14/2016 2:03 pm 10900 olcott ave SJ25
11/14/2016 1:52 pm 10900 wicker ave SJ25
11/14/2016 1:44 pm 10800 ONTARIO ST SJ25 41.422962 -87.471269 CIT
11/14/2016 1:08 pm 10900 WICKER AV SJ25 41.421149 -87.470100 CIT
11/14/2016 12:57 pm 10900 wicker ave SJ25
11/14/2016 12:46 pm 10900 WICKER SJ25
11/14/2016 12:30 pm W 109TH / WICKER SJ25
11/14/2016 12:20 pm 10200 OLCOTT AV SJ26 41.433927 -87.481103
11/14/2016 10:52 am W OAKRIDGE DR & W 93RD AV SJ23 41.449989 -87.478157
11/14/2016 10:41 am W 109TH / WICKER SJ10
11/14/2016 10:39 am 9900 WHITE OAK AV SJ23 41.439215 -87.489331
11/14/2016 10:30 am W 109TH / WICKE R SJ10
11/14/2016 10:08 am SJ10
11/14/2016 9:51 am W 109TH / WICKER SJ10
11/14/2016 9:48 am WALL ST & WICKER AV SJ23 41.453043 -87.470213
11/14/2016 9:36 am W 109TH / WICKE SJ10
11/14/2016 9:26 am W 109TH / WICKER SJ10
11/14/2016 9:03 am W 109TH AV & WICKER AV SJ10 41.421149 -87.470100
11/14/2016 8:41 am 8801 WICKER AV; KOLLING ELEMENTARY SJ10 41.458933 -87.470299
11/14/2016 8:29 am W 95TH AV & WICKER AV SJ10 41.446031 -87.470111
11/14/2016 8:26 am 9200 CLINE AV SJ19 41.451549 -87.431385
11/14/2016 8:19 am WALL ST & PATTERSON ST SJ10 41.452823 -87.472087
11/14/2016 8:15 am 10600 PARRISH AV SJ26 41.429236 -87.450555
11/14/2016 7:53 am W 96TH AV & WICKER AV SJ10 41.443973 -87.470069
11/14/2016 7:52 am W 109TH AV & HILLCREST LN SJ26 41.421205 -87.496638
11/14/2016 7:31 am WICKER AV & WALL ST SJ10 41.453043 -87.470213
11/14/2016 7:10 am 9200 WICKER AV SJ10 41.453592 -87.470222
11/14/2016 7:06 am 11800 HERON LAKE RD SJ14 41.468846 -87.478069
11/14/2016 6:53 am 9200 WICKER AV SJ10 41.453592 -87.470222
11/14/2016 5:03 am E at OF 101ST & BLAINE SJ23
11/13/2016 7:49 pm 9500 WICKER AV SJ4 41.445991 -87.470111
11/12/2016 10:12 pm W 101ST AV & CLINE AV SJ10 41.436724 -87.431153
11/11/2016 7:33 pm W 109TH AV & HILLCREST LN SJ365 41.421205 -87.496638
11/11/2016 7:17 pm 8600 WICKER AV SJ343 41.461624 -87.470339
11/11/2016 6:54 pm 9400 WICKER AV SJ343 41.447998 -87.470142
11/11/2016 3:10 pm LEONARDO DR & HEATHER CT SJ28 41.465060 -87.475648
11/10/2016 9:52 pm 10200 CLINE AV SJ14 41.435299 -87.431161
11/10/2016 9:15 pm 9200 WICKER AV SJ19 41.453592 -87.470222
11/10/2016 7:45 pm 8400 WICKER AV SJ19 41.464281 -87.470364
11/10/2016 7:26 pm 10255 WICKER AV; ALSIP HOME NURSERY SJ19 41.432984 -87.470025
11/10/2016 7:10 pm 10600 WICKER AV SJ25 41.427299 -87.470069
11/10/2016 6:58 pm 10255 WICKER AV; ALSIP HOME NURSERY SJ25 41.432984 -87.470025
11/10/2016 7:24 am 8100 WICKER AV SJ23 41.471886 -87.470393
11/10/2016 4:02 am 9600 WICKER AV SJ25 41.443973 -87.470069
11/10/2016 2:35 am W 85TH AV & CLINE AV SJ19 41.464197 -87.431621
11/09/2016 4:57 pm 8400 WICKER AV; LAKE CENTRAL HIGH SCHOOL SJ25 41.464281 -87.470364 VW
11/09/2016 11:41 am 9000blk WICKER AV SJ26 41.456270 -87.470261
11/09/2016 11:38 am 8496 WICKER AV; TACO BELL SJ27 41.462763 -87.470351
11/09/2016 10:28 am MONIX DR & RUTH CT SJ23 41.452220 -87.492832
11/09/2016 9:38 am W 85TH AV & WICKER AV SJ27 41.462715 -87.470350
11/09/2016 9:29 am 9400blk WICKER AV SJ27 41.447998 -87.470142
11/09/2016 8:51 am W 93RD AV & WICKER AV SJ27 41.449967 -87.470171
11/09/2016 8:08 am 10500 WICKER AV 41.428395 -87.470062
11/09/2016 7:32 am PATTERSON ST & WILDWOOD DR SJ23 41.463196 -87.480041
11/09/2016 7:14 am W 85TH AV & PATTERSON ST SJ23 41.464506 -87.481488
11/09/2016 7:02 am W 105TH PL & WICKER AV SJ27 41.427299 -87.470069
11/09/2016 6:46 am WICKER AV & VENTURA DR SJ27 41.464281 -87.470364
11/09/2016 6:32 am W 85TH AV & WICKER AV SJ27 41.462715 -87.470350
11/09/2016 2:00 am WICKER AV & W 97TH AV SJ28 41.441590 -87.470028
11/08/2016 2:56 pm PARK PL & W 109TH AV SJ10 41.420989 -87.441287
11/08/2016 2:15 pm 80TH PL & HAWTHORNE CT SJ10 41.472594 -87.478939
11/08/2016 12:01 pm PRARIE West PARK & 93RD AV SJ24
11/08/2016 11:49 am W 109TH AV & WICKER AV SJ16 41.421149 -87.470100
11/08/2016 11:36 am 231 & 41 SJ16
11/08/2016 11:34 am W 101ST AV & WHITE OAK AV SJ24 41.435563 -87.489287
11/08/2016 10:52 am W 93RD / SHILLTON SJ10
11/08/2016 10:23 am W 109TH AV & HILLCREST LN SJ10 41.421205 -87.496638
11/08/2016 8:43 am W 93RD AV & KARDEL DR SJ10 41.449965 -87.482962
11/08/2016 8:30 am 101ST / WHITE OAK SJ10
11/07/2016 6:55 am SADDLE CREEK DR & W 101ST AV SJ24 41.435592 -87.499938
11/07/2016 4:02 am 9200 WICKER AV SJ25 41.453592 -87.470222
11/07/2016 2:23 am W 85TH AV & AUSTIN AV SJ25 41.464273 -87.446219
11/07/2016 1:23 am 9600 WICKER AV SJ19 41.443973 -87.470069
11/06/2016 11:23 pm 9200 WICKER AV SJ19 41.453592 -87.470222
11/06/2016 9:30 pm 9300 WICKER AV SJ25 41.449967 -87.470171
11/06/2016 9:21 pm 9200 WICKER AV SJ25 41.453592 -87.470222
11/06/2016 9:10 pm 8600 WICKER AV SJ25 41.461624 -87.470339
11/06/2016 9:03 pm 8600 WICKER AV SJ25 41.461624 -87.470339
11/06/2016 8:50 pm W 109TH AV & SCHNEIDER PL SJ19 41.421141 -87.468343
11/06/2016 8:20 pm 8100 WICKER AV SJ19 41.471886 -87.470393
11/06/2016 8:09 pm 10800 WICKER AV SJ14 41.422959 -87.470092
11/06/2016 7:51 pm 8500 WICKER AV SJ25 41.462715 -87.470350
11/06/2016 7:42 pm 9500 WICKER AV SJ19 41.445991 -87.470111
11/06/2016 7:04 pm 11700 W 93RD AV SJ19 41.449987 -87.476751
11/06/2016 6:54 pm 8500 WICKER AV SJ25 41.462715 -87.470350
11/06/2016 6:27 pm WALL ST & WICKER AV SJ25 41.453043 -87.470213
11/06/2016 7:24 am WALL ST & PATTERSON ST SJ23 41.452823 -87.472087
11/06/2016 7:15 am WICKER AV & W 101ST AV SJ27 41.437165 -87.469986
11/06/2016 7:13 am 9600 WICKER AV SJ23 41.443973 -87.470069
11/06/2016 6:37 am 8200 WICKER AV SJ26 41.469318 -87.470392
11/06/2016 6:21 am JOLIET ST & WICKER AV SJ27 41.447742 -87.470138
11/06/2016 5:45 am W 85TH AV & WICKER AV SJ27 41.462715 -87.470350
11/06/2016 5:33 am W 93RD AV & KEILMAN ST SJ23 41.449981 -87.472491
11/06/2016 4:54 am W 109TH AV & CLINE AV SJ23 41.420910 -87.431171
11/06/2016 3:21 am 8200 WICKER AV SJ14 41.469318 -87.470392
11/06/2016 2:36 am 10200 WICKER AV SJ25 41.435026 -87.470008
11/06/2016 1:33 am 9700 WICKER AV SJ25 41.443089 -87.470050
11/06/2016 12:58 am JOLIET ST & WICKER AV SJ25 41.447742 -87.470138
11/06/2016 12:57 am 9200 WICKER AV SJ14 41.453592 -87.470222
11/06/2016 12:45 am 11000 W 93RD AV; PD SJ25 41.449956 -87.468941
11/06/2016 12:33 am W 93RD AV & COLUMBIA AV SJ25 41.450881 -87.500558
11/05/2016 11:29 pm 8200 WICKER AV SJ19 41.469318 -87.470392
11/05/2016 11:12 pm 13000 MONIX DR SJ25 41.452439 -87.493263
11/05/2016 11:08 pm 13500 W 93RD AV SJ25 41.450916 -87.497622
11/05/2016 10:50 pm W 109TH AV & WICKER AV SJ365 41.421149 -87.470100
11/05/2016 10:30 pm 10700 OLCOTT AV SJ19 41.425421 -87.481139
11/05/2016 8:41 pm 8400 WICKER AV SJ19 41.464281 -87.470364
11/05/2016 8:11 pm 93RD & HOWARD SJ19
11/05/2016 3:09 pm 231 & 41 SJ27
11/05/2016 2:54 pm 8400 WICKER AV SJ27 41.464281 -87.470364
11/05/2016 10:38 am 77TH & WICKER SJ26
11/05/2016 9:35 am 9200 WICKER AV SJ26 41.453592 -87.470222
11/05/2016 9:22 am 113 & cline SJ26
11/05/2016 8:39 am W 109TH AV & PARK PL SJ26 41.420989 -87.441287
11/05/2016 8:17 am cline & 231 SJ26
11/05/2016 8:00 am 9200 WICKER AV SJ23 41.453592 -87.470222
11/05/2016 7:40 am 9500 WICKER AV SJ23 41.445991 -87.470111
11/05/2016 7:37 am 9600 WICKER AV SJ27 41.443973 -87.470069
11/05/2016 7:32 am 9400 WICKER AV SJ23 41.447998 -87.470142
11/05/2016 7:19 am W 93RD AV & MONIX DR SJ23 41.450028 -87.491955
11/05/2016 6:31 am HILLTOP DR & W 93RD AV SJ27 41.450000 -87.487793
11/05/2016 6:24 am 9300 WICKER AV SJ27 41.449967 -87.470171
11/05/2016 1:34 am 10200 WICKER AV SJ14 41.435026 -87.470008
11/05/2016 12:47 am W 93RD AV & PATTERSON ST SJ19 41.449971 -87.470688
11/05/2016 12:14 am W 93RD AV & FAIRBANKS ST SJ19 41.449707 -87.417305
11/04/2016 11:51 pm 8400 WICKER AV SJ19 41.464281 -87.470364
11/04/2016 11:33 pm 9200 WICKER AV SJ360 41.453592 -87.470222
11/04/2016 11:30 pm JOLIET ST & WICKER AV SJ19 41.447742 -87.470138
11/04/2016 10:48 pm 8400 WICKER AV; LAKE CENTRAL HIGH SCHOOL SJ360 41.464281 -87.470364
11/04/2016 10:45 pm W 109TH AV & HILLCREST LN SJ19 41.421205 -87.496638
11/04/2016 10:09 pm W 101ST AV & CALUMET AV SJ19 41.435635 -87.508349
11/04/2016 9:40 pm 9200 WICKER AV SJ19 41.453592 -87.470222
11/04/2016 8:32 pm 8400 WICKER AV SJ19 41.464281 -87.470364
11/04/2016 8:32 pm 10400blk WICKER AV SJ14 41.429983 -87.470049
11/04/2016 8:13 pm 9700 WICKER AV SJ14 41.443089 -87.470050
11/04/2016 2:12 pm WICKER AV & WALL ST SJ27 41.453043 -87.470213
11/04/2016 11:35 am 11700 W 93RD AV; PRAIRIE WEST PARK SJ27 41.449987 -87.476751
11/04/2016 9:01 am 81ST AV & OAK DALE SJ25
11/04/2016 8:49 am 10800blk WICKER AV SJ23 41.422959 -87.470092
11/04/2016 8:30 am W 85TH AV & WICKER AV SJ27 41.462715 -87.470350
11/04/2016 8:27 am W 93RD AV & WICKER AV SJ1 41.449967 -87.470171
11/04/2016 8:11 am W 85TH AV & WICKER AV SJ1 41.462715 -87.470350
11/04/2016 8:00 am W 93RD AV & PATTERSON ST SJ1 41.449971 -87.470688
11/04/2016 7:48 am W 93RD AV & WICKER AV SJ27 41.449967 -87.470171
11/04/2016 7:26 am 9500blk WICKER AV SJ27 41.445991 -87.470111
11/03/2016 9:35 pm 11000 W 109TH AV SJ4 41.421125 -87.465951
11/03/2016 4:32 pm W 85TH AV & WICKER AV SJ27 41.462715 -87.470350
11/03/2016 3:20 pm WHITE OAK AV & W 101ST AV SJ27 41.435563 -87.489287
11/03/2016 1:29 pm W 93RD AV & WICKER AV SJ27 41.449967 -87.470171
11/03/2016 1:19 pm 8900 WICKER AV; SCHILLING LUMBER SJ27 41.457608 -87.470280
11/02/2016 11:17 am 9200 WICKER AV SJ23 41.453592 -87.470222
11/02/2016 10:23 am 9500 INDUSTRIAL SJ12
11/02/2016 9:00 am 97TH & 41 SJ12
11/02/2016 8:39 am W 109TH AV & MANOR DR SJ28 41.421247 -87.487135
11/02/2016 8:25 am 231 & 41 SJ28
11/02/2016 3:00 am 9300 WICKER AV SJ27 41.449967 -87.470171
11/02/2016 12:39 am PATTERSON ST & W 90TH AV SJ27 41.455863 -87.474706
11/01/2016 8:41 pm W 85TH AV & LAKE HILLS DR SJ14 41.464322 -87.455889
11/01/2016 7:53 pm 9500 WICKER AV SJ14 41.445991 -87.470111
11/01/2016 7:34 pm 9300 WICKER AV SJ27 41.449967 -87.470171
11/01/2016 10:29 am 9280 WICKER AV SJ23 41.451133 -87.470187
11/01/2016 8:31 am SCHOOL ST & WICKER AV SJ23 41.447742 -87.470138
11/01/2016 8:17 am 10900 WICKER AV SJ25 41.421149 -87.470100
11/01/2016 8:14 am 8400 WICKER AV SJ23 41.464281 -87.470364
11/01/2016 8:02 am W 109TH AV & ONTARIO ST SJ25 41.421154 -87.471273
11/01/2016 7:51 am 10900 WICKER SJ25
11/01/2016 5:04 am 9500 WICKER AV SJ23 41.445991 -87.470111
11/01/2016 3:01 am 10100 WICKER AV SJ19 41.436091 -87.469997
11/01/2016 2:37 am W 93RD AV & WICKER AV SJ27 41.449967 -87.470171
11/01/2016 1:31 am W 109TH AV & CLINE AV SJ19 41.420910 -87.431171
11/01/2016 12:27 am 9500 WICKER AV SJ27 41.445991 -87.470111
10/31/2016 11:47 pm WALL ST & WICKER AV SJ27 41.453043 -87.470213
10/31/2016 11:33 pm 8100 WICKER AV SJ19 41.471886 -87.470393
10/31/2016 11:22 pm 9300 WICKER AV SJ19 41.449967 -87.470171
10/31/2016 10:50 pm W 85TH AV & WICKER AV SJ27 41.462715 -87.470350
10/31/2016 10:01 pm WICKER AV & W 109TH AV SJ27 41.421149 -87.470100
10/31/2016 9:34 pm W 93RD AV & KEILMAN ST SJ27 41.449981 -87.472491
10/31/2016 9:15 pm W 85TH AV & WICKER AV SJ27 41.462715 -87.470350
10/31/2016 5:43 pm 2200 CALUMET AV SJ343
10/31/2016 2:26 pm 9200 WICKER AV SJ25 41.453592 -87.470222
10/31/2016 7:23 am 7600 WICKER SJ23
10/31/2016 1:26 am 8200 WICKER AV SJ24 41.469318 -87.470392
10/30/2016 11:49 pm 8400 WICKER AV SJ24 41.464281 -87.470364
10/30/2016 2:38 pm W 109TH AV & CALUMET AV SJ28 41.421141 -87.508266
10/30/2016 8:18 am W 85TH AV & FARMINGTON ST SJ10 41.463284 -87.467568
10/29/2016 10:32 pm 9400 WICKER AV SJ24 41.447998 -87.470142
10/29/2016 5:31 pm WICKER AV & WALL ST SJ24 41.453043 -87.470213
10/29/2016 4:59 pm 85TH & 41 SJ24
10/29/2016 9:34 am W 85TH AV & FAIRWAY DR SJ10 41.464359 -87.463697
10/29/2016 2:41 am 10400 WICKER AV SJ24 41.429983 -87.470049
10/29/2016 12:37 am 8900 WICKER AV SJ24 41.457608 -87.470280
10/28/2016 10:13 pm W 85TH AV & WINDING TRAIL SJ21 41.464348 -87.460495
10/28/2016 9:19 pm W 93RD AV & WICKER AV SJ13 41.449967 -87.470171
10/28/2016 6:40 pm W 109TH AV & OLCOTT AV SJ24 41.421214 -87.481530
10/28/2016 6:28 pm 85TH & 41 SJ13
10/28/2016 6:19 pm W 85TH AV & WICKER AV SJ13 41.462715 -87.470350
10/28/2016 12:50 pm 9400 WHITE OAK AV SJ10 41.448199 -87.489455
10/28/2016 12:38 pm W 93RD AV & WHITE OAK AV SJ10 41.450009 -87.489482
10/28/2016 12:29 pm 93RD & West OAK RIDGE SJ10
10/28/2016 11:29 am 109TH AND FORESTDALE SJ23
10/28/2016 11:05 am 109TH AND FORESTDALE SJ23
10/28/2016 11:01 am W 109TH AV & PARRISH AV SJ28 41.421037 -87.450588
10/28/2016 10:50 am 109TH AND OLCOTT SJ23
10/28/2016 10:37 am WHITE OAK AND 109TH AVE SJ23
10/28/2016 10:22 am 8200 WICKER SJ23
10/28/2016 9:38 am JOLIET AND WICKER SJ23
10/28/2016 9:24 am 109TH AND OLCOTT SJ23
10/28/2016 9:09 am WALL ST AND WICKER SJ23
10/28/2016 8:52 am 11100 BLOCK OF W. 93RD AVE SJ23
10/28/2016 8:42 am 9500 WICKER SJ23
10/28/2016 8:29 am 8700 WICKER SJ23
10/28/2016 8:16 am 9400 WICKER SJ23
10/28/2016 3:37 am 10500 WICKER AV SJ21 41.428395 -87.470062
10/27/2016 9:35 pm 9400 WICKER AV SJ25 41.447998 -87.470142
10/27/2016 9:25 pm WALL ST & WICKER AV SJ25 41.453043 -87.470213
10/27/2016 9:14 pm 9200 WICKER AV SJ25 41.453592 -87.470222
10/27/2016 8:56 pm 8200 wicker ave SJ25
10/27/2016 8:50 pm 7400 US 41 SJ25
10/27/2016 8:49 pm 9400 WHITE OAK AV SJ343 41.448199 -87.489455
10/27/2016 8:45 pm 8500 WICKER AV SJ25 41.462715 -87.470350
10/27/2016 8:39 pm WALL ST & WICKER AV SJ25 41.453043 -87.470213
10/27/2016 7:42 pm 11033 W 93RD AV SJ25 41.449958 -87.469145
10/27/2016 7:23 pm OLCOTT AV & NORTHCOTE AV SJ26 41.439875 -87.478798
10/27/2016 7:23 pm 9300 patterson st SJ25
10/27/2016 7:13 pm W 97TH AV & WICKER AV SJ26 41.441590 -87.470028
10/27/2016 7:11 pm 9200 WICKER AV SJ25 41.453592 -87.470222
10/27/2016 6:54 pm OLCOTT AV & NORTHCOTE AV SJ25 41.439875 -87.478798
10/27/2016 6:24 pm W 93RD AV & KEILMAN ST SJ25 41.449981 -87.472491
10/27/2016 4:16 pm W 93RD AV & WICKER AV SJ1 41.449967 -87.470171
10/27/2016 3:45 pm 8600 WICKER AV SJ343 41.461624 -87.470339
10/27/2016 3:35 pm 8400 WICKER AV SJ343 41.464281 -87.470364
10/27/2016 2:56 pm 8575 WICKER AV; SPEEDWAY SJ25 41.461959 -87.470344
10/27/2016 2:48 pm 11300 W 93RD AV SJ15 41.449975 -87.471459
10/27/2016 2:36 pm 9800 WHITE OAK AV SJ25 41.440970 -87.489352
10/27/2016 1:51 pm 10300 CALUMET AV SJ343 41.431140 -87.508328
10/27/2016 12:04 pm SJ25
10/27/2016 11:55 am 9500 WICKER AV SJ25 41.445991 -87.470111
10/27/2016 11:48 am 9300 WICKER AV SJ25 41.449967 -87.470171
10/27/2016 10:06 am W 109TH AV & MAPLE LN; RT231 SJ23 41.421024 -87.447732
10/27/2016 8:47 am 93RD AV SJ19 41.450131 -87.507993
10/27/2016 8:25 am 9400 WICKER AV SJ19 41.447998 -87.470142
10/27/2016 8:24 am 8500 PATTERSON ST SJ25 41.464531 -87.481506
10/27/2016 8:05 am 200 WICKER AV SJ25
10/27/2016 1:26 am 8200 WICKER AV SJ21 41.469318 -87.470392
10/27/2016 1:12 am 8400 WICKER AV SJ21 41.464281 -87.470364
10/26/2016 11:24 pm W 85TH AV & FAIRWAY DR SJ21 41.464359 -87.463697
10/26/2016 11:04 pm 231 JUST East OF WICKER SJ21
10/25/2016 2:25 pm RED CHEVY SJ23
10/25/2016 8:34 am 9900 SHEFFIELD SJ23
10/25/2016 7:59 am SJ18
10/25/2016 7:44 am 9200 COLUMBIA AV SJ23 41.452024 -87.500465
10/25/2016 7:16 am 9415 WICKER AV SJ1 41.447722 -87.470138 CIT
10/25/2016 7:03 am KNICKERBOCKER CT SJ1 41.424060 -87.480549 WW
10/25/2016 6:52 am MAGOUN DR & HERON LAKE RD SJ1 41.468449 -87.479141
10/24/2016 10:21 pm W 93RD AV & WHITE OAK AV SJ28 41.450009 -87.489482
10/24/2016 10:12 pm 8400 WICKER AV SJ28 41.464281 -87.470364
10/24/2016 10:40 am 10800 WICKER SJ23
10/24/2016 10:01 am 9300 KEILMAN SJ23
10/24/2016 9:54 am KEILMAN AND 93RD SJ23
10/24/2016 9:36 am 231 AND SCHNEIDER SJ23
10/24/2016 9:18 am 9500 WICKER SJ23
10/24/2016 9:04 am 9700 WICKER SJ23
10/24/2016 8:53 am JOLIET ST AND HART ST SJ23
10/24/2016 8:38 am WALL ST AND WICKER AVE SJ23
10/24/2016 8:24 am 9500 WICKER SJ23
10/24/2016 8:06 am WALL ST AND WICKER AVE SJ23
10/24/2016 6:57 am W 85TH AV & LAKE HILLS DR SJ18 41.464322 -87.455889
10/23/2016 5:06 pm W 77TH AV & WICKER AV SJ27 41.478956 -87.470527
10/23/2016 6:59 am 9700 WICKER AV SJ14 41.443089 -87.470050
10/23/2016 6:46 am JOLIET ST & WICKER AV SJ14 41.447742 -87.470138
10/23/2016 2:13 am 8500 WICKER AV SJ27 41.462715 -87.470350
10/23/2016 2:00 am 10900 WICKER AV SJ25 41.421149 -87.470100
10/23/2016 1:52 am W 80TH CT & WICKER AV SJ27 41.473644 -87.470406
10/23/2016 1:43 am CIVIC DR & W 93RD AV SJ27 41.449947 -87.467647
10/23/2016 1:31 am 9800 WICKER AV SJ21 41.441083 -87.470022
10/23/2016 1:10 am 9700 WICKER AV SJ27 41.443089 -87.470050
10/23/2016 12:49 am 8500 WICKER AV SJ27 41.462715 -87.470350
10/23/2016 12:36 am 8500 WICKER AV SJ25 41.462715 -87.470350
10/23/2016 12:06 am 9700 WICKER AV SJ27 41.443089 -87.470050
10/23/2016 12:06 am W 109TH AV & WICKER AV SJ25 41.421149 -87.470100
10/22/2016 10:51 pm 10400 PARRISH AV SJ27 41.434263 -87.450565
10/22/2016 10:18 pm 8400 WICKER AV SJ21 41.464281 -87.470364
10/22/2016 10:08 pm W 93RD AV & CLINE AV SJ27 41.449743 -87.431354
10/22/2016 9:02 pm FAIRWAY DR & W 85TH AV SJ27 41.464359 -87.463697
10/22/2016 8:41 pm 10700 WICKER AV SJ27 41.424209 -87.470085
10/22/2016 8:29 pm JOLIET ST & WICKER AV SJ27 41.447742 -87.470138
10/22/2016 6:48 pm W 85TH AV & WINDING TRAIL SJ343 41.464348 -87.460495
10/22/2016 5:42 pm VENTURE & 41 SJ343
10/22/2016 10:00 am 9700 WICKER AV; STRACK'S PARKING LOT SJ14 41.443089 -87.470050
10/22/2016 5:40 am 9200 WICKER AV SJ14 41.453592 -87.470222
10/22/2016 4:02 am 9400 WICKER AV SJ25 41.447998 -87.470142
10/22/2016 2:27 am 10300 WICKER AV SJ27 41.431350 -87.470039
10/22/2016 2:09 am 10700 WICKER AV SJ27 41.424209 -87.470085
10/22/2016 1:49 am joliet East of wicker SJ21
10/22/2016 1:32 am 10700 WICKER AV SJ25 41.424209 -87.470085
10/22/2016 1:29 am 9280 WICKER AV; WALGREENS #4276 SJ27 41.451133 -87.470187
10/21/2016 11:30 pm W 97TH AV & WICKER AV SJ25 41.441590 -87.470028
10/21/2016 11:16 pm 11500 W 93RD AV SJ25 41.449983 -87.473911
10/21/2016 9:21 pm 10600 CLINE AV SJ27 41.426834 -87.431179
10/21/2016 8:47 pm 8400 WICKER AV SJ27 41.464281 -87.470364
10/21/2016 8:32 pm 9700 WICKER AV SJ27 41.443089 -87.470050
10/21/2016 8:06 pm WICKER AV & WALL ST SJ27 41.453043 -87.470213
10/21/2016 7:56 pm 8400 WICKER AV SJ21 41.464281 -87.470364
10/21/2016 7:43 pm 9600 WICKER AV SJ21 41.443973 -87.470069
10/21/2016 7:05 pm 11700 WICKER AV SJ25 41.406558 -87.470069
10/21/2016 6:52 pm 77 / WICKER SJ27
10/21/2016 11:30 am W 101ST AV & SHEFFIELD AV SJ23 41.435615 -87.517966
10/21/2016 10:34 am W 93RD AV & MONIX DR SJ23 41.450028 -87.491955
10/21/2016 10:29 am 8500 WICKER AV SJ14 41.462715 -87.470350
10/21/2016 10:00 am ROSEWOOD / WHITE OAK SJ23
10/21/2016 8:16 am JOLIET ST & HART ST SJ23 41.442976 -87.461448
10/21/2016 7:36 am 9500 WHITE OAK SJ14
10/20/2016 9:55 am 9300 WICKER AV SJ23 41.449967 -87.470171
10/20/2016 8:27 am 93RD / WICKER SJ23
10/20/2016 8:17 am SCHOOL ST & WICKER AV SJ23 41.447742 -87.470138
10/20/2016 8:17 am SCHOOL ST AND WICKER SJ23
10/20/2016 8:08 am 8000 WICKER SJ23
10/20/2016 8:06 am 8000 WICKER SJ23
10/20/2016 6:11 am 11700 W 93RD AV SJ24 41.449987 -87.476751
10/20/2016 5:45 am WICKER AV & WALL ST SJ24 41.453043 -87.470213
10/19/2016 2:25 pm 12200 80TH PL SJ10 41.472594 -87.478939
10/19/2016 2:15 pm 80TH PL & KNICKERBOCKER PL SJ10 41.472194 -87.477521
10/19/2016 1:40 pm W 96TH AV & WICKER AV SJ10 41.443973 -87.470069
10/19/2016 1:06 pm 9400 WICKER AV SJ25 41.447998 -87.470142
10/19/2016 1:00 pm JOLIET ST & WICKER AV SJ25 41.447742 -87.470138 VW
10/19/2016 12:36 pm PATTERSON ST & W 93RD AV SJ25 41.449971 -87.470688 CIT
10/19/2016 12:21 pm 9500 WICKER AV SJ25 41.445991 -87.470111
10/19/2016 11:22 am 9400 WICKER AV SJ25 41.447998 -87.470142
10/19/2016 11:11 am 7600 WICKER SJ23
10/19/2016 11:00 am 8200 WICKER SJ23
10/19/2016 10:58 am 9700 wicker ave SJ25 VW
10/19/2016 10:51 am 8100 WICKER SJ23
10/19/2016 10:43 am 10900 wicker ave SJ25
10/19/2016 10:36 am 9200 WICKER SJ23
10/19/2016 10:28 am 9500 WICKER SJ23
10/19/2016 10:20 am 9700 WICKER SJ23
10/19/2016 10:12 am JOLIET AND WICKER SJ23
10/19/2016 9:53 am 9400 WICKER SJ23
10/19/2016 9:39 am 9200 WICKER SJ23
10/19/2016 9:12 am WALL AND WICKER SJ23
10/19/2016 9:01 am 11000 BLOCK OF W 93RD AVE SJ23
10/19/2016 2:27 am 10900 WICKER AV SJ25 41.421149 -87.470100
10/19/2016 2:12 am 8500 wicker ave SJ25
10/19/2016 1:40 am 11000 WICKER AV SJ25 41.420373 -87.470098
10/19/2016 1:30 am W 109TH AV & WICKER SJ25
10/18/2016 11:22 pm white oak av & w 109th av SJ25
10/18/2016 10:55 pm 9700 WICKER AV SJ25 41.443089 -87.470050
10/18/2016 10:55 pm WICKER AV & SCHOOL ST SJ21 41.447742 -87.470138
10/18/2016 10:30 pm 9700 WICKER AV SJ25 41.443089 -87.470050
10/18/2016 10:09 pm 10600 WICKER AV SJ25 41.427299 -87.470069
10/18/2016 10:03 pm 8200 WICKER AV SJ21 41.469318 -87.470392
10/18/2016 1:28 pm W 80TH CT & WICKER AV SJ27 41.473644 -87.470406
10/18/2016 12:09 pm 10255 WICKER AV; ALSIP HOME NURSERY SJ27 41.432984 -87.470025
10/18/2016 10:24 am 87TH & WICKER AV SJ27
10/18/2016 9:52 am 9900 WICKER AV SJ27 41.439393 -87.470004
10/18/2016 8:25 am 9200 WICKER AV SJ14 41.453592 -87.470222
10/18/2016 7:19 am 8000 PATTERSON AV SJ23 41.471726 -87.485009
10/18/2016 6:19 am W 101ST AV & SHEFFIELD AV SJ23 41.435615 -87.517966
10/18/2016 6:11 am W 93RD AV & WHITE OAK AV SJ27 41.450009 -87.489482
10/18/2016 5:54 am 9800 WICKER AV SJ27 41.441083 -87.470022
10/18/2016 5:53 am W 109TH AV & CLINE AV SJ26 41.420910 -87.431171
10/18/2016 5:45 am 9280 WICKER AV; WALGREENS #4276 SJ23 41.451133 -87.470187
10/18/2016 5:31 am W 109TH AV & CLINE AV SJ26 41.420910 -87.431171
10/18/2016 5:29 am W 93RD AV & WICKER AV SJ27 41.449967 -87.470171
10/18/2016 3:27 am 9700 WICKER AV SJ25 41.443089 -87.470050
10/18/2016 3:11 am 8500 WICKER AV SJ25 41.462715 -87.470350
10/18/2016 1:25 am 8200 WICKER AV SJ21 41.469318 -87.470392
10/17/2016 10:13 pm OAKRIDGE & W 97TH AV SJ25
10/17/2016 7:59 pm 9285 WICKER AV SJ21 41.450826 -87.470183
10/17/2016 7:46 pm 9825 WICKER AV; STRACK & VANTIL; 9800 WICKER SJ21 41.440661 -87.470018
10/17/2016 6:44 pm 9300 WHITE OAK AV SJ25 41.450009 -87.489482
10/17/2016 4:16 pm W 89TH AV & MALLARD LN SJ27 41.456409 -87.436969
10/17/2016 11:53 am WICKER AV & VENTURA DR SJ23 41.464281 -87.470364
10/17/2016 11:52 am 11000 W 109TH AV SJ26 41.421125 -87.465951
10/17/2016 11:43 am W 80TH CT & WICKER AV SJ27 41.473644 -87.470406
10/17/2016 11:42 am W 109TH AV & WICKER AV SJ26 CIT
10/17/2016 11:41 am SPEEDWAY ; 8500 WICKER SJ23
10/17/2016 10:25 am 7300 93rd av SJ27
10/17/2016 8:37 am W 85TH AV & PATTERSON ST SJ27 41.464506 -87.481488
10/17/2016 8:27 am 8200 WICKER AV SJ14 41.469318 -87.470392
10/17/2016 7:27 am W 93RD AV & WICKER AV SJ23 41.449967 -87.470171
10/17/2016 7:14 am W 93RD AV; VFW SJ23 41.450129 -87.508672
10/17/2016 6:48 am W 93RD AV & WICKER AV SJ27 41.449967 -87.470171
10/16/2016 10:50 pm 8801 WICKER AV; KOLLING ELEMENTARY SJ4 41.458933 -87.470299
10/16/2016 3:32 pm W 93RD AV & WHITE OAK AV SJ24 41.450009 -87.489482
10/16/2016 3:20 pm 11700 W 93RD AV; PRAIRIE WEST PARK SJ24 41.449987 -87.476751
10/16/2016 3:11 pm 93RD AV; PRAIRIE WEST PARK SJ24 41.450131 -87.507993
10/14/2016 9:11 pm 11600 WICKER AV; SB LANES SJ4 41.411508 -87.470077
10/14/2016 3:44 pm 93RD & 41 SJ16
10/14/2016 7:25 am W 93RD AV & MONIX DR SJ24 41.450028 -87.491955
10/13/2016 3:27 pm 93RD & 41 SJ1
10/13/2016 3:07 pm 11033 W 93RD AV; SJPD SJ23 41.449958 -87.469145
10/13/2016 1:13 pm 8200 WICKER AV SJ23 41.469318 -87.470392
10/13/2016 8:04 am 9827 GARDEN WAY SJ26 41.439904 -87.442329
10/13/2016 6:08 am W 109TH AV; EAST OF CLINE SJ26 41.421213 -87.495438
10/13/2016 5:53 am W 109TH AV & CLINE AV SJ26 41.420910 -87.431171
10/13/2016 5:30 am CLINE AV; north of w 109th av SJ26 41.420636 -87.431170
10/13/2016 2:30 am 11033 W 93RD AV SJ25 41.449958 -87.469145
10/13/2016 1:19 am W 93RD AV & KEILMAN ST SJ25 41.449981 -87.472491
10/13/2016 1:08 am 9500 WICKER AV SJ25 41.445991 -87.470111
10/12/2016 10:36 pm 10200 WICKER AV SJ14 41.435026 -87.470008
10/12/2016 1:38 pm 8801 WICKER AV; KOLLING SCHOOL SJ26 41.458933 -87.470299
10/12/2016 10:44 am W 93RD AV & WICKER AV; gas station SJ23 41.449967 -87.470171
10/12/2016 10:09 am 11033 W 93RD AV; SJPD SJ23 41.449958 -87.469145
10/12/2016 9:59 am 8600 WICKER AV SJ23 41.461624 -87.470339
10/12/2016 9:46 am VENTURA DR & WICKER AV SJ23 41.464281 -87.470364
10/12/2016 9:32 am SCHOOL ST; W OF WICKER SJ23 41.447738 -87.471309
10/12/2016 8:35 am 7900 WICKER AV SJ26 41.473644 -87.470406
10/12/2016 8:32 am 1800 WICKER SJ23
10/11/2016 8:24 pm W 105TH ST & OLCOTT AV SJ13 41.429002 -87.481120 WW
10/11/2016 12:23 pm WICKER AV & VENTURA DR SJ27 41.464281 -87.470364
10/11/2016 9:04 am wicker / 109th; sb SJ10
10/11/2016 7:57 am W 93RD AV & WICKER AV SJ27 41.449967 -87.470171
10/11/2016 7:50 am W 85TH AV & WICKER AV SJ27 41.462715 -87.470350
10/11/2016 7:35 am W 85TH AV & WICKER AV SJ27 41.462715 -87.470350
10/10/2016 9:02 pm 11000 W 93RD AV SJ24 41.449956 -87.468941
10/10/2016 8:39 pm W 109TH AV & HILLCREST LN SJ28 41.421205 -87.496638
10/10/2016 3:15 pm 9200 WICKER AV SJ10 41.453592 -87.470222
10/10/2016 3:03 pm W 93RD AV & HILLTOP DR SJ16 41.450000 -87.487793
10/10/2016 2:49 pm HILLTOP DR & W 93RD AV SJ16 41.450000 -87.487793
10/10/2016 2:40 pm W 93RD AV & WICKER AV SJ27 41.449967 -87.470171
10/10/2016 1:55 pm 9800 WICKER AV SJ27 41.441083 -87.470022
10/10/2016 1:12 pm 11200 SCHOOL ST SJ12 41.447742 -87.470138
10/10/2016 7:41 am W 93RD AV & WICKER AV SJ27 41.449967 -87.470171
10/10/2016 7:24 am W 93RD AV & WICKER AV SJ16 41.449967 -87.470171
10/10/2016 6:33 am WICKER AV & WALL ST SJ27 41.453043 -87.470213
10/10/2016 1:36 am 9500 WICKER AV SJ21 41.445991 -87.470111
10/10/2016 12:35 am 2251 US 41 SJ21 41.484478 -87.470653
10/09/2016 11:39 pm W 93RD AV & OLCOTT AV SJ21 41.449974 -87.480663
10/09/2016 11:28 pm 11700 93RD AV SJ19
10/09/2016 11:21 pm JOLIET ST; E OF WICKER AV SJ21 41.446940 -87.468764
10/09/2016 11:15 pm 8100 WICKER AV SJ19 41.471886 -87.470393
10/09/2016 10:26 pm 2333 US 41 SJ21 41.483358 -87.470606
10/09/2016 9:58 pm W 109TH AV & CLINE AV SJ19 41.420910 -87.431171
10/09/2016 9:43 pm W 93RD AV & HART ST SJ19 41.449891 -87.461531
10/09/2016 9:28 pm 9700 WICKER AV SJ21 41.443089 -87.470050
10/09/2016 9:05 pm PATTERSON ST & WALL ST SJ21 41.452823 -87.472087
10/09/2016 8:45 pm 10483 W 109TH AV SJ19 41.421088 -87.459995
10/09/2016 8:40 pm WICKER AV & VENTURA DR SJ21 41.464281 -87.470364
10/09/2016 8:29 pm 9500 WICKER AV SJ21 41.445991 -87.470111
10/09/2016 8:17 pm 9200 WICKER AV SJ19 41.453592 -87.470222
10/09/2016 8:04 pm 9300 WICKER AV SJ19 41.449967 -87.470171
10/09/2016 3:22 pm 9700 WICKER AV SJ14 41.443089 -87.470050
10/09/2016 12:26 pm 9200 OLCOTT AV SJ14 41.451570 -87.481338
10/09/2016 12:22 pm WELLINGTON CT E & W 101ST AV SJ26 41.435574 -87.493895
10/09/2016 12:09 pm W 101ST AV & WELLINGTON CT E SJ26 41.435574 -87.493895
10/09/2016 11:26 am 9600 WICKER AV SJ26 41.443973 -87.470069
10/09/2016 11:06 am 8500 WICKER AV SJ14 41.462715 -87.470350
10/09/2016 9:04 am 8500 WICKER AV SJ14 41.462715 -87.470350
10/09/2016 8:07 am W 93RD AV & MONIX DR SJ26 41.450028 -87.491955
10/09/2016 7:59 am 15200 W 101ST AV SJ14 41.435615 -87.517966
10/09/2016 7:11 am 500 WICKER SJ14
10/09/2016 6:59 am 9825 WICKER AV; STRACK & VANTIL SJ26 41.440661 -87.470018
10/09/2016 6:56 am 9700 WICKER AV SJ14 41.443089 -87.470050
10/09/2016 2:01 am 9600 WICKER AV SJ19 41.443973 -87.470069
10/09/2016 12:35 am WALL ST & WICKER AV SJ19 41.453043 -87.470213
10/09/2016 12:34 am 8200 WICKER AV SJ21 41.469318 -87.470392
10/09/2016 12:18 am 8400 WICKER AV SJ19 41.464281 -87.470364
10/08/2016 11:54 pm 10865 MAPLE LN; SUBWAY LOT SJ19 41.421686 -87.447766
10/08/2016 11:27 pm 8400 WICKER AV SJ19 41.464281 -87.470364
10/08/2016 11:22 pm 8400 WICKER AV SJ21 41.464281 -87.470364
10/08/2016 10:44 pm 8200 WICKER AV SJ19 41.469318 -87.470392
10/08/2016 10:37 pm DEODOR ST & ELLE AV SJ21 41.448431 -87.452457
10/08/2016 6:18 pm 9600 WICKER AV SJ19 41.443973 -87.470069
10/08/2016 6:01 pm 9200 WICKER AV SJ19 41.453592 -87.470222
10/08/2016 5:46 pm W 97TH AV & WICKER AV; STRACKS SJ19 41.441590 -87.470028
10/08/2016 2:53 pm BLK 8700 WICKER AV SJ26
10/08/2016 10:36 am W 101ST AV & WHITE OAK AV SJ26 41.435563 -87.489287
10/08/2016 8:32 am 8575 WICKER AV; SPEEDWAY SJ26 41.461959 -87.470344
10/08/2016 2:25 am 2031 US 41 SJ25 41.487213 -87.470785
10/08/2016 12:13 am AUSTIN AV & W 85TH AV SJ27 41.464273 -87.446219
10/07/2016 11:46 pm W 109TH AV & WICKER AV SJ27 41.421149 -87.470100
10/07/2016 11:26 pm 10500 WICKER AV SJ27 41.428395 -87.470062
10/07/2016 11:22 pm 8900 WICKER AV; SB SJ365 41.457608 -87.470280
10/07/2016 10:08 pm W 93RD AV & WICKER AV SJ27 41.449967 -87.470171
10/07/2016 9:20 pm 10600 WICKER AV SJ23 41.427299 -87.470069
10/07/2016 9:05 pm 8200 WICKER SJ23
10/07/2016 9:02 pm W 97TH LN & OLCOTT AV SJ365 41.442529 -87.478840
10/07/2016 8:49 pm 9400 WICKER AV SJ365 41.447998 -87.470142
10/07/2016 8:33 pm 8900 CLINE AV SJ23 41.456975 -87.431502
10/07/2016 8:32 pm WICKER AV & W 95TH AV SJ365 41.446031 -87.470111
10/07/2016 8:01 pm 9500 WICKER AV SJ23 41.445991 -87.470111
10/07/2016 7:17 pm 13700 WICKER AV SJ27 41.369309 -87.469971
10/07/2016 7:05 pm W 107TH PL & WICKER AV SJ27 41.423624 -87.470088
10/07/2016 6:49 pm W 109TH / OLCOTT SJ27
10/07/2016 3:20 pm WALL ST & WICKER AV SJ28 41.453043 -87.470213 WW
10/07/2016 3:01 pm WICKER AV & W 93RD AV SJ1 41.449967 -87.470171 WW
10/07/2016 2:39 pm welches SJ26
10/07/2016 7:55 am CLINE AV & W 109TH AV SJ26 41.420910 -87.431171
10/07/2016 7:12 am CLINE AV & W 109TH AV SJ26 41.420910 -87.431171
10/07/2016 6:59 am 10700 CLINE AV SJ26 41.424868 -87.431179
10/07/2016 6:45 am W 109TH AV & CLINE AV SJ26 41.420910 -87.431171
10/07/2016 6:18 am W 109TH AV & CLINE AV SJ26 41.420910 -87.431171 WW
10/07/2016 6:08 am PARK PL & W 109TH AV SJ26 41.420989 -87.441287 WW
10/06/2016 10:19 pm W 85TH AV & CHRISTOPHER DR SJ343 41.464526 -87.493496 WW
10/06/2016 7:47 pm 8700 WICKER AV; NB SJ4 41.460285 -87.470319
10/06/2016 4:40 pm 9600blk WICKER AV SJ343 41.443973 -87.470069
10/06/2016 3:53 pm W 109TH AV & WHITE OAK AV SJ343 41.421258 -87.489398
10/06/2016 10:17 am 8400 WICKER AV SJ25 41.464281 -87.470364 VW
10/06/2016 12:13 am KNICKERBOCKER PL & BARBARY CT SJ13 41.470104 -87.476867
10/05/2016 4:39 pm W 93RD AV & HACK ST SJ24 41.449925 -87.465068
10/05/2016 11:17 am 9155 WICKER AV; SUBWAY SJ16 41.454195 -87.470230
10/05/2016 7:18 am PRARIE West PARK & 93RD SJ24
10/05/2016 7:10 am SESEME & HERON LAKE SJ16
10/05/2016 7:02 am SHEFFIELD AV; N OF 81ST SJ1
10/04/2016 11:52 pm W 93RD AV & CIVIC DR SJ14 41.449947 -87.467647
10/04/2016 9:53 pm 9500 WICKER AV SJ14 41.445991 -87.470111
10/04/2016 9:08 pm 8900 WICKER AV SJ14 41.457608 -87.470280
10/04/2016 8:44 pm 8400 WICKER AV SJ14 41.464281 -87.470364
10/04/2016 7:55 pm 10800 OLCOTT AV SJ26 41.423403 -87.481327
10/04/2016 7:45 pm 108TH PL; WEST OF OLCOTT SJ26 41.422384 -87.481941
10/04/2016 3:52 pm GRN TOY SJ27
10/04/2016 3:16 pm 9300 KEILMAN ST SJ27 41.449981 -87.472491
10/04/2016 3:06 pm LOWELL & PATTERSON SJ27
10/03/2016 11:56 pm 9400 WICKER AV SJ19 41.447998 -87.470142
10/03/2016 11:47 pm 9400 WICKER AV SJ365 41.447998 -87.470142
10/03/2016 11:22 pm WICKER AV & SCHOOL ST SJ365 41.447742 -87.470138
10/03/2016 10:36 pm W 93RD AV & WICKER AV; WEST OF SJ26 41.449967 -87.470171
10/03/2016 8:06 pm 11700 WICKER AV SJ26 41.406558 -87.470069
10/03/2016 7:17 pm 9500 WICKER AV SJ19 41.445991 -87.470111
10/03/2016 5:54 pm ANYTIME FITNESS; SCHERERVILLE SJ25 CIT
10/03/2016 5:10 pm W 93RD AV & CIVIC DR SJ27 41.449947 -87.467647
10/03/2016 2:44 pm 9300 WICKER AV SJ25 41.449967 -87.470171
10/03/2016 2:32 pm 93 Ave; AT PD SJ21
10/03/2016 10:40 am 9400 WICKER AV; ST JOHN MALL SJ12 41.447998 -87.470142 WW
10/03/2016 10:20 am JOLIET ST & IVY AV SJ12 41.441512 -87.452718 VW
10/03/2016 9:19 am ROSEWOOD / WHITE OAK AV SJ25
10/03/2016 9:14 am 109TH / WICKER; SOUTH OF 109TH SJ27
10/03/2016 9:06 am 9300 KEILMAN ST SJ21 41.449981 -87.472491
10/03/2016 9:04 am 9700 WICKER AV SJ27 41.443089 -87.470050
10/03/2016 8:45 am 9300 WICKER AV SJ27 41.449967 -87.470171
10/03/2016 7:51 am SADDLE CREEK DR & W 101ST AV SJ25 41.435592 -87.499938
10/03/2016 7:29 am 10500 WHITE OAK AV SJ25 41.429191 -87.489305
10/03/2016 7:05 am 9400 WHITE OAK AV SJ25 41.448199 -87.489455 WW
10/01/2016 10:36 pm 9600 WICKER AV SJ16 41.443973 -87.470069
10/01/2016 6:26 pm W 109TH / MANOR SJ16
10/01/2016 6:12 pm W 109TH / OLCOTT SJ16 WW
09/30/2016 10:49 pm 8700 WICKER AV; NB SJ365 41.460285 -87.470319
09/30/2016 7:14 pm W 93RD AV & OLCOTT AV SJ16 41.449974 -87.480663
09/30/2016 2:39 pm 9400 KEILMAN ST SJ24 41.448184 -87.472483
09/30/2016 7:19 am 10200 WHITE OAK SJ24
09/30/2016 3:47 am W 85TH AV & PATTERSON ST SJ25 41.464506 -87.481488
09/30/2016 1:12 am W 109TH AV & WICKER AV SJ27 41.421149 -87.470100
09/30/2016 1:02 am 9600 WICKER AV SJ27 41.443973 -87.470069
09/30/2016 12:52 am 8200 WICKER AV SJ25 41.469318 -87.470392
09/30/2016 12:07 am 9300 WICKER AV SJ27 41.449967 -87.470171
09/29/2016 11:52 pm WICKER AV & W 109TH AV SJ27 41.421149 -87.470100
09/29/2016 11:46 pm 10700 WHITE OAK AV SJ25 41.425204 -87.489324
09/29/2016 11:23 pm 7967 WICKER AV; STANS SJ25 41.473053 -87.470402
09/29/2016 10:48 pm 8700 WICKER AV SJ25 41.460285 -87.470319
09/29/2016 8:50 pm 9600 WICKER AV SJ25 41.443973 -87.470069
09/29/2016 8:39 pm 11200 WICKER AV SJ25 41.418819 -87.470094
09/29/2016 8:00 pm 8300 WICKER AV SJ25 41.466787 -87.470378
09/29/2016 7:52 pm 8400 WICKER AV SJ25 41.464281 -87.470364
09/29/2016 7:43 pm 8500 WICKER AV SJ25 41.462715 -87.470350
09/29/2016 6:51 pm 8400 WICKER AV SJ19 41.464281 -87.470364
09/29/2016 6:40 pm 10800 WICKER AV SJ19 41.422959 -87.470092
09/29/2016 10:28 am W 101ST AV & BLAINE ST SJ21 41.436088 -87.426323
09/29/2016 7:10 am W 83RD PL & OSAGE DR SJ23 41.468064 -87.482791
09/29/2016 6:55 am WICKER AV & SCHOOL ST SJ21 41.447742 -87.470138
09/29/2016 3:50 am 9600 WICKER AV SJ25 41.443973 -87.470069
09/29/2016 3:43 am 8500 WICKER AV SJ27 41.462715 -87.470350
09/29/2016 3:40 am 8800 WICKER AV SJ27 41.458947 -87.470300
09/29/2016 3:38 am 8800 WICKER AV SJ7 41.458947 -87.470300
09/29/2016 3:01 am 9600 WICKER AV SJ25 41.443973 -87.470069
09/29/2016 2:52 am W 93RD AV & OLCOTT AV SJ27 41.449974 -87.480663
09/29/2016 2:47 am 9600 WICKER AV SJ25 41.443973 -87.470069
09/29/2016 2:38 am 10700 WICKER AV SJ25 41.424209 -87.470085
09/29/2016 2:28 am WICKER AV & WALL ST SJ27 41.453043 -87.470213
09/29/2016 2:16 am 8200 WICKER AV SJ25 41.469318 -87.470392
09/29/2016 2:10 am WALL ST & WICKER AV SJ27 41.453043 -87.470213
09/29/2016 1:51 am 8500 WICKER AV SJ25 41.462715 -87.470350
09/29/2016 1:29 am 8900 WICKER AV SJ25 41.457608 -87.470280
09/29/2016 12:03 am 9200 WICKER AV SJ25 41.453592 -87.470222
09/29/2016 12:02 am W 93RD AV & WICKER AV SJ25 41.449967 -87.470171
09/28/2016 10:11 pm W 93RD AV & WICKER AV SJ27 41.449967 -87.470171
09/28/2016 8:27 pm 8400 WICKER AV SJ25 41.464281 -87.470364
09/28/2016 8:18 pm 8500 WICKER AV SJ25 41.462715 -87.470350
09/28/2016 3:50 pm 10700 WICKER AV SJ23 41.424209 -87.470085
09/28/2016 2:48 pm WICKER / US 30; PKLT NW CORNER SJ1
09/27/2016 8:49 pm W 101ST AV & CLINE AV SJ4 41.436724 -87.431153
09/27/2016 11:08 am W 101ST AV & BLAINE ST SJ18 41.436088 -87.426323
09/27/2016 10:01 am W 91ST AV & MARQUETTE ST SJ18 41.453759 -87.441168
09/26/2016 1:23 pm 8300 PATTERSON ST SJ24 41.469357 -87.484956
09/26/2016 6:59 am 9200 WICKER AV SJ18 41.453592 -87.470222
09/26/2016 3:40 am W 93RD AV & WICKER AV SJ27 41.449967 -87.470171
09/26/2016 3:21 am 8400 WICKER AV SJ27 41.464281 -87.470364
09/26/2016 1:26 am 9600 WICKER AV SJ25 41.443973 -87.470069
09/26/2016 1:21 am WALL ST & WICKER AV SJ25 41.453043 -87.470213
09/25/2016 10:04 pm 9300 WICKER AV SJ27 41.449967 -87.470171
09/25/2016 9:43 pm WICKER AV & WALL ST SJ27 41.453043 -87.470213
09/25/2016 9:39 pm W 96TH AV & WICKER AV SJ27 41.443973 -87.470069
09/25/2016 9:24 pm W 85TH AV & WICKER AV SJ27 41.462715 -87.470350
09/25/2016 11:34 am 9200 W 93RD AV SJ26 41.450902 -87.453235
09/25/2016 11:23 am SCHAFER DR & W 93RD AV SJ26 41.449796 -87.442718
09/25/2016 11:19 am 9200 W 93RD AV SJ26 41.450902 -87.453235
09/25/2016 10:49 am 9200 W 93RD AV SJ26 41.450902 -87.453235
09/25/2016 8:10 am 8700 WICKER AV SJ23 41.460285 -87.470319
09/25/2016 7:05 am 8500 WICKER AV SJ23 41.462715 -87.470350
09/25/2016 7:04 am 93RD & CLARK SJ26
09/25/2016 6:29 am 11200 CLINE AV SJ26 41.415546 -87.431175
09/25/2016 5:42 am 7900 WICKER AV SJ23 41.473644 -87.470406
09/25/2016 5:33 am 8500 WICKER AV; SPEEDWAY SJ23 41.462715 -87.470350
09/25/2016 5:15 am 10600 WICKER AV SJ23 41.427299 -87.470069
09/25/2016 4:13 am W LINCOLN HWY & CLINE AV SJ25 41.481585 -87.431967
09/25/2016 3:03 am CLINE AV & W 101ST AV SJ27 41.436724 -87.431153
09/25/2016 2:10 am ANYTIME FITNESS ON RT 30 SJ27
09/25/2016 1:58 am W 80TH CT & WICKER AV SJ27 41.473644 -87.470406
09/25/2016 1:32 am W 80TH CT & WICKER AV SJ25 41.473644 -87.470406
09/25/2016 1:25 am 8800 WICKER AV SJ25 41.458947 -87.470300
09/25/2016 12:25 am W 93RD AV & HART ST SJ25 41.449891 -87.461531
09/24/2016 10:13 pm W 85TH AV & WICKER AV SJ27 41.462715 -87.470350
09/24/2016 8:09 pm 8000 WICKER SJ23
09/24/2016 8:06 pm PARRISH AV & W 109TH AV SJ27 41.421037 -87.450588
09/24/2016 7:51 pm WALL AND WICKER SJ23
09/24/2016 7:48 pm W 93RD AV & W SPRINGHILL DR SJ27 41.450726 -87.458538
09/24/2016 7:37 pm 9600 WICKER SJ23
09/24/2016 7:31 pm W 109TH AV & SCHNEIDER PL SJ25 41.421141 -87.468343
09/24/2016 7:27 pm W 93RD PL SJ27 41.449390 -87.506611
09/24/2016 7:21 pm 11100 BLOCK OF W 93RD AVE SJ23
09/24/2016 7:18 pm W 109TH AV & PARRISH AV SJ27 41.421037 -87.450588
09/24/2016 7:13 pm W 109TH AV & PARRISH AV SJ27 41.421037 -87.450588
09/24/2016 7:07 pm 10600 WICKER SJ23
09/24/2016 6:47 pm 8400 WICKER SJ23
09/24/2016 6:39 pm 8700 WICKER SJ23
09/24/2016 6:13 pm 9100 PATTERSON SJ23
09/24/2016 5:48 pm 93RD AND CIVIC SJ23
09/24/2016 5:34 pm WALL AND WICKER SJ23
09/24/2016 5:28 pm 9200 WICKER SJ23
09/24/2016 5:19 pm 9600 WICKER SJ23
09/24/2016 5:09 pm 9500 KEILMAN SJ23
09/24/2016 5:02 pm SCHOOL ST AND WICKER SJ23
09/24/2016 3:02 pm 82ND & 41 SJ21
09/24/2016 2:55 pm 8200 WICKER AV SJ23 41.469318 -87.470392
09/24/2016 2:42 pm 8700 WICKER AV SJ23 41.460285 -87.470319
09/24/2016 10:05 am 9155 WICKER AV; SUBWAY SJ26 41.454195 -87.470230
09/24/2016 8:56 am WICKER AV & SCHOOL ST SJ21 41.447742 -87.470138
09/23/2016 10:51 pm E 109TH AV & PARK ST SJ360 41.420281 -87.243847
09/23/2016 9:15 pm 9300 CLARMONTE DR SJ25 41.449796 -87.449160
09/23/2016 8:06 pm 85TH AND KOLLING RD SJ23
09/23/2016 7:40 pm 9200 WICKER SJ23
09/23/2016 7:14 pm 8400 WICKER SJ23
09/23/2016 7:07 pm 11400 VENTURA SJ23
09/23/2016 6:59 pm 8000 WICKER AV SJ25 41.472761 -87.470400
09/23/2016 6:55 pm SCHOOL ST AND WICKER SJ23
09/23/2016 6:40 pm 9500 WICKER AV SJ25 41.445991 -87.470111
09/23/2016 6:26 pm 85TH / WICKER AVE SJ23
09/23/2016 6:15 pm 85TH / WICKER AVE SJ23
09/23/2016 5:59 pm 85TH / WICKER AVE SJ23
09/23/2016 5:52 pm 8600 WICKER AVE SJ23
09/23/2016 5:43 pm 93RD / WICKER AVE SJ23
09/23/2016 5:31 pm 85TH / WICKER SJ23
09/23/2016 5:20 pm 93rd / WICKER AVE SJ23
09/23/2016 3:30 pm W 93RD AV & KEILMAN ST SJ27 41.449981 -87.472491
09/23/2016 3:18 pm W 85TH AV & WICKER AV SJ27 41.462715 -87.470350
09/23/2016 11:50 am 9400 WICKER AV SJ27 41.447998 -87.470142
09/23/2016 9:46 am W 105TH ST & WHITE OAK AV SJ23 41.429197 -87.489325
09/23/2016 8:04 am 8600 WICKER AV SJ23 41.461624 -87.470339
09/23/2016 7:25 am 9500 WICKER AV SJ21 41.445991 -87.470111
09/23/2016 12:51 am W 85TH AV & WINDING TRAIL SJ24 41.464348 -87.460495
09/23/2016 12:28 am 8200 WICKER AV SJ24 41.469318 -87.470392
09/22/2016 11:38 pm 10600 WICKER AV SJ24 41.427299 -87.470069
09/22/2016 9:33 pm 8700 WICKER AV SJ18 41.460285 -87.470319
09/22/2016 9:08 pm TOWN HALL SJ24
09/22/2016 8:58 pm W 85TH AV & FAIRWAY DR SJ18 41.464359 -87.463697
09/22/2016 8:47 pm 9800 WHITE OAK AV SJ18 41.440970 -87.489352
09/22/2016 8:31 pm W 100TH AV SJ18 41.436774 -87.452091
09/22/2016 5:13 pm 10600 WICKER AV SJ24 41.427299 -87.470069 WW
09/22/2016 3:03 pm 11700 W 93RD AV SJ19 41.449987 -87.476751
09/22/2016 2:36 pm 9400 WICKER AV SJ19 41.447998 -87.470142
09/22/2016 2:22 pm KNICKERBOCKER PL & 80TH PL SJ10 41.472194 -87.477521 WW
09/22/2016 2:20 pm W 93RD AV & KEILMAN ST SJ19 41.449981 -87.472491
09/22/2016 2:03 pm W 93RD AV & WICKER AV; ST JOHN CHURCH PKLT SJ19 41.449967 -87.470171
09/22/2016 11:24 am 10900 WHITE OAK SJ25
09/22/2016 11:15 am 10200 whiteoak ave SJ25
09/22/2016 11:03 am 10200 WHITEOAK SJ25
09/22/2016 9:57 am W 109TH AV & OLCOTT AV SJ16 41.421214 -87.481530
09/22/2016 9:48 am 10700 whiteoak ave SJ25
09/22/2016 9:32 am 10100 saddle creek dr SJ25
09/22/2016 9:20 am 9300 whiteoak ave SJ25
09/22/2016 9:03 am 10100 wellington SJ25
09/22/2016 8:56 am W 97TH AV & WICKER AV SJ16 41.441590 -87.470028 WW
09/22/2016 8:53 am 10600 WHITE OAK AV SJ25 41.427178 -87.489314 WW
09/22/2016 8:42 am W 109TH / WHITE OAK SJ25
09/22/2016 6:52 am 8200 KINCKERBOCKER ST SJ10
09/22/2016 12:41 am W 93RD AV & RENAISSANCE DR SJ18 41.449797 -87.446679
09/22/2016 12:20 am 8700 WICKER AV SJ18 41.460285 -87.470319
09/22/2016 12:08 am W 109TH AV; EAST OF CALUMET SJ18 41.421213 -87.495438
09/21/2016 11:45 pm 9100 WICKER AV SJ18 41.454931 -87.470241
09/21/2016 11:32 pm 9700 WICKER AV SJ18 41.443089 -87.470050
09/21/2016 4:43 pm 9400 WHITE OAK AV SJ19 41.448199 -87.489455
09/21/2016 4:37 pm 9400 41 SJ16
09/21/2016 4:30 pm W 101ST AV & WHITE OAK AV SJ19 41.435563 -87.489287
09/21/2016 4:02 pm WHITE OAK & ROSEWOOD SJ19
09/21/2016 3:52 pm 14061 BLUFF VIEW RD SJ19 41.434494 -87.505229
09/21/2016 3:32 pm W 101ST AV & WHITE OAK AV SJ19 41.435563 -87.489287
09/21/2016 1:06 pm W 93RD AV & NORTHCOTE AV SJ19 41.449966 -87.482130
09/21/2016 3:26 am W 98TH PL & THREE SPRINGS DR SJ27 41.439939 -87.456411
09/21/2016 1:07 am W 109TH AV & WICKER AV SJ27 41.421149 -87.470100
09/20/2016 11:43 pm 9500 WICKER AV SJ27 41.445991 -87.470111
09/20/2016 11:14 pm 8500 WICKER AV SJ27 41.462715 -87.470350
09/20/2016 10:09 pm W 93RD AV & MONIX DR SJ27 41.450028 -87.491955
09/20/2016 9:45 pm 8600 WICKER SJ23
09/20/2016 9:43 pm 8400 WICKER AV SJ27 41.464281 -87.470364
09/20/2016 9:37 pm 9280 WICKER SJ23
09/20/2016 9:28 pm 9200 WICKER SJ23
09/20/2016 9:02 pm 231 AND SCHNEIDER SJ23
09/20/2016 8:44 pm 109TH AND ONTARIO SJ23
09/20/2016 8:37 pm 109TH AND OLCOTT SJ23
09/20/2016 8:26 pm 11000 BLOCK OF WICKER SJ23
09/20/2016 8:08 pm 11500 BLOCK OF WHITE OAK SJ23
09/20/2016 7:55 pm W 109TH AV & PARRISH AV SJ27 41.421037 -87.450588
09/20/2016 7:54 pm 109TH AND HILLCREST SJ23
09/20/2016 7:43 pm 8500 WICKER AV SJ27 41.462715 -87.470350
09/20/2016 7:28 pm WICKER AND VENTURA SJ23
09/20/2016 7:07 pm 93RD AND WICKER SJ23
09/20/2016 7:00 pm 9000 WICKER AV SJ14 41.456270 -87.470261
09/20/2016 6:49 pm 97TH AND WICKER SJ23
09/20/2016 6:36 pm WALL AND WICKER SJ23
09/20/2016 6:17 pm 9200 WICKER SJ23
09/20/2016 6:08 pm 9200 WICKER SJ23
09/20/2016 5:59 pm 8700 WICKER SJ23
09/20/2016 5:50 pm 8500 WICKER SJ23
09/20/2016 10:43 am W 109TH AV & OLCOTT AV SJ23 41.421214 -87.481530
09/20/2016 10:01 am MONIX & SHELTON SJ23
09/20/2016 9:19 am WICKER AV & WALL ST SJ10 41.453043 -87.470213
09/20/2016 8:56 am WICKER AV & WALL ST SJ10 41.453043 -87.470213
09/20/2016 8:40 am W 90TH AV & PATTERSON ST SJ23 41.455863 -87.474706
09/20/2016 8:37 am 9200 WICKER AV SJ10 41.453592 -87.470222
09/20/2016 8:23 am WICKER AV & WALL ST SJ10 41.453043 -87.470213
09/20/2016 8:02 am WICKER AV & WALL ST SJ10 41.453043 -87.470213
09/20/2016 7:48 am WICKER AV & WALL ST SJ10 41.453043 -87.470213
09/20/2016 7:12 am 9200 WICKER AV SJ23 41.453592 -87.470222
09/20/2016 7:06 am 41 & KELLY SJ10
09/20/2016 6:37 am 9900 WICKER AV SJ10 41.439393 -87.470004
09/20/2016 6:08 am 9200 WICKER AV SJ10 41.453592 -87.470222
09/20/2016 5:54 am 9200 WICKER AV SJ10 41.453592 -87.470222
09/20/2016 5:43 am 9200 WICKER AV SJ10 41.453592 -87.470222
09/20/2016 5:28 am WICKER AV & WALL ST SJ10 41.453043 -87.470213
09/20/2016 3:51 am 9700 WICKER AV SJ14 41.443089 -87.470050
09/20/2016 12:24 am CALUMET AV & W 101ST AV SJ27 41.435635 -87.508349
09/19/2016 11:55 pm INDUSTRIAL DR & JOLIET ST SJ27 41.443788 -87.464124
09/19/2016 11:34 pm 8000 WICKER AV SJ14 41.472761 -87.470400
09/19/2016 10:52 pm 10600 WICKER AV SJ27 41.427299 -87.470069
09/19/2016 10:48 pm 9200 WICKER AV SJ14 41.453592 -87.470222
09/19/2016 10:39 pm 8400 WICKER AV SJ14 41.464281 -87.470364
09/19/2016 10:30 pm W 85TH AV & WICKER AV SJ27 41.462715 -87.470350
09/19/2016 10:19 pm W 93RD AV & WICKER AV SJ27 41.449967 -87.470171
09/19/2016 10:12 pm 9405 WICKER AV; DUNKIN DONUTS SJ27 41.447900 -87.470141
09/19/2016 6:55 pm 93rd / sheffield SJ27
09/19/2016 10:54 am W 93RD AV & WICKER AV SJ23 41.449967 -87.470171
09/19/2016 10:35 am 85TH AVE AND PRIMROSE SJ23
09/19/2016 10:26 am W 97TH AV & WICKER AV SJ10 41.441590 -87.470028
09/19/2016 10:08 am W 93RD AV & HILLTOP DR SJ10 41.450000 -87.487793
09/19/2016 9:50 am WICKER AV & WALL ST SJ10 41.453043 -87.470213
09/19/2016 9:46 am W 93RD AV & THIEL ST SJ10 41.449948 -87.467867
09/19/2016 9:32 am W 97TH AV & WICKER AV SJ26 41.441590 -87.470028
09/19/2016 9:28 am WICKER AV & WALL ST SJ10 41.453043 -87.470213
09/19/2016 9:06 am WICKER AV & WALL ST SJ10 41.453043 -87.470213
09/19/2016 8:46 am W 105TH PL & WICKER AV SJ10 41.427299 -87.470069
09/19/2016 8:14 am 9200 WICKER AV SJ10 41.453592 -87.470222
09/19/2016 7:52 am 9200 PATTERSON ST SJ10 41.452344 -87.471852
09/19/2016 7:18 am 8700 WICKER AV SJ10 41.460285 -87.470319
09/19/2016 6:52 am JOLIET ST & WICKER AV SJ10 41.447742 -87.470138
09/17/2016 9:49 pm 9200 WICKER AV SJ19 41.453592 -87.470222
09/17/2016 9:42 pm 8500 WICKER AV SJ19 41.462715 -87.470350
09/17/2016 9:12 pm 8400 WICKER AV SJ19 41.464281 -87.470364
09/17/2016 8:46 pm 8400 WICKER AV SJ19 41.464281 -87.470364
09/17/2016 8:34 pm 9700 WICKER AV SJ19 41.443089 -87.470050
09/17/2016 7:40 pm 10800 WICKER AV SJ19 41.422959 -87.470092
09/17/2016 7:22 pm 10000 W 109TH AVE SJ19
09/17/2016 6:58 pm W 101ST AV & SADDLE CREEK DR SJ19 41.435592 -87.499938
09/17/2016 6:35 pm 10800 WHITE OAK AV SJ19 41.423212 -87.489361
09/17/2016 6:19 pm 10800 WHITE OAK AV SJ19 41.423212 -87.489361
09/17/2016 6:05 pm 190TH & HURON SJ19
09/17/2016 5:14 pm WALL ST & WICKER AV SJ19 41.453043 -87.470213
09/17/2016 1:01 pm WICKER AV & WALL ST SJ24 41.453043 -87.470213
09/16/2016 5:33 pm 7700 WICKER AV SJ25 41.478956 -87.470527
09/16/2016 4:01 pm WALL & 41 SJ343
09/16/2016 3:09 pm PATTERSON ST & FORREST DR SJ16 41.458455 -87.478144
09/16/2016 2:58 pm PATTERSON ST & E OAKWOOD DR SJ16 41.459686 -87.478444
09/16/2016 2:51 pm 8700 PATTERSON ST SJ16 41.460732 -87.478920
09/16/2016 2:43 pm 10300 WICKER AV SJ343 41.431350 -87.470039
09/16/2016 2:30 pm 8400 HERON LAKE RD SJ16 41.468067 -87.475912
09/16/2016 2:29 pm 80TH PL & KNICKERBOCKER PL SJ10 41.472194 -87.477521
09/16/2016 2:26 pm 93RD & 41 SJ24
09/16/2016 2:17 pm 80TH PL & HAWTHORNE CT SJ10 41.472594 -87.478939
09/16/2016 2:13 pm MAGOUN DR & HERON LAKE RD SJ343 41.468449 -87.479141
09/16/2016 12:56 pm 8400 WICKER AV SJ343 41.464281 -87.470364
09/16/2016 12:19 pm 8400 WICKER AV; LAKE CENTRAL HIGH SCHOOL SJ343 41.464281 -87.470364
09/16/2016 10:52 am W 93RD AV & HILLTOP DR SJ10 41.450000 -87.487793
09/16/2016 8:53 am 11100 W 93RD AV SJ16 41.449961 -87.469559
09/16/2016 8:22 am W 93RD AV & MONIX DR SJ10 41.450028 -87.491955
09/16/2016 7:07 am 8200 HERON LAKE RD SJ10 41.468095 -87.480732
09/16/2016 7:01 am 8400 WICKER AV; LCHS LOT SJ24 41.464281 -87.470364
09/16/2016 1:26 am 637 US 41; LOWES HOME CENTER SJ14 41.512414 -87.471192
09/16/2016 12:52 am W 101ST AV & WICKER AV SJ19 41.437165 -87.469986
09/15/2016 11:51 pm HERON LAKE RD & MAGOUN DR SJ23 41.468449 -87.479141
09/15/2016 11:34 pm 7967 WICKER AV; STANS TOWING SJ23 41.473053 -87.470402
09/15/2016 9:08 pm 8500 WICKER AV SJ23 41.462715 -87.470350
09/15/2016 8:43 pm JOLIET ST; WEST OF INDUSTRIAL SJ23 41.446940 -87.468764
09/15/2016 8:16 pm W 102ND AV & WHITE OAK AV SJ19 41.433370 -87.489295
09/15/2016 7:34 pm 8200 WICKER AV SJ23 41.469318 -87.470392
09/15/2016 5:06 pm 11033 W 93RD AV; ST JOHN POLICE DEPARTMENT SJ19 41.449958 -87.469145
09/15/2016 3:47 pm PATTERSON ST & W 90TH AV SJ27 41.455863 -87.474706
09/15/2016 3:14 pm 8900 W 85TH AV SJ27 41.464265 -87.442585
09/15/2016 11:43 am PATTERSON ST & WALL ST SJ26 41.452823 -87.472087
09/15/2016 11:17 am PATTERSON ST & WILDWOOD DR SJ26 41.463196 -87.480041
09/15/2016 10:12 am W 85TH AV & FAIR OAKS LN SJ26 41.464517 -87.490791
09/15/2016 9:34 am W 90TH AV & PATTERSON ST SJ26 41.455863 -87.474706
09/15/2016 8:35 am NORTHCOTE AV & W 93RD AV SJ27 41.449966 -87.482130
09/15/2016 8:35 am WALGREENS SJ26
09/15/2016 8:12 am WICKER AV & WALL ST SJ27 41.453043 -87.470213
09/15/2016 7:31 am W 93RD AV & PATTERSON ST SJ27 41.449971 -87.470688
09/15/2016 6:49 am 9401 WICKER AV; SCHOOPS SJ4 41.447979 -87.470142
09/15/2016 6:41 am JOLIET ST; EAST OF WICKER AV SJ26 41.446940 -87.468764
09/15/2016 6:37 am W 109TH AV & WICKER AV SJ27 41.421149 -87.470100
09/15/2016 3:33 am 8100 WICKER AV SJ19 41.471886 -87.470393
09/15/2016 12:40 am 9500 WICKER AV SJ23 41.445991 -87.470111
09/15/2016 12:26 am 9800 WICKER AV SJ14 41.441083 -87.470022
09/14/2016 10:54 pm 9400 WICKER AV SJ23 41.447998 -87.470142
09/14/2016 4:22 pm W 109TH / OLCOTT SJ4
09/14/2016 1:18 pm 9200 WICKER AV SJ21 41.453592 -87.470222
09/14/2016 1:10 pm JOLIET / PARK SJ21
09/14/2016 10:42 am 9600 WICKER AV SJ26 41.443973 -87.470069
09/14/2016 10:29 am SPEEDWAY SJ26
09/13/2016 12:56 pm WALL ST AND WICKER AV SJ23
09/13/2016 11:27 am 9700 WICKER AV SJ23 41.443089 -87.470050
09/13/2016 10:53 am WICKER AV & VENTURA DR SJ23 41.464281 -87.470364
09/13/2016 10:11 am W 109TH AV & WHITE OAK AV SJ16 41.421258 -87.489398
09/13/2016 10:01 am SCHOOL ST & WICKER AV SJ23 41.447742 -87.470138
09/13/2016 10:00 am WICKER AV & W 109TH AV; RT231 SJ16 41.421149 -87.470100
09/13/2016 9:45 am 9100 WICKER AV SJ23 41.454931 -87.470241
09/13/2016 9:23 am 11033 W 93RD AV; SJPD SJ25 41.449958 -87.469145
09/13/2016 9:13 am 9400 WICKER AV SJ25 41.447998 -87.470142
09/13/2016 8:49 am W 97TH AV & WICKER AV SJ25 41.441590 -87.470028
09/13/2016 8:34 am 9200 WICKER AV SJ25 41.453592 -87.470222
09/13/2016 8:23 am W 97TH AV & WICKER AV SJ10 41.441590 -87.470028
09/13/2016 8:23 am 9500 WICKER AV SJ25 41.445991 -87.470111
09/13/2016 8:05 am 9500 WICKER AV SJ25 41.445991 -87.470111
09/12/2016 12:26 pm 231 & 41 SJ16
09/12/2016 12:23 pm 8600 WICKER AV SJ25 41.461624 -87.470339
09/12/2016 12:08 pm WALL ST & WICKER AV SJ25 41.453043 -87.470213
09/12/2016 12:00 pm W 105TH ST & WHITE OAK AV SJ16 41.429197 -87.489325
09/12/2016 11:58 am 8000 WICKER SJ25
09/12/2016 11:43 am 9200 WICKER AV SJ25 41.453592 -87.470222
09/12/2016 8:01 am 9500 WICKER AV SJ25 41.445991 -87.470111
09/12/2016 7:53 am 9500 WICKER AV SJ25 41.445991 -87.470111
09/12/2016 6:44 am W 93RD AV & WICKER AV SJ16 41.449967 -87.470171
09/12/2016 1:38 am 10700 WICKER AV SJ27 41.424209 -87.470085
09/11/2016 11:38 pm 9700 WICKER AV SJ27 41.443089 -87.470050
09/11/2016 11:33 pm W 109TH AV & E SCHNEIDER CT SJ23
09/11/2016 11:25 pm 8500 WICKER AV SJ23 41.462715 -87.470350
09/11/2016 11:25 pm SCHILLTON DR & JAMES DR SJ27 41.456693 -87.492151
09/11/2016 10:59 pm 9700 WICKER AV SJ27 41.443089 -87.470050
09/11/2016 8:16 pm 85TH AVE AND LAKE HILLS DR SJ23
09/11/2016 8:11 pm 7700 WICKER AV SJ23 41.478956 -87.470527
09/11/2016 8:09 pm WALL ST & WICKER AV SJ27 41.453043 -87.470213
09/11/2016 7:55 pm WALL ST & WICKER AV SJ27 41.453043 -87.470213
09/11/2016 7:39 pm 8800 WICKER AV SJ14 41.458947 -87.470300
09/11/2016 7:25 pm JOLIET ST AND WICKER SJ23
09/11/2016 7:21 pm 9300 WICKER AV SJ27 41.449967 -87.470171
09/11/2016 7:10 pm 8500 WICKER AV SJ14 41.462715 -87.470350
09/11/2016 6:42 pm 11900 WICKER AV SJ23 41.402878 -87.470053
09/11/2016 3:44 pm 91ST & CALHOUN SJ4
09/11/2016 12:09 pm W 93RD AV & W OAKRIDGE DR SJ4 41.449989 -87.478157
09/11/2016 11:29 am W 107TH AV & OLCOTT AV SJ26 41.424932 -87.481142
09/11/2016 9:03 am WALL & 41 SJ343
09/11/2016 7:50 am 8445 WICKER AV SJ26 41.463570 -87.470358
09/11/2016 1:16 am W 109TH AV & OLCOTT SJ27
09/11/2016 1:10 am WICKER AV & W 109TH AV SJ27 41.421149 -87.470100
09/11/2016 12:24 am 9500 WICKER AV SJ14 41.445991 -87.470111
09/10/2016 11:44 pm 10000 DELMAR ST SJ14 41.437180 -87.485311
09/10/2016 11:40 pm W 109TH AV & CLINE AV SJ27 41.420910 -87.431171
09/10/2016 11:28 pm 9829 W 100TH PL SJ27 41.435899 -87.453281
09/10/2016 10:51 pm 9100 WINDING TRAIL SJ14 41.453493 -87.464518
09/10/2016 10:25 pm WALL ST & WICKER AV SJ27 41.453043 -87.470213
09/10/2016 7:39 pm TEACHERS CREDIT UNION SJ27
09/10/2016 9:01 am 10400 W 93RD AV; VFW POST SJ26 41.449906 -87.463029
09/10/2016 8:38 am CLARMONTE DR & W 93RD AV SJ26 41.449796 -87.449160
09/10/2016 1:02 am 8700 WICKER AV SJ23 41.460285 -87.470319
09/09/2016 11:53 pm 8000 WICKER AV SJ27 41.472761 -87.470400
09/09/2016 11:26 pm 10700 OLCOTT AV SJ25 41.425421 -87.481139
09/09/2016 11:23 pm 10200 CLINE AV SJ27 41.435299 -87.431161
09/09/2016 11:18 pm W 85TH AV & MAGNOLIA ST SJ19 41.464537 -87.497139
09/09/2016 11:08 pm 9400 WICKER AV SJ25 41.447998 -87.470142
09/09/2016 10:45 pm 9200 WICKER AV SJ23 41.453592 -87.470222
09/09/2016 10:13 pm W 93RD AV & MALLARD COVE SJ27 41.449778 -87.436813
09/09/2016 6:50 am W 93RD AV; WEST OF CLINE SJ26 41.450129 -87.508672
09/09/2016 6:42 am CLAREMONT DR; SOUTH OF W 93RD AV SJ26 41.444436 -87.450019
09/08/2016 4:34 pm 12068 FORREST DR SJ1 41.458257 -87.479888 WW
09/08/2016 11:10 am 9500 WICKER AV SJ25 41.445991 -87.470111 CIT
09/08/2016 9:06 am 10900 olcott SJ25 VW
09/08/2016 8:33 am 8700 WICKER AV SJ25 41.460285 -87.470319 CIT
09/08/2016 8:21 am 9400 JOLIET ST SJ25 41.441165 -87.450616
09/07/2016 10:02 pm 9600 WICKER AV SJ10 41.443973 -87.470069
09/07/2016 9:51 pm 9200 WICKER AV SJ18 41.453592 -87.470222
09/07/2016 9:45 pm W 93RD AV & WICKER AV; WALGREENS SJ10 41.449967 -87.470171
09/07/2016 8:40 pm 10200 WICKER AV SJ18 41.435026 -87.470008
09/07/2016 7:14 pm 10600 WHITE OAK AV; SJ ICE SJ18 41.427178 -87.489314
09/07/2016 6:42 pm 231 & 41 SJ16
09/07/2016 6:31 pm 109TH & OLCOTT SJ16
09/07/2016 1:32 pm 9300 CIVIC DR SJ13
09/07/2016 7:17 am 8700 MARQUETTE RD SJ13 41.459515 -87.441287
09/07/2016 7:03 am 89834 shaffer SJ13
09/06/2016 11:27 am JOLIET & FREE SPRING SJ12
09/06/2016 6:50 am POPLAR & ARBOR SJ27
09/05/2016 3:56 pm 8200 WICKER AV SJ19 41.469318 -87.470392
09/05/2016 3:47 pm 8200 WICKER AV SJ19 41.469318 -87.470392
09/05/2016 3:37 pm VENTURA DR & WICKER AV SJ27 41.464281 -87.470364
09/05/2016 3:26 pm W 93RD AV & WICKER AV SJ27 41.449967 -87.470171
09/05/2016 2:39 pm W 85TH AV & WICKER AV SJ27 41.462715 -87.470350
09/05/2016 1:56 pm 109TH / ONTARIO SJ19
09/05/2016 8:40 am 9400 JOLIET ST SJ19 41.441165 -87.450616
09/05/2016 8:11 am WALL ST & WICKER AV SJ19 41.453043 -87.470213
09/05/2016 7:18 am 8700 85TH SJ27
09/05/2016 7:12 am 8500 WICKER AV SJ19 41.462715 -87.470350
09/04/2016 7:27 am 93RD / COLUMBIA SJ18 VW
09/04/2016 12:25 am W 85TH AV & AUSTIN AV SJ24 41.464273 -87.446219
09/03/2016 1:49 pm MORNINGLORY PL & GOLDENROD PL SJ16 41.459390 -87.490488 CIT
09/03/2016 1:24 pm W 85TH AV & PRIMROSE DR SJ16 41.464508 -87.487911
09/03/2016 1:05 pm SJ16 WW
09/02/2016 9:01 pm 109TH AND FORESTDALE SJ23
09/02/2016 8:54 pm 231 AND SCHNEIDER SJ23
09/02/2016 8:32 pm 231 AND SCHNEIDER SJ23
09/02/2016 8:11 pm 109TH AND WHITE OAK SJ23
09/02/2016 8:04 pm 109TH AND OLCOTT SJ23
09/02/2016 7:53 pm 10800 CALUMET SJ23
09/02/2016 7:42 pm 10800 OLCOTT SJ23
09/02/2016 7:16 pm 109TH AND FORESTDALE SJ23
09/02/2016 6:44 pm 8600 WICKER SJ23
09/02/2016 6:23 pm 10200 WICKER SJ23
09/02/2016 6:13 pm 101ST AND WICKER SJ23
09/02/2016 5:58 pm 10500 WICKER SJ23
09/02/2016 5:55 pm 109TH AND FORESTDALE SJ23
09/02/2016 5:37 pm 9200 WICKER SJ23
09/02/2016 3:16 pm 8500 WICKER AV SJ25 41.462715 -87.470350
09/02/2016 7:17 am 9600 WICKER AV SJ25 41.443973 -87.470069
09/01/2016 10:09 pm 85TH AND WICKER SJ23
09/01/2016 9:50 pm WICKER AND SCHOOL SJ23
09/01/2016 9:35 pm WICKER AND VENTURA SJ23
09/01/2016 9:28 pm 8100 WICKER SJ23
09/01/2016 9:16 pm 9280 WICKER SJ23
09/01/2016 7:25 pm 9700 PHEASANT SJ23
09/01/2016 7:12 pm 9500 WICKER SJ23
09/01/2016 6:58 pm PATTERSON AND 93RD SJ23
09/01/2016 6:58 pm 10700 WHITEOAK AVE SJ19
09/01/2016 6:12 pm WALL AND WICKER SJ23
09/01/2016 5:54 pm 9500 WICKER SJ23
09/01/2016 5:09 pm VENTURA & 41 SJ343
09/01/2016 4:16 pm W 93RD AV & WHITE OAK AV SJ27 41.450009 -87.489482
09/01/2016 4:04 pm 8400 WICKER AV SJ343 41.464281 -87.470364
09/01/2016 4:03 pm KARDEL DR & W 93RD AV SJ27 41.449965 -87.482962
09/01/2016 3:59 pm 9407 WICKER AV SJ343 41.447861 -87.470140
09/01/2016 3:46 pm W 85TH AV & WICKER AV SJ27 41.462715 -87.470350
09/01/2016 2:42 pm 8400 WICKER AV SJ343 41.464281 -87.470364
09/01/2016 2:26 pm W 85TH AV & WICKER AV SJ27 41.462715 -87.470350
09/01/2016 2:23 pm 9400 WICKER AV SJ343 41.447998 -87.470142
09/01/2016 1:47 pm 9400 JOLIET ST SJ343 41.441165 -87.450616
09/01/2016 1:32 pm 9500 WICKER AV SJ343 41.445991 -87.470111
09/01/2016 1:17 pm 9500 WICKER AV SJ343 41.445991 -87.470111
09/01/2016 11:56 am CLINE & 231 SJ343
09/01/2016 11:29 am 10800 OLCOTT AV SJ343 41.423403 -87.481327
09/01/2016 6:53 am 8300 WICKER AV SJ27 41.466787 -87.470378
09/01/2016 12:19 am 8400 WICKER AV SJ19 41.464281 -87.470364
08/31/2016 11:08 pm 10100 CLINE AV SJ19 41.436724 -87.431153
08/31/2016 10:54 pm JOLIET ST & INDUSTRIAL DR SJ19 41.443788 -87.464124
08/31/2016 10:01 pm SR 231 & WICKER AV SJ19
08/31/2016 6:36 pm W 94TH PL & VILLAGIO WAY SJ4 41.447758 -87.445337
08/31/2016 2:23 pm 8575 WICKER AV; SPEEDWAY SJ27 41.461959 -87.470344
08/31/2016 2:09 pm W 85TH AV & WICKER AV SJ27 41.462715 -87.470350
08/31/2016 1:03 pm 11700 W 93RD AV; PRAIRIE WEST PARK SJ23 41.449987 -87.476751
08/31/2016 11:57 am 9500 WICKER AV SJ23 41.445991 -87.470111
08/31/2016 9:42 am 9280 WICKER AV; WALGREENS #4276 SJ23 41.451133 -87.470187
08/31/2016 8:21 am 10200 WICKER AV SJ23 41.435026 -87.470008
08/31/2016 8:10 am 8400 WICKER AV SJ23 41.464281 -87.470364
08/31/2016 7:01 am W 93RD AV & WICKER AV SJ27 41.449967 -87.470171
08/31/2016 6:50 am 9700 WICKER AV SJ27 41.443089 -87.470050
08/31/2016 6:39 am 9600 WICKER AV SJ23 41.443973 -87.470069
08/30/2016 7:16 pm 8400 WICKER AV SJ25 41.464281 -87.470364
08/30/2016 7:06 pm SR231 & WICKER AV SJ16
08/30/2016 6:10 pm W 85TH AV & PRIMROSE DR SJ16 41.464508 -87.487911 WW
08/30/2016 5:31 pm W 109TH AV & OLCOTT AV SJ16 41.421214 -87.481530 VW
08/30/2016 12:56 pm W 109TH AV & OLCOTT AV SJ18 41.421214 -87.481530
08/30/2016 7:43 am JOLIET ST & WICKER AV SJ18 41.447742 -87.470138
08/30/2016 6:49 am OLCOTT AV & HOMESTEAD HEIGHTS DR SJ13 41.437075 -87.480077
08/30/2016 6:38 am WALL ST & WICKER AV SJ13 41.453043 -87.470213
08/30/2016 5:32 am W 77TH AV & WICKER AV SJ24 41.478956 -87.470527
08/30/2016 3:18 am 8400 WICKER AV; LCHS SJ25 41.464281 -87.470364
08/29/2016 10:08 pm 9500 WICKER AV SJ25 41.445991 -87.470111
08/29/2016 9:50 pm 9300 BRAMBLEWOOD DR SJ25 41.450151 -87.505367
08/29/2016 9:40 pm 10500 WHITE OAK AV SJ25 41.429191 -87.489305
08/29/2016 9:37 pm W 93RD AV & W OAKRIDGE DR SJ16 41.449989 -87.478157
08/29/2016 9:27 pm 9700 WICKER AV SJ16 41.443089 -87.470050
08/29/2016 8:51 pm W 109TH AV & OLCOTT AV SJ16 41.421214 -87.481530
08/29/2016 7:54 pm 8801 WICKER AV; KOLLING SJ25 41.458933 -87.470299
08/29/2016 7:44 pm 8300 WICKER AV SJ25 41.466787 -87.470378
08/29/2016 7:34 pm W 93RD AV & W OAKRIDGE DR SJ10 41.449989 -87.478157
08/29/2016 7:20 pm W 117TH AV; W OF WHITE OAK SJ23
08/29/2016 6:47 pm KEILMAN ST & W 93RD AV SJ23 41.449981 -87.472491
08/29/2016 6:42 pm W 93RD AV & KEILMAN ST SJ23 41.449981 -87.472491
08/29/2016 6:29 pm 9200 WICKER AV SJ23 41.453592 -87.470222
08/29/2016 6:04 pm 8400 WICKER AV SJ23 41.464281 -87.470364
08/29/2016 5:55 pm WALL ST & WICKER AV SJ23 41.453043 -87.470213
08/29/2016 5:46 pm 8600 WICKER AV SJ23 41.461624 -87.470339
08/29/2016 5:39 pm 9200 WICKER AV SJ23 41.453592 -87.470222
08/29/2016 2:14 pm W 83RD PL & HERON LAKE RD SJ24 41.467357 -87.481887
08/29/2016 9:09 am 109TH & WOLCOTT SJ18
08/29/2016 7:54 am 10600 WHITE OAK AV SJ24 41.427178 -87.489314
08/28/2016 9:41 pm W 87TH AV & PRIMROSE DR SJ4 41.460848 -87.487808
08/28/2016 8:55 pm 8900 WICKER AV; NB SJ4 41.457608 -87.470280
08/28/2016 7:45 pm PARK PL; E OF 105TH ROUNDABOUT SJ26 41.422740 -87.441265
08/28/2016 2:43 pm W 93RD AV & PATTERSON ST SJ27 41.449971 -87.470688
08/28/2016 1:05 pm 138 93RD SJ27
08/28/2016 12:53 pm COLUMBIA AV & W 93RD AV SJ27 41.450881 -87.500558
08/28/2016 10:40 am 93RD AV & CALUMET AV SJ27 41.450132 -87.507827
08/28/2016 6:25 am 8500 WICKER AV SJ14 41.462715 -87.470350
08/28/2016 6:14 am 8400 WICKER AV SJ14 41.464281 -87.470364
08/28/2016 5:30 am 9400 JOLIET ST SJ21 41.441165 -87.450616
08/27/2016 11:48 pm 8500 PATTERSON ST SJ19 41.464531 -87.481506
08/27/2016 7:03 pm 9700 WICKER AV SJ19 41.443089 -87.470050
08/27/2016 6:43 pm 11300 BLOCK OF WICKER SJ23
08/27/2016 6:34 pm 10630 WICKER AV; SHRINE OF CHRISTS PASSION SJ26 41.426185 -87.470075
08/27/2016 6:25 pm SPEEDWAY (8500 WICKER) SJ23
08/27/2016 6:17 pm 9500 WICKER SJ23
08/27/2016 6:04 pm 109TH AND HILLCREST SJ23
08/27/2016 5:56 pm 109TH AND HILLCREST SJ23
08/27/2016 5:50 pm ROSEWOOD AND WHITE OAK SJ23
08/27/2016 5:43 pm 9300 WHITE OAK SJ23
08/27/2016 5:34 pm 90TH AVE AND PATTERSON SJ23
08/27/2016 3:56 pm 10500 WICKER AV SJ27 41.428395 -87.470062
08/27/2016 3:20 pm W 93RD AV & WICKER AV SJ27 41.449967 -87.470171
08/27/2016 12:02 pm 10200 WICKER AV SJ14 41.435026 -87.470008
08/27/2016 11:51 am W 93RD AV & WICKER AV SJ27 41.449967 -87.470171
08/26/2016 10:58 pm PARK PL & W 101ST AV SJ26 41.437293 -87.438335
08/26/2016 4:00 pm W 90TH AV & RANDAL ST SJ343 41.455411 -87.497188
08/26/2016 3:01 pm WALL ST & WICKER AV SJ343 41.453043 -87.470213
08/26/2016 2:42 pm W 95TH AV & WICKER AV SJ27 41.446031 -87.470111
08/26/2016 2:12 pm W 93RD AV & WICKER AV SJ27 41.449967 -87.470171
08/26/2016 11:15 am PATTERSON ST & WALL ST SJ15 41.452823 -87.472087
08/26/2016 11:12 am SCHOOL ST & KEILMAN ST SJ1 41.447734 -87.472480
08/26/2016 11:09 am W 85TH AV & WICKER AV; SPEEDWAY SJ23 41.462715 -87.470350
08/26/2016 11:04 am 8200 WICKER AV SJ23 41.469318 -87.470392
08/26/2016 11:00 am 9500 WICKER AV SJ343 41.445991 -87.470111
08/26/2016 10:43 am 97/ KEILMAN SJ1 WW
08/26/2016 10:32 am 93RD / SHEFFIELD SJ23 VW
08/26/2016 9:59 am WICKER AV & WALL ST SJ343 41.453043 -87.470213
08/26/2016 9:52 am 8801 WICKER AV; KOLLING ELEMENTARY SJ15 41.458933 -87.470299
08/26/2016 9:35 am WICKER AV; WALGREENS SJ343 41.422054 -87.470096
08/26/2016 9:31 am 9200 WICKER AV SJ15 41.453592 -87.470222 WW
08/26/2016 9:20 am WICKER AV & WALL ST SJ1 41.453043 -87.470213 WW
08/26/2016 9:18 am WICKER AV & WALL ST SJ343 41.453043 -87.470213 WW
08/26/2016 9:12 am W 93RD AV & WICKER AV; AT GAS STATION SJ1 41.449967 -87.470171 CIT
08/26/2016 9:10 am WICKER AV & JOLIET ST SJ23 41.447742 -87.470138
08/26/2016 9:00 am WICKER AV & WALL ST SJ343 41.453043 -87.470213
08/26/2016 8:59 am 9500 WICKER AV SJ23 41.445991 -87.470111
08/26/2016 8:58 am WICKER AV & WALL ST; SB SJ15 41.453043 -87.470213
08/26/2016 8:47 am WICKER AV & SCHOOL ST SJ23 41.447742 -87.470138
08/26/2016 8:45 am W 109TH AV & WHITE OAK AV SJ343 41.421258 -87.489398 VW
08/26/2016 8:36 am 9200 WICKER AV SJ23 41.453592 -87.470222
08/26/2016 8:32 am 109th / MANOR SJ343 VW
08/26/2016 8:03 am 9500 WICKER AV SJ343 41.445991 -87.470111 WW
08/26/2016 7:41 am WALL ST & WICKER AV SJ343 41.453043 -87.470213
08/26/2016 7:31 am 9100 WICKER AV SJ343 41.454931 -87.470241 WW
08/26/2016 7:15 am W 85TH AV & WICKER AV SJ27 41.462715 -87.470350
08/26/2016 7:05 am W 95TH AV & WICKER AV SJ27 41.446031 -87.470111
08/25/2016 11:16 pm W 85TH AV & WICKER AV SJ24 41.462715 -87.470350
08/25/2016 10:54 pm W 109TH AV & CALUMET AV SJ24 41.421141 -87.508266
08/25/2016 6:34 pm 8915 W 93RD AV; CLARK MIDDLE SCHOOL SJ16 41.449796 -87.443725
08/25/2016 5:09 pm W 93RD AV & OLCOTT AV SJ24 41.449974 -87.480663
08/25/2016 7:18 am BINGO LAKE RD; OFF 41 SJ12
08/25/2016 7:07 am W 83RD PL & HERON LAKE RD SJ10 41.467357 -87.481887
08/25/2016 6:52 am OSAGE DR & W 83RD PL SJ10 41.468064 -87.482791
08/24/2016 10:57 pm 9500 WICKER AV SJ24 41.445991 -87.470111
08/24/2016 8:53 pm WICKER AV & WALL ST SJ24 41.453043 -87.470213
08/24/2016 7:31 pm W 85TH AV & PRIMROSE DR SJ16 41.464508 -87.487911
08/24/2016 7:16 pm W 105TH ST & WHITE OAK AV SJ24 41.429197 -87.489325
08/24/2016 7:13 pm W 85TH AV & MONFORT DR SJ16 41.464507 -87.486456
08/24/2016 7:04 pm PRIMROSE DR & W 85TH AV SJ16 41.464508 -87.487911
08/24/2016 2:46 pm W 101ST AV & SADDLE CREEK DR SJ18 41.435592 -87.499938
08/24/2016 2:23 pm 1200 KELLY SJ12
08/24/2016 2:18 pm W 83RD PL & HERON LAKE RD SJ10 41.467357 -87.481887
08/24/2016 11:22 am WHITE OAK AV & W 93RD AV SJ1 41.450009 -87.489482
08/24/2016 10:20 am W 85TH AV & WICKER AV SJ1 41.462715 -87.470350
08/24/2016 9:43 am W 109TH AV & PARRISH AV SJ18 41.421037 -87.450588
08/24/2016 9:38 am WICKER AV & W 80TH CT SJ1 41.473644 -87.470406
08/24/2016 9:36 am 8900 WICKER AV SJ15 41.457608 -87.470280
08/24/2016 9:20 am W 85TH AV & WICKER AV SJ15 41.462715 -87.470350
08/24/2016 9:19 am JOLIET ST & THIELEN ST SJ357 41.446138 -87.467390 WW
08/24/2016 9:16 am 8400 WICKER AV; LAKE CENTRAL HIGH SCHOOL SJ1 41.464281 -87.470364
08/24/2016 8:56 am 10200 WICKER AV SJ15 41.435026 -87.470008
08/24/2016 8:46 am 8700 WICKER AV SJ12 41.460285 -87.470319
08/24/2016 8:35 am 9500 HART SJ12
08/24/2016 8:29 am 9200 WICKER AV SJ15 41.453592 -87.470222
08/24/2016 8:18 am WICKER AV & JOLIET ST SJ1 41.447742 -87.470138
08/24/2016 7:02 am W 83RD PL & HERON LAKE RD SJ1 41.467357 -87.481887
08/24/2016 7:01 am 9800 HART ST SJ357 41.440828 -87.461035
08/24/2016 6:48 am HERON LAKE RD & KNICKERBOCKER ST SJ1 41.467547 -87.475903
08/24/2016 6:35 am W 93RD AV & WICKER AV SJ17 41.449967 -87.470171
08/23/2016 7:46 pm 8400 WICKER AV SJ19 41.464281 -87.470364
08/23/2016 7:26 pm 8500 WICKER AV SJ343 41.462715 -87.470350
08/23/2016 7:11 pm 8500 WICKER AV SJ343 41.462715 -87.470350
08/23/2016 7:07 pm W 101ST AV; W OF WHITE OAK SJ26 41.436227 -87.487298
08/23/2016 6:49 pm W 101ST AV & WHITE OAK AV SJ26 41.435563 -87.489287
08/23/2016 6:27 pm 9600 WICKER AV SJ26 41.443973 -87.470069
08/23/2016 5:55 pm 10300 WICKER AV SJ343 41.431350 -87.470039
08/23/2016 5:37 pm W 83RD PL & HERON LAKE RD SJ343 41.467357 -87.481887
08/23/2016 3:41 pm E SPRINGHILL DR & W 93RD AV SJ343 41.451293 -87.457447
08/23/2016 2:50 pm 14500 W 101ST AV SJ343 41.435633 -87.509569
08/23/2016 2:21 pm 9200 WICKER AV SJ343 41.453592 -87.470222
08/23/2016 2:05 pm WALL ST & US 41 SJ343
08/23/2016 12:47 pm KOLLING RD & 85TH SJ23
08/23/2016 12:32 pm SCHOOL ST & WICKER AV SJ23 41.447742 -87.470138
08/23/2016 12:08 pm W 101ST AV & CLINE AV SJ23 41.436724 -87.431153
08/23/2016 11:53 am 9500 WICKER AV SJ343 41.445991 -87.470111
08/23/2016 10:21 am 10800 WICKER AV SJ23 41.422959 -87.470092
08/23/2016 8:46 am 9200 WICKER AV SJ23 41.453592 -87.470222
08/23/2016 8:31 am W 93RD AV & COLUMBIA AV SJ23 41.450881 -87.500558
08/23/2016 12:29 am 9957 EARL DR; TRACTOR SUPPLY SJ365 41.438451 -87.468672
08/22/2016 10:50 pm JOLIET ST; EAST OF WICKER AVV SJ26 41.446940 -87.468764
08/22/2016 8:56 pm 9400 WICKER AV SJ19 41.447998 -87.470142
08/22/2016 8:21 pm W 101ST AV & CALUMET AV SJ19 41.435635 -87.508349
08/22/2016 3:39 pm W 87TH AV & PRIMROSE DR SJ23 41.460848 -87.487808
08/22/2016 8:22 am 9000 DEODOR ST SJ23 41.455370 -87.452856
08/22/2016 6:59 am 8300 HERON LAKE RD SJ21 41.467572 -87.481551
08/22/2016 6:38 am 9600 WICKER AV SJ27 41.443973 -87.470069
08/20/2016 10:18 pm 8400 WICKER AV SJ19 41.464281 -87.470364
08/20/2016 10:13 pm 8400 WICKER AV SJ19 41.464281 -87.470364
08/20/2016 10:01 pm 8700 WICKER AV SJ19 41.460285 -87.470319
08/20/2016 9:45 pm 8400 WICKER AV SJ19 41.464281 -87.470364
08/20/2016 9:34 pm 8400 WICKER AV SJ19 41.464281 -87.470364
08/20/2016 9:20 pm 10200 WHITE OAK AV SJ18 41.433370 -87.489295
08/20/2016 9:19 pm 9400 WICKER AV SJ19 41.447998 -87.470142
08/20/2016 9:04 pm 9400 WICKER AV SJ19 41.447998 -87.470142
08/20/2016 8:44 pm 9200 WICKER AV SJ19 41.453592 -87.470222
08/20/2016 7:41 pm 8400 WICKER AV SJ19 41.464281 -87.470364
08/20/2016 7:29 pm 8400 WICKER AV SJ19 41.464281 -87.470364
08/20/2016 6:03 pm WICKER AV & WALL ST SJ19 41.453043 -87.470213
08/20/2016 5:52 pm 8500 WICKER AV SJ19 41.462715 -87.470350
08/20/2016 5:42 pm 8900 WICKER AV SJ19 41.457608 -87.470280
08/19/2016 10:54 pm 109TH AND OLCOTT SJ23
08/19/2016 10:38 pm 101ST AND CALUMET SJ23
08/19/2016 7:55 pm 8500 WICKER AV SJ25 41.462715 -87.470350
08/19/2016 8:24 am 9210 PATTERSON ST; DRIVEWAY SJ16 41.452105 -87.471735
08/19/2016 8:15 am 10600 WHITE OAK AV SJ24 41.427178 -87.489314
08/19/2016 8:01 am W 85TH AV & PATTERSON ST SJ1 41.464506 -87.481488
08/19/2016 7:44 am W 85TH AV & WICKER AV SJ1 41.462715 -87.470350
08/18/2016 8:43 pm 93RD AV & CALUMET AV SJ23 41.450132 -87.507827
08/18/2016 2:50 pm 12050 81ST CT SJ26 41.469678 -87.481244
08/18/2016 2:25 pm 8580 WICKER AV; FAGEN MILLER FUNERAL HOME SJ12 41.461892 -87.470343
08/18/2016 2:24 pm W 83RD PL & OSAGE DR; N/O OSAGE SJ26 41.468064 -87.482791
08/18/2016 12:17 pm 8300 WICKER AV SJ21 41.466787 -87.470378
08/18/2016 7:10 am W 85TH AV & WICKER AV SJ21 41.462715 -87.470350
08/18/2016 6:54 am 9400 93RD AV SJ26
08/18/2016 6:44 am CLAREMONTE DR; S OF 93RD SJ26 41.444436 -87.450019
08/18/2016 2:10 am 10800 OLCOTT AV SJ23 41.423403 -87.481327
08/17/2016 11:41 pm WALL ST & WICKER AV SJ23 41.453043 -87.470213
08/17/2016 11:08 pm 9200 CLINE AV SJ19 41.451549 -87.431385
08/17/2016 2:24 pm WICKER AV & WALL ST SJ21 41.453043 -87.470213
08/17/2016 1:12 pm PRIMROSE DR & W 87TH AV SJ12 41.460848 -87.487808
08/17/2016 8:13 am W 95TH PL & W OAKRIDGE DR SJ26 41.446273 -87.477198
08/17/2016 7:43 am 9400 WICKER AV SJ1 41.447998 -87.470142
08/17/2016 7:10 am W 83RD PL & HERON LAKE RD SJ1 41.467357 -87.481887
08/17/2016 7:08 am W 85TH AV & FARMINGTON ST SJ21 41.463284 -87.467568
08/17/2016 7:01 am W 83RD PL & OSAGE DR SJ1 41.468064 -87.482791
08/17/2016 6:57 am 8300 WICKER AV SJ26 41.466787 -87.470378
08/17/2016 6:37 am 9300 WICKER AV SJ1 41.449967 -87.470171
08/17/2016 6:22 am WICKER AV & JOLIET ST SJ1 41.447742 -87.470138
08/16/2016 9:45 pm 9200 WICKER AV SJ365 41.453592 -87.470222 WW
08/15/2016 1:49 pm WICKER AV; #2400-2499,2500-2599,2600-2699 SJ25 41.553640 -87.434756
08/15/2016 12:45 pm KOEHLING ELEMENTARY;BUS BARN PARKING LOT SJ1
08/15/2016 12:42 pm WICKER AV & JOLIET ST SJ25 41.447742 -87.470138
08/15/2016 12:30 pm 8400 WICKER AV SJ19 41.464281 -87.470364
08/15/2016 12:27 pm 8200 WICKER AV SJ25 41.469318 -87.470392
08/15/2016 12:20 pm 8500 WICKER AV SJ25 41.462715 -87.470350
08/15/2016 12:17 pm WHI MERCURY SJ19
08/15/2016 12:13 pm PATTERSON ST & W 93RD AV SJ1 41.449971 -87.470688
08/15/2016 7:14 am 8200 WICKER AV SJ25 41.469318 -87.470392
08/14/2016 11:44 pm W 109TH AV & CALUMET AV SJ26 41.421141 -87.508266
08/14/2016 10:42 pm W 109TH AV; E OF MAPLE SJ26 41.421213 -87.495438
08/14/2016 8:39 pm 10200 WICKER AV SJ26 41.435026 -87.470008
08/14/2016 3:51 pm 9100 WICKER AV SJ21 41.454931 -87.470241
08/14/2016 11:55 am W 93RD AV & WICKER AV SJ21 41.449967 -87.470171
08/14/2016 11:38 am WICKER AV & WALL ST SJ21 41.453043 -87.470213
08/14/2016 11:22 am W 93RD AV & DEODOR ST SJ21 41.450808 -87.452756
08/14/2016 9:47 am W 93RD AV & COLUMBIA AV SJ23 41.450881 -87.500558
08/14/2016 9:11 am 101 CLINE AV E; WEST OF SADDLECREEK SJ23 41.634080 -87.431455
08/14/2016 8:51 am 9500 WICKER AV SJ21 41.445991 -87.470111
08/14/2016 8:21 am W 93RD AV & MALLARD COVE SJ23 41.449778 -87.436813
08/14/2016 7:43 am 9200 WICKER AV SJ21 41.453592 -87.470222
08/13/2016 11:41 pm 8496 WICKER AV; TACO BELL SJ14 41.462763 -87.470351
08/13/2016 10:59 pm W 93RD AV & NORTHCOTE AV SJ14 41.449966 -87.482130
08/13/2016 10:11 pm 14100 93RD PL SJ26
08/13/2016 8:30 pm 900 JOLIET ST SJ26 41.492525 -87.505927
08/13/2016 8:23 pm 101ST AV; W OF CALUMET SJ26
08/13/2016 7:24 pm WALL ST & WICKER AV SJ14 41.453043 -87.470213
08/13/2016 6:18 pm 93RD AV; 9100 SJ26 41.450131 -87.507993
08/13/2016 4:59 pm 101ST ST & OLCOTT AV SJ14 41.435896 -87.481069
08/13/2016 1:01 pm W 93RD AV; WEST OF CLINE AV SJ23 41.450129 -87.508672
08/13/2016 12:47 pm SR231 & PARK DR SJ23
08/13/2016 11:59 am W 95TH AV & WICKER AV SJ23 41.446031 -87.470111
08/13/2016 11:29 am JOLIET ST & PARRISH AV SJ21 41.441165 -87.450616
08/13/2016 9:48 am 231 & SCHNEIDER SJ23
08/12/2016 5:53 am 8200 WICKER AV SJ21 41.469318 -87.470392
08/11/2016 11:10 pm 8500 WICKER AV SJ19 41.462715 -87.470350
08/11/2016 10:54 pm 8200 WICKER AV SJ19 41.469318 -87.470392
08/11/2016 10:06 pm 8400 WICKER AV SJ19 41.464281 -87.470364
08/11/2016 9:25 pm W 109TH AV & SCHNEIDER PL SJ19 41.421141 -87.468343
08/11/2016 9:06 pm W 109TH AV & WHITE OAK AV SJ19 41.421258 -87.489398
08/11/2016 8:43 pm W 93RD AV & PATTERSON ST SJ19 41.449971 -87.470688
08/11/2016 7:59 pm WICKER AV & KELLY DR SJ19 41.462025 -87.470344
08/11/2016 7:20 pm 10200 WHITE OAK AV SJ19 41.433370 -87.489295
08/11/2016 6:56 pm W 105TH ST & PATNOE DR SJ19 41.429127 -87.487703
08/11/2016 6:37 pm W 109TH AV & SCHNEIDER PL SJ19 41.421141 -87.468343
08/11/2016 5:50 pm 8801 WICKER AV; KOLLING ELEMENTARY; WICKER SJ24 41.458933 -87.470299
08/11/2016 3:07 pm 3100 WICKER SJ16
08/11/2016 1:45 pm 9300 KEILMAN ST SJ12 41.449981 -87.472491 WW
08/11/2016 9:17 am W 93RD AV & W OAKRIDGE DR SJ12 41.449989 -87.478157 WW
08/10/2016 2:48 pm PRIMROSE DR & W 87TH AV SJ16 41.460848 -87.487808
08/10/2016 2:31 pm PRIMROSE DR & W 85TH AV SJ16 41.464508 -87.487911
08/09/2016 11:28 am 8600 W 93RD AV SJ19 41.449782 -87.438238
08/09/2016 8:12 am 8800 PATTERSON ST SJ19 41.459071 -87.478294
08/09/2016 6:34 am 9700 WICKER AV SJ23 41.443089 -87.470050
08/09/2016 6:15 am 8200 WICKER AV SJ19 41.469318 -87.470392
08/08/2016 10:24 pm 9400 WICKER AV SJ26 41.447998 -87.470142
08/08/2016 8:53 pm W 109TH AV; EAST OF OLCOTT SJ26 41.421213 -87.495438
08/08/2016 2:47 pm W 93RD AV & HILLTOP DR SJ23 41.450000 -87.487793
08/08/2016 10:26 am W109TH AV / ONTRIO SJ23
08/08/2016 10:14 am PATTERSON AV; W OF WALGREENS SJ23
08/06/2016 8:48 pm 109TH AND HURON SJ23
08/06/2016 8:36 pm 109TH AND FORESTDALE SJ23
08/06/2016 8:17 pm 109TH AND FORESTDALE SJ23
08/06/2016 8:11 pm 109TH AND FORESTDALE SJ23
08/06/2016 8:02 pm 109TH AND FORESTDALE SJ23
08/06/2016 7:40 pm 231 AND SCHNEIDER SJ23
08/06/2016 7:29 pm 11000 BLOCK OF WICKER SJ23
08/06/2016 7:20 pm 231 AND SCHNEIDER SJ23
08/06/2016 6:32 pm 109TH AND ONTARIO SJ23
08/06/2016 6:14 pm 9400 WICKER SJ23
08/06/2016 6:05 pm 9500 WICKER SJ23
08/06/2016 5:54 pm 10200 WICKER SJ23
08/06/2016 5:43 pm 9200 WICKER SJ23
08/05/2016 4:54 am 9600 BLAINE ST SJ26 41.444416 -87.426456
08/05/2016 12:20 am W 101ST AV & PARK PL SJ26 41.437293 -87.438335
08/04/2016 9:54 pm 9400 WICKER AV SJ14 41.447998 -87.470142
08/04/2016 9:14 pm 9400 WICKER AV SJ365 41.447998 -87.470142
08/04/2016 6:04 pm 106TH BLK OF CALUMET Ave SJ26
08/04/2016 4:25 pm PATTERSON ST & E OAKWOOD DR SJ19 41.459686 -87.478444
08/04/2016 12:21 pm 9700 WICKER AV SJ23 41.443089 -87.470050
08/04/2016 11:31 am 8900 WICKER AV SJ12 41.457608 -87.470280
08/04/2016 11:00 am 8400 WICKER AV SJ19 41.464281 -87.470364
08/04/2016 10:14 am W 105TH PL & WICKER AV SJ23 41.427299 -87.470069
08/04/2016 9:39 am W 101ST AV & PARK PL SJ12 41.437293 -87.438335
08/04/2016 6:52 am W 108TH AV & WHITE OAK SJ23
08/04/2016 6:36 am W 109TH AV & FORESTDALE ST SJ23 41.421168 -87.473684
08/04/2016 12:04 am 8300 WICKER AV SJ26 41.466787 -87.470378
08/03/2016 8:28 pm HOFFMAN & 85TH SJ26
08/02/2016 12:01 am 10400 W 93RD AV SJ25 41.449906 -87.463029
08/01/2016 11:35 pm 9400 WICKER AV SJ25 41.447998 -87.470142
08/01/2016 12:22 pm 9100 WICKER AV SJ24 41.454931 -87.470241
08/01/2016 8:58 am JOLIET ST & TULIP LN SJ12
08/01/2016 8:57 am W 93RD AV & PATTERSON ST SJ1 41.449971 -87.470688
08/01/2016 1:22 am 8100 WICKER AV SJ21 41.471886 -87.470393
08/01/2016 1:12 am 9700 WICKER AV SJ21 41.443089 -87.470050
07/31/2016 9:03 pm CALUMET AV South OF W 109TH AV SJ21
07/31/2016 8:23 pm 231 East OF WICKER SJ21
07/31/2016 1:20 pm 9200 SCHAFER DR SJ15 41.451935 -87.443222 CIT
07/31/2016 1:09 pm W 93RD AV & MARQUETTE ST SJ15 41.449792 -87.441074 VW
07/31/2016 10:39 am 9500 WICKER AV SJ26 41.445991 -87.470111
07/31/2016 10:05 am W 93RD AV & BELMONT AV SJ15 41.449965 -87.483809 WW
07/31/2016 9:31 am W 82ND LN & WICKER AV SJ15 41.469318 -87.470392 WW
07/31/2016 7:28 am 9500 WICKER AV SJ26 41.445991 -87.470111 WW
07/31/2016 7:09 am W 109TH AV & PARK PL SJ26 41.420989 -87.441287
07/31/2016 6:49 am 8575 WICKER AV SJ26 41.461959 -87.470344
07/31/2016 1:52 am 8700 WICKER AV SJ21 41.460285 -87.470319
07/31/2016 1:28 am 10000 NORTHCOTE CT SJ21 41.438296 -87.482846
07/31/2016 1:15 am 9600 WICKER AV SJ21 41.443973 -87.470069
07/31/2016 12:56 am CALUMET AV; JUST SOUTH OF W 109TH AV SJ21 41.356692 -87.508034
07/30/2016 9:15 pm HEATHER CT SJ4 41.463917 -87.475287
07/30/2016 7:36 pm WICKER AV & WALL ST SJ21 41.453043 -87.470213
07/30/2016 3:56 pm HART ST & JOLIET ST SJ26 41.442976 -87.461448 WW
07/30/2016 1:13 pm 9885 WICKER AV; TARGET SJ26 41.439647 -87.470007 CIT
07/30/2016 11:44 am HART ST & W 93RD AV SJ26 41.449891 -87.461531 WW
07/30/2016 10:27 am 9440 WOODLAND DR SJ26 41.448172 -87.486295 CIT
07/30/2016 2:03 am 8000 WICKER AV SJ21 41.472761 -87.470400
07/30/2016 12:57 am W 93RD AV & CLINE AV SJ21 41.449743 -87.431354
07/29/2016 10:57 pm 9200 WICKER AV SJ21 41.453592 -87.470222
07/29/2016 10:31 pm 11033 W 93RD AV SJ21 41.449958 -87.469145
07/29/2016 9:07 pm 9100 WICKER AV; BLOCK OF SJ21 41.454931 -87.470241
07/28/2016 8:19 pm 8500 WICKER SJ23
07/28/2016 8:12 pm WALL AND WICKER SJ23
07/28/2016 7:54 pm 101ST AVE AND WICKER SJ23
07/28/2016 7:38 pm 8600 WICKER SJ23
07/28/2016 7:29 pm 93RD AND PATTERSON SJ23
07/28/2016 7:18 pm JOLIET AND THIELEN SJ23
07/28/2016 5:18 pm 9500 WICKER SJ23
07/28/2016 2:28 pm 109TH AND FORESTDALE SJ23
07/28/2016 2:16 pm 11000 BLOCK OF WICKER SJ23
07/28/2016 2:09 pm 109TH AND HURON SJ23
07/28/2016 10:41 am 109TH AND OLCOTT SJ23
07/28/2016 10:34 am 109TH AND MANOR SJ23
07/28/2016 10:17 am 9500 BLOCK OF W. OAKRIDGE SJ23
07/28/2016 10:10 am 11400 BLOCK OF W. 93RD SJ23
07/26/2016 5:22 am W 95TH AV & WICKER AV SJ21 41.446031 -87.470111
07/25/2016 11:54 pm 9100 WICKER AV SJ10 41.454931 -87.470241
07/25/2016 3:05 pm 8600 WICKER AV SJ21 41.461624 -87.470339
07/25/2016 2:51 pm 8300 WICKER AV; SPEEDWAY SJ21 41.466787 -87.470378
07/25/2016 2:14 pm 8300 WICKER AV SJ21 41.466787 -87.470378
07/25/2016 10:25 am 10200 WICKER AV SJ26 41.435026 -87.470008 WW
07/25/2016 9:59 am 9500 WICKER AV SJ26 41.445991 -87.470111 WW
07/25/2016 9:32 am WICKER / WALL ST SJ23
07/25/2016 3:07 am 10000 WICKER AV SJ17 41.437165 -87.469986
07/23/2016 9:59 pm 9300 WICKER AV SJ365 41.449967 -87.470171
07/23/2016 9:44 pm 8600 WICKER AV; NB SJ365 41.461624 -87.470339
07/23/2016 12:42 am W 89TH PL & LEE PL; W OF LEE PL SJ18
07/22/2016 6:50 pm 109th and Forestdale SJ23
07/22/2016 6:35 pm 109TH AND FORESTDALE SJ23
07/22/2016 6:21 pm 231 AND SCHNEIDER SJ23
07/22/2016 5:52 pm 8700 WICKER SJ23
07/22/2016 5:39 pm 8400 WICKER SJ23
07/22/2016 5:28 pm 101ST AVE AND WHITE OAK SJ23
07/22/2016 5:14 pm 109TH AND MANOR SJ23
07/22/2016 5:00 pm 109TH AND MANOR SJ23
07/22/2016 4:24 pm 8500 WICKER SJ23
07/22/2016 3:40 pm 8500 BLOCK OF WICKER SJ23
07/22/2016 3:28 pm KELLY DR. AND WICKER SJ23
07/21/2016 8:39 pm W 109TH AV & PARRISH AV SJ26 41.421037 -87.450588
07/21/2016 4:24 pm WHITE OAK AV & ROSEWOOD SJ24
07/21/2016 4:15 pm 101ST AV & ROSEWOOD SJ24
07/21/2016 4:11 pm OLCOTT AV & W 93RD AV SJ343 41.449969 -87.481228
07/21/2016 3:50 pm W 101ST AV & CALUMET AV SJ24 41.435635 -87.508349
07/21/2016 3:46 pm 8900 RANDALL DR SJ343
07/21/2016 3:36 pm 10200 WHITE OAK AV SJ24 41.433370 -87.489295
07/21/2016 3:28 pm 8900 COLUMBIA AV SJ343 41.458148 -87.498806
07/21/2016 3:28 pm 10600 WHITE OAK AV SJ24 41.427178 -87.489314
07/21/2016 3:11 pm 10900 CALUMET AV SJ24 41.417529 -87.508253
07/21/2016 2:48 pm W 101ST AV & WHITE OAK AV SJ24 41.435563 -87.489287
07/21/2016 2:38 pm 9700 HART ST SJ343 41.442976 -87.461448
07/21/2016 2:37 pm 93RD AV; PARK SJ24 41.450131 -87.507993
07/21/2016 1:48 pm W 93RD AV & W OAKRIDGE DR SJ24 41.449989 -87.478157
07/21/2016 12:06 pm 9600 WICKER AV SJ24 41.443973 -87.470069
07/21/2016 11:58 am 11033 W 93RD AV; SJPD SJ343 41.449958 -87.469145
07/21/2016 11:31 am 9100 WICKER AV; JJ'S SJ21 41.454931 -87.470241
07/21/2016 12:20 am 8900 WICKER AV SJ16 41.457608 -87.470280
07/20/2016 10:32 pm 8400 WICKER AV SJ19 41.464281 -87.470364
07/20/2016 7:30 pm THREE SPRINGS / JOLIET ST (SOUTH OF) SJ26
07/20/2016 7:12 pm 8575 WICKER AV SJ26 41.461959 -87.470344
07/20/2016 4:49 pm W 93RD AV & W OAKRIDGE DR; PRAIRIE WEST PARK SJ24 41.449989 -87.478157
07/20/2016 4:03 pm 8500 WICKER AV SJ24 41.462715 -87.470350
07/20/2016 3:47 pm WHITE OAK / ROSEWOOD DR SJ24
07/20/2016 3:20 pm W 101ST AV & CALUMET AV SJ24 41.435635 -87.508349
07/20/2016 3:09 pm 106 / WHITE OAK SJ24
07/20/2016 2:56 pm SJ24
07/20/2016 2:41 pm 10600 WHITE OAK AV SJ24 41.427178 -87.489314
07/20/2016 1:45 pm 231 / wicker SJ24
07/20/2016 12:45 pm 9200 WICKER AV SJ21 41.453592 -87.470222
07/20/2016 12:40 pm 9400 WHITE OAK SJ24
07/20/2016 12:30 pm 10600 WHITE OAK AV SJ24 41.427178 -87.489314
07/20/2016 11:51 am 8200 WICKER AV SJ24 41.469318 -87.470392
07/20/2016 11:37 am W 101ST AV & CALUMET AV SJ24 41.435635 -87.508349
07/20/2016 11:23 am 101ST Ave / WHITE OAK SJ24
07/20/2016 6:50 am 8300 WICKER AV SJ21 41.466787 -87.470378
07/20/2016 12:46 am W 93RD AV & WICKER AV SJ24 41.449967 -87.470171
07/20/2016 12:25 am 9200 WICKER AV SJ18 41.453592 -87.470222
07/19/2016 11:32 pm 93RD AV & CALUMET AV SJ24 41.450132 -87.507827
07/19/2016 12:16 pm W 93RD AV & WICKER AV SJ16 41.449967 -87.470171
07/19/2016 10:52 am W 93RD AV & KEILMAN ST SJ16 41.449981 -87.472491 WW
07/19/2016 10:49 am 800 BLK TYLER Ave SJ61
07/19/2016 10:37 am 9200 WICKER AV SJ16 41.453592 -87.470222 WW
07/17/2016 10:41 pm W 95TH AV & KEILMAN ST SJ26 41.446006 -87.472470
07/17/2016 8:06 pm 9400 WHITE OAK AV SJ26 41.448199 -87.489455
07/17/2016 7:07 pm 11700 W 93RD AV; PRAIRIE WEST PARK SJ26 41.449987 -87.476751
07/17/2016 6:05 pm 9623 WICKER AV; RASCALS SJ26 41.443768 -87.470065 VW
07/17/2016 5:38 pm 10100 WICKER AV SJ26 41.436091 -87.469997 CIT
07/17/2016 4:38 pm W 101ST AV & WICKER AV SJ19 41.437165 -87.469986
07/17/2016 4:20 pm W 101ST AV & WICKER AV SJ19 41.437165 -87.469986
07/17/2016 1:29 pm 10400 W 93RD AV; VFW POST SJ19 41.449906 -87.463029
07/17/2016 7:22 am 10500 WICKER AV SJ19 41.428395 -87.470062
07/17/2016 6:43 am 8400 WICKER AV SJ19 41.464281 -87.470364
07/17/2016 5:47 am 9200 WICKER AV SJ21 41.453592 -87.470222
07/17/2016 5:39 am 9300 WICKER AV SJ21 41.449967 -87.470171
07/17/2016 12:15 am W 93RD AV & DEODOR ST SJ26 41.450808 -87.452756
07/16/2016 8:00 pm W 103RD CT & OLCOTT AV SJ26 41.431781 -87.481105
07/16/2016 7:25 pm 8700 PATTERSON ST SJ4 41.460732 -87.478920
07/16/2016 2:33 pm W 93RD AV & WICKER AV SJ1 41.449967 -87.470171 VW
07/16/2016 8:16 am PATTERSON AV; WALGREENS SJ19 41.470541 -87.484982
07/16/2016 7:20 am WALL ST & WICKER AV SJ21 41.453043 -87.470213
07/16/2016 7:05 am 8600 WICKER AV SJ21 41.461624 -87.470339
07/16/2016 6:26 am 8200 WICKER AV SJ19 41.469318 -87.470392
07/16/2016 6:09 am 8400 WICKER AV SJ19 41.464281 -87.470364
07/15/2016 9:29 pm W 97TH LN & NORTHCOTE AV SJ26 41.442530 -87.481272
07/15/2016 5:21 pm W 93RD AV & DEODOR ST SJ19 41.450808 -87.452756 CIT
07/15/2016 11:52 am 94TH & WICKER SJ21
07/15/2016 6:30 am JOLIET ST & WICKER AV SJ21 41.447742 -87.470138
07/14/2016 4:26 am WALL ST & WICKER AV SJ17 41.453043 -87.470213
07/12/2016 11:37 pm SCARLETT OAK SJ4 41.423051 -87.446364
07/12/2016 11:18 pm 8300 CLINE AV; CHAPEL LAWN SJ23 41.467132 -87.431685
07/12/2016 9:31 pm 9500 WICKER AV SJ23 41.445991 -87.470111
07/12/2016 9:11 pm W 109TH AV & SCHNEIDER PL SJ23 41.421141 -87.468343
07/12/2016 8:57 pm 10800 WICKER AV SJ23 41.422959 -87.470092
07/11/2016 9:21 pm 8200 WICKER AV SJ23 41.469318 -87.470392
07/11/2016 3:24 pm W 85TH AV & PATTERSON ST SJ21 41.464506 -87.481488
07/10/2016 9:41 pm W 93RD AV & HACK ST SJ4 41.449925 -87.465068
07/10/2016 7:43 pm 7800 W 93RD AV SJ4 41.449731 -87.428957
07/10/2016 5:10 pm 8400 WICKER AV; SPEEDWAY SJ24 41.464281 -87.470364 WW
07/10/2016 11:21 am 9825 WICKER SJ23
07/10/2016 11:10 am 9200 WICKER AV SJ18 41.453592 -87.470222 VW
07/10/2016 11:09 am 9200 WICKER SJ23
07/10/2016 10:58 am 8200 WICKER SJ23
07/10/2016 10:48 am 8100 WICKER SJ23
07/10/2016 10:29 am 9400 WICKER SJ23
07/10/2016 10:19 am 9400 WICKER SJ23
07/10/2016 10:05 am 10200 WICKER AV SJ23 41.435026 -87.470008
07/10/2016 9:00 am 9600 WICKER SJ23
07/10/2016 8:47 am 93RD AVE AND PATTERSON SJ23
07/10/2016 8:28 am 8400 WICKER SJ23
07/10/2016 8:20 am 8400 WICKER SJ23
07/10/2016 7:41 am 11600 CLINE AV SJ23 41.408191 -87.431183
07/09/2016 10:55 pm 7967 WICKER AV SJ24 41.473053 -87.470402
07/09/2016 12:29 pm W 93RD AV & RENAISSANCE DR SJ19 41.449797 -87.446679
07/09/2016 12:20 pm W 93RD AV & SCHAFER DR SJ19 41.449796 -87.442718
07/09/2016 11:53 am W 95TH PL & CLAREMONT DR SJ19 41.445675 -87.448935
07/09/2016 11:35 am 9400 CLARMONTE DR SJ19 41.448153 -87.449027
07/09/2016 10:53 am 9500 WICKER AV SJ19 41.445991 -87.470111
07/09/2016 10:39 am 9200 WICKER AV SJ19 41.453592 -87.470222
07/09/2016 10:09 am W 97TH AV & WICKER AV SJ19 41.441590 -87.470028
07/09/2016 9:13 am 9400 WICKER AV SJ19 41.447998 -87.470142
07/09/2016 9:03 am 9200 WICKER AV SJ19 41.453592 -87.470222
07/09/2016 8:39 am 10800 WICKER AV SJ19 41.422959 -87.470092
07/08/2016 11:23 pm 8600 WICKER AV; NB SJ365 41.461624 -87.470339
07/08/2016 11:07 pm 8600 WICKER AV; NB SJ365 41.461624 -87.470339
07/08/2016 8:01 pm 8400 WICKER AV SJ19 41.464281 -87.470364
07/08/2016 7:44 pm 8400 WICKER AV SJ19 41.464281 -87.470364
07/08/2016 7:35 pm 8500 WICKER AV SJ19 41.462715 -87.470350
07/08/2016 6:53 pm 8900 W 93RD AV SJ19 41.449796 -87.442718
07/08/2016 6:43 pm 8900 W 93RD AV SJ19 41.449796 -87.442718
07/08/2016 6:26 pm 8900 W 93RD AV SJ19 41.449796 -87.442718
07/08/2016 6:01 pm 8700 WICKER AV SJ19 41.460285 -87.470319
07/08/2016 5:38 pm W 101ST AV & WELLINGTON CT E SJ19 41.435574 -87.493895
07/08/2016 5:30 pm W 101ST AV & WHITE OAK AV SJ19 41.435563 -87.489287
07/08/2016 4:50 pm 11600 CLINE AV SJ19
07/08/2016 4:30 pm 11500 CLINE AV SJ19 41.410030 -87.431181
07/08/2016 4:10 pm 10900 CLINE AV SJ19 41.420910 -87.431171
07/08/2016 3:58 pm 231 AND SCHNEIDER SJ19
07/08/2016 2:21 am 8200 WICKER AV SJ21 41.469318 -87.470392
07/07/2016 11:51 pm 8900 WICKER AV SJ21 41.457608 -87.470280
07/07/2016 10:53 pm W 85TH AV & ALEXANDER ST SJ343 41.464367 -87.465541
07/07/2016 8:11 pm 109TH AND OLCOTT SJ23
07/07/2016 8:06 pm 8300 WICKER AV SJ343 41.466787 -87.470378
07/07/2016 7:59 pm 231 AND SCHNEIDER SJ23
07/07/2016 7:52 pm 8300 WICKER AV SJ343 41.466787 -87.470378
07/07/2016 7:45 pm 9700 WICKER SJ23
07/07/2016 7:38 pm 9300 WICKER AV SJ343 41.449967 -87.470171
07/07/2016 7:28 pm 90TH AVE JUST WEST OF PATTERSON SJ23
07/07/2016 7:17 pm WALL AND WICKER SJ23
07/07/2016 6:43 pm 9200 PATTERSON SJ23
07/07/2016 6:27 pm 9200 WICKER SJ23
07/07/2016 5:58 pm 7800 WICKER SJ23
07/07/2016 5:36 pm 9700 WICKER SJ23
07/07/2016 5:15 pm 85th AVE AND MARQUETTE SJ23
07/07/2016 5:10 pm 10900 WICKER AV SJ343 41.421149 -87.470100 WW
07/07/2016 4:41 pm 9300 CLARMONTE DR SJ19 41.449796 -87.449160
07/07/2016 4:39 pm 8200 WICKER AV SJ343 41.469318 -87.470392 WW
07/07/2016 1:28 pm 8400 WICKER AV SJ17 41.464281 -87.470364
07/07/2016 1:15 pm 8400 WICKER AV SJ17 41.464281 -87.470364 CIT
07/07/2016 12:55 pm 8600 WICKER AV; ST JOHN ANIMAL CLINIC SJ17 41.461624 -87.470339 CIT
07/07/2016 12:47 pm JOLIET ST & WICKER AV SJ17 41.447742 -87.470138 VW
07/07/2016 12:26 pm 8400 WICKER AV; SPEEDWAY SJ17 41.464281 -87.470364 CIT
07/07/2016 12:11 pm 9200 WICKER AV SJ17 41.453592 -87.470222 CIT
07/07/2016 11:59 am 9400 WICKER AV SJ17 41.447998 -87.470142 WW
07/07/2016 11:43 am 9161 WAVERLY DR SJ17 CIT
07/07/2016 11:28 am BRAMBLEWOOD DR & 93RD AV SJ17 41.450151 -87.505367 CIT
07/07/2016 11:04 am 9400 WHITE OAK AV SJ17 41.448199 -87.489455 CIT
07/07/2016 10:50 am ROSEWOOD & WHITE OAK SJ17 CIT
07/07/2016 10:27 am W 109TH AV & FORESTDALE ST SJ23 41.421168 -87.473684
07/07/2016 9:38 am 9400 JOLIET ST SJ23 41.441165 -87.450616
07/07/2016 9:17 am WALL ST & WICKER AV SJ19 41.453043 -87.470213
07/07/2016 7:20 am 10800 WICKER AV SJ23 41.422959 -87.470092
07/07/2016 7:00 am W 109TH AV & SCHNEIDER PL SJ23 41.421141 -87.468343
07/07/2016 5:53 am 9400 WICKER AV SJ19 41.447998 -87.470142
07/06/2016 4:09 pm 9100 WICKER AV SJ19 41.454931 -87.470241
07/06/2016 2:15 pm W 93RD AV & SCHAFER DR SJ19 41.449796 -87.442718
07/06/2016 10:46 am WICKER AV & KELLY DR SJ23 41.462025 -87.470344
07/05/2016 7:23 pm 7600 WICKER SJ23
07/05/2016 7:12 pm VENTURA AND WICKER SJ23
07/05/2016 6:38 pm 10700 WICKER SJ23
07/05/2016 6:23 pm 9700 WICKER SJ23
07/05/2016 6:15 pm 9285 WICKER SJ23
07/05/2016 5:58 pm 9400 BLOCK OF JOLIET SJ23
07/05/2016 5:46 pm 8700 WICKER SJ23
07/05/2016 5:40 pm 8900 WICKER SJ23
07/05/2016 5:21 pm 8600 WICKER SJ23
07/05/2016 5:05 pm 8600 WICKER SJ23
07/05/2016 4:43 pm 8700 WICKER SJ23
07/05/2016 4:30 pm 8500 WICKER SJ23
07/05/2016 12:34 pm W 92ND LN & MAPLE CT SJ24 41.451406 -87.505140
07/05/2016 10:42 am W 109TH AV & PARRISH AV; E OF SJ18 41.421037 -87.450588
07/04/2016 2:58 pm 9600 WICKER AV; SB LANES SJ369 41.443973 -87.470069
07/03/2016 5:21 pm 109TH AV; CEDAR CREEK GOLF SJ19
07/03/2016 2:41 pm 8400 WICKER AV SJ26 41.464281 -87.470364
07/03/2016 11:39 am 9100 WICKER AV SJ26 41.454931 -87.470241
07/03/2016 11:12 am 10808 WICKER AV; DICKS RESTRAUANT SJ26 41.422813 -87.470092
07/03/2016 6:38 am 9600 WICKER SJ26
07/03/2016 6:24 am 9400 WICKER AV SJ26 41.447998 -87.470142
07/03/2016 5:36 am 8400 WICKER AV SJ26 41.464281 -87.470364
07/03/2016 4:38 am 9500 WICKER AV SJ14 41.445991 -87.470111
07/02/2016 9:10 pm WALL ST & WICKER AV SJ19 41.453043 -87.470213
07/02/2016 5:19 pm 9600 OLCOTT AV SJ14 41.444100 -87.478864
07/02/2016 7:27 am JOLIET ST & WICKER AV SJ26 41.447742 -87.470138
07/02/2016 7:06 am 8575 WICKER AV; SPEEDWAY SJ26 41.461959 -87.470344
07/02/2016 6:38 am W 109TH AV & OLCOTT AV SJ23 41.421214 -87.481530
07/02/2016 6:24 am 8600 WICKER AV SJ26 41.461624 -87.470339
07/01/2016 8:31 pm 9200 WICKER SJ23
07/01/2016 8:17 pm WICKER AND JOLIET SJ23
07/01/2016 8:08 pm 8900 WICKER SJ23
07/01/2016 7:54 pm WALL ST AND WICKER SJ23
07/01/2016 7:42 pm 9700 WICKER SJ23
07/01/2016 2:57 pm JOLIET ST SJ23 41.446940 -87.468764
07/01/2016 11:11 am 9200 WICKER AV SJ26 41.453592 -87.470222
07/01/2016 10:54 am E OAKWOOD DR & PATTERSON ST SJ1 41.459686 -87.478444 VW
07/01/2016 10:32 am 101ST East OF PARK PL SJ26
07/01/2016 10:07 am WHITE OAK AND ROSEWOOD SJ1
07/01/2016 9:58 am 109TH AND FILLCREST SJ26
07/01/2016 9:43 am W 93RD AV & WICKER AV SJ1 41.449967 -87.470171
07/01/2016 8:58 am W 97TH LN & PHEASANT LN SJ26 41.441077 -87.471281
07/01/2016 8:46 am 9700 KEILMAN ST SJ26 41.442845 -87.472427
07/01/2016 7:16 am 9500 E OAKRIDGE DR SJ26 41.446239 -87.474217
06/30/2016 10:45 pm 11033 W 93RD AVE SJ19
06/30/2016 10:31 pm 9400 WICKER AVE SJ19
06/30/2016 10:18 pm 9200 WICKER AVE SJ19
06/30/2016 10:03 pm 9400 WICKER AVE SJ19
06/30/2016 9:48 pm 8400 WICKER AVE SJ19
06/30/2016 9:32 pm 8700 WICKER AVE SJ19
06/30/2016 9:11 pm 8400 WICKER AVE SJ19
06/30/2016 9:00 pm 8400 WICKER AVE SJ19
06/30/2016 8:21 pm W 109TH AV & SCHNEIDER PL SJ19 41.421141 -87.468343
06/30/2016 8:05 pm 109TH & SCHNEIDER PL SJ19
06/30/2016 7:57 pm W 109TH AV & SCHNEIDER PL SJ19 41.421141 -87.468343
06/30/2016 7:38 pm 10800 WICKER AV SJ19 41.422959 -87.470092
06/30/2016 7:24 pm W 109TH AV & CLINE AV SJ16 41.420910 -87.431171
06/30/2016 7:08 pm W 109TH AV //SCHNEIDER PL SJ19
06/30/2016 6:31 pm 8400 WICKER AV SJ19 41.464281 -87.470364
06/30/2016 11:43 am 9400 JOLIET ST SJ14 41.441165 -87.450616
06/29/2016 4:42 pm 8500 WICKER AV; NB LANES SJ15 41.462715 -87.470350
06/28/2016 5:59 pm W 109TH AV & WICKER AV SJ4 41.421149 -87.470100
06/28/2016 12:06 pm 9100 WICKER AV SJ26 41.454931 -87.470241
06/28/2016 11:35 am MIMOSA ST & GOLDEN GROVE AV SJ26 41.428029 -87.502478
06/28/2016 11:17 am BIRCHBROOK DR & RIVER BIRCH CT SJ26 41.431064 -87.499588
06/27/2016 10:40 pm 10483 W 109TH AV; CEDAR CREEK GOLF SJ23 41.421088 -87.459995
06/27/2016 10:24 pm 7900 WICKER AV SJ23 41.473644 -87.470406
06/27/2016 8:34 pm 8200 WICKER AV SJ23 41.469318 -87.470392
06/27/2016 5:55 pm 10955 W 93RD AV SJ23 41.449954 -87.468663
06/27/2016 9:39 am WICKER AV; TARGET SJ26 41.422054 -87.470096 CIT
06/27/2016 8:21 am 10500 WICKER AV SJ26 41.428395 -87.470062
06/26/2016 11:26 pm 9500 WICKER AV SJ24 41.445991 -87.470111
06/26/2016 3:04 pm 9200 COLUMBIA AV SJ14 41.452024 -87.500465 WW
06/26/2016 2:29 pm W 89TH PL & COLUMBIA AV SJ16 41.456680 -87.498822
06/26/2016 2:19 pm W 90TH AV & COLUMBIA AV SJ16 41.455414 -87.498780
06/26/2016 1:04 pm 9200 WICKER AV SJ14 41.453592 -87.470222 VW
06/26/2016 12:54 am 10600 WICKER AV SJ24 41.427299 -87.470069
06/25/2016 4:06 pm 8400 WICKER AV SJ343 41.464281 -87.470364
06/25/2016 3:55 pm 9400 WICKER AV SJ343 41.447998 -87.470142 WW
06/24/2016 11:45 pm W 93RD AV & WHITE OAK AV SJ18 41.450009 -87.489482
06/24/2016 10:00 pm 8200 WICKER AV SJ24 41.469318 -87.470392
06/24/2016 2:13 pm VENTURA DR & WICKER AV SJ343 41.464281 -87.470364 WW
06/24/2016 12:08 pm 10900 WICKER AV SJ343 41.421149 -87.470100 VW
06/24/2016 12:00 pm ONTARIO ST & W 109TH AV SJ343 41.421154 -87.471273 VW
06/24/2016 12:51 am 8500 WICKER AV SJ19 41.462715 -87.470350
06/24/2016 12:31 am 8300 WICKER AV SJ13 41.466787 -87.470378
06/23/2016 11:41 pm 8400 WICKER AV SJ19 41.464281 -87.470364
06/23/2016 11:02 pm 10900 WICKER AV SJ19 41.421149 -87.470100
06/23/2016 10:41 pm ROSEWOOD & WHITE OAK SJ19
06/23/2016 9:54 pm 8500 WICKER AV SJ19 41.462715 -87.470350
06/23/2016 9:28 pm 11400 W 93RD AV SJ19 41.449981 -87.472491
06/23/2016 9:02 pm 231 & SCHNEIDER PL SJ19
06/23/2016 8:43 pm 10900 WICKER AV SJ19 41.421149 -87.470100
06/23/2016 8:32 pm W 109TH AVE&ONTARIO SJ19
06/23/2016 8:14 pm 231 & SCHNEIDER PL SJ19
06/23/2016 6:52 pm W 101ST AV & WHITE OAK AV SJ13 41.435563 -87.489287
06/23/2016 1:39 pm W 82ND LN & WICKER AV SJ21 41.469318 -87.470392
06/23/2016 9:41 am W 95TH AV & WICKER AV SJ21 41.446031 -87.470111
06/23/2016 8:15 am 97TH & COMMON SJ26
06/23/2016 12:55 am 9600 WICKER AV SJ14 41.443973 -87.470069
06/23/2016 12:46 am WICKER AV & KELLY DR SJ14 41.462025 -87.470344
06/22/2016 4:36 pm 13200 W 109TH AV SJ343 41.422939 -87.500622
06/22/2016 3:18 pm SCHILLTON DR & W 93RD AV SJ343 41.450605 -87.496506
06/22/2016 3:02 pm 9000 COLUMBIA AV SJ343 41.456680 -87.498822
06/22/2016 2:05 pm 8400 WICKER AV SJ21 41.464281 -87.470364
06/22/2016 1:52 pm W 109TH / WHITE OAK SJ343
06/22/2016 1:34 pm W 109TH AV & HILLCREST LN SJ343 41.421205 -87.496638
06/22/2016 1:27 pm 9000 WICKER AV SJ26 41.456270 -87.470261
06/22/2016 1:18 pm wicker/ w 109th SJ343
06/22/2016 1:06 pm 10900 WICKER AV SJ343 41.421149 -87.470100
06/22/2016 11:44 am W 101ST / NONDORF SJ343
06/22/2016 11:06 am 10900 WHITE OAK SJ343
06/22/2016 10:53 am W 95TH AV & WICKER AV SJ21 41.446031 -87.470111
06/22/2016 6:58 am WICKER AV & WALL ST XSJ11 41.453043 -87.470213
06/22/2016 6:25 am WICKER AV & SCHOOL ST SJ21 41.447742 -87.470138
06/21/2016 6:56 am 8800 WICKER AV SJ25 41.458947 -87.470300
06/20/2016 7:50 pm 8400 WICKER AV; SPEEDWAY LOT SJ17 41.464281 -87.470364
06/20/2016 7:19 pm 11700 W 93RD AV; PRAIRIE WEST PARK SJ16 41.449987 -87.476751
06/20/2016 7:09 pm PRAIRE West PARK SJ16
06/19/2016 11:39 pm 9700 WICKER AV SJ19 41.443089 -87.470050
06/19/2016 6:46 pm 9600 WICKER AV SJ19 41.443973 -87.470069
06/19/2016 6:14 pm 8500 WICKER AV SJ19 41.462715 -87.470350
06/19/2016 4:07 pm 11700 W 96TH AV SJ26 41.443977 -87.476187 WW
06/19/2016 9:01 am SJ21
06/19/2016 2:25 am W 93RD AV & CIVIC DR SJ13 41.449947 -87.467647
06/19/2016 2:08 am 93RD AV & CALUMET AV SJ19 41.450132 -87.507827
06/19/2016 12:19 am 8400 WICKER AV SJ19 41.464281 -87.470364
06/18/2016 10:00 pm 9700 WICKER AV SJ19 41.443089 -87.470050
06/18/2016 9:33 pm 9500 WICKER AV SJ4 41.445991 -87.470111
06/18/2016 8:45 pm 8400 WICKER AV SJ19 41.464281 -87.470364
06/18/2016 8:29 pm 9400 WICKER AV SJ19 41.447998 -87.470142
06/18/2016 8:12 pm 9400 WICKER AV SJ19 41.447998 -87.470142
06/18/2016 7:24 pm 9100 WICKER AV; ST JOHN MALL SJ19 41.454931 -87.470241
06/18/2016 1:24 pm 109TH AV / PARRISH; E SJ26
06/18/2016 11:29 am W 93RD AV & HILLTOP DR SJ21 41.450000 -87.487793
06/18/2016 11:13 am W 97TH LN & E OAKRIDGE DR; W OF THERE SJ26 41.441195 -87.473430 WW
06/18/2016 2:04 am 11700 W 93RD AV SJ19 41.449987 -87.476751
06/18/2016 1:43 am 8100 WICKER AV SJ19 41.471886 -87.470393
06/17/2016 11:30 pm ROSEWOOD DR S OF WHITE OAK SJ19
06/17/2016 11:07 pm 10800 WICKER AV SJ19 41.422959 -87.470092
06/17/2016 10:54 pm 9700 WICKER AV SJ19 41.443089 -87.470050
06/17/2016 10:37 pm 9400 WICKER AV SJ19 41.447998 -87.470142
06/17/2016 9:11 pm 10400 W 93RD AV SJ19 41.449906 -87.463029
06/17/2016 8:03 pm 11033 W 93RD AVE SJ23
06/17/2016 7:47 pm 9700 CLARMONTE DR SJ13 41.442670 -87.451066
06/17/2016 7:19 pm 9600 WICKER SJ23
06/17/2016 7:03 pm 11033 W 93RD AVE SJ23
06/17/2016 6:46 pm WALL AND WICKER SJ23
06/17/2016 6:22 pm 8600 WICKER SJ23
06/17/2016 6:09 pm 9500 WICKER SJ23
06/17/2016 5:59 pm 9200 WICKER SJ23
06/17/2016 5:58 pm HEDGEWOOD AND BULL RUN SJ13
06/17/2016 5:35 pm 9200 WICKER AV SJ23 41.453592 -87.470222
06/17/2016 9:00 am 8300 WICKER AV SJ26 41.466787 -87.470378 WW
06/17/2016 7:38 am 9200 WICKER AV SJ23 41.453592 -87.470222
06/16/2016 10:51 pm W 85TH AV & PATTERSON ST SJ25 41.464506 -87.481488
06/16/2016 10:38 pm FORREST DR & PATTERSON ST SJ25 41.458455 -87.478144
06/16/2016 8:49 pm 8400 WICKER SJ23
06/16/2016 8:32 pm WALL AND WICKER SJ23
06/16/2016 8:13 pm 9200 WICKER SJ23
06/16/2016 7:42 pm 9200 WICKER SJ23
06/16/2016 7:36 pm JOLIET AND WICKER SJ23
06/16/2016 7:16 pm 9100 WICKER SJ23
06/16/2016 7:07 pm 9600 WICKER SJ23
06/16/2016 6:55 pm 8600 WICKER SJ23
06/16/2016 6:28 pm 9300 WICKER SJ23
06/16/2016 6:13 pm 9200 WICKER SJ23
06/16/2016 6:01 pm 8500 WICKER SJ23
06/16/2016 5:42 pm 9200 WICKER SJ23
06/16/2016 5:18 pm 9500 WICKER SJ23
06/16/2016 11:49 am W 93RD AV & WHITE OAK AV SJ16 41.450009 -87.489482
06/16/2016 10:38 am 93RD AND JOLIET ST SJ16
06/16/2016 10:20 am W 109TH AV & CALUMET AV SJ16
06/15/2016 1:36 pm BLU VENTURA VAN SJ343
06/15/2016 11:15 am WHI LEXUS SJ16
06/15/2016 11:05 am 9400 WHITE OAK SJ16
06/15/2016 10:22 am 231 & WICKER AV SJ16
06/15/2016 9:55 am 8300 WICKER AV; SPEEDWAY SJ343 41.466787 -87.470378
06/15/2016 8:25 am CEDAR CREEK GOLF COURSE SJ16
06/14/2016 6:25 pm SJ13
06/14/2016 5:58 pm W 101ST AV & BLAINE ST SJ13 41.436088 -87.426323
06/14/2016 5:23 pm 9900 WISTERIA LN SJ26 41.438436 -87.452132
06/14/2016 4:30 pm 9600 WICKER AV SJ19 41.443973 -87.470069
06/14/2016 4:04 pm W 102ND AV & WHITE OAK AV SJ19 41.433370 -87.489295
06/14/2016 3:41 pm W 93RD AV & MONIX DR SJ19 41.450028 -87.491955
06/14/2016 11:18 am 8400 ALEXANDER ST SJ19 41.465542 -87.465554
06/14/2016 10:03 am 83RD PL & PATTERSON SJ23
06/14/2016 9:49 am W 109TH AV & PARRISH AV SJ19 41.421037 -87.450588
06/14/2016 9:05 am SHEFFIELD AV & W 101ST AV SJ19
06/14/2016 7:27 am W 109TH AV & SCHNEIDER PL SJ23 41.421141 -87.468343
06/14/2016 4:00 am 9200 WICKER AV SJ21 41.453592 -87.470222
06/14/2016 3:48 am 9500 WICKER AV SJ21 41.445991 -87.470111
06/14/2016 12:17 am 9500 WICKER AV SJ21 41.445991 -87.470111
06/13/2016 11:45 pm WICKER AV & WALL ST SJ13 41.453043 -87.470213
06/13/2016 7:21 pm W 101ST AV & PARRISH AV SJ13 41.441165 -87.450616
06/13/2016 6:32 pm 8500 WICKER AV; SPEEDWAY SJ21 41.462715 -87.470350
06/13/2016 6:07 pm 9500 CLAIRMONT SJ26 WW
06/13/2016 5:46 pm W 90TH AV & PATTERSON ST SJ1 41.455863 -87.474706
06/13/2016 5:38 pm 9600 WHITE OAK SJ13 CIT
06/13/2016 3:10 pm 9200 DRAKE DR SJ23 41.451837 -87.439778
06/13/2016 2:47 pm W 109TH Ave / MANOR SJ23 WW
06/13/2016 2:30 pm 9400 WICKER AV SJ19 41.447998 -87.470142
06/13/2016 9:31 am W 93RD AV & RENAISSANCE DR SJ23 41.449797 -87.446679 WW
06/13/2016 3:21 am 8200 WICKER AV SJ21 41.469318 -87.470392
06/13/2016 12:01 am 9500 WICKER AV SJ21 41.445991 -87.470111
06/12/2016 8:50 pm WICKER AV & SCHOOL ST SJ21 41.447742 -87.470138
06/12/2016 6:21 pm 8575 WICKER AV SJ21 41.461959 -87.470344
06/12/2016 3:41 pm 8400 WICKER AV SJ18 41.464281 -87.470364
06/10/2016 9:33 pm 10900 WICKER AV SJ25 41.421149 -87.470100 CIT
06/10/2016 9:19 pm 10900 WICKER AVE SJ25 CIT
06/10/2016 9:04 pm 10900 WJCKER ACE SJ25 CIT
06/10/2016 8:54 pm 10900 PARRISH AV SJ25 41.421037 -87.450588 WW
06/10/2016 8:36 pm 9200 WICKER SJ23
06/10/2016 8:29 pm 10900 WICKER AVE SJ25 CIT
06/10/2016 8:12 pm 9400 WICKER SJ23 WW
06/10/2016 8:10 pm 8900 WICKER AV SJ25 41.457608 -87.470280 CIT
06/10/2016 8:01 pm WALL ST AND WICKER SJ23
06/10/2016 8:01 pm 10900 WICKER AVE SJ25 WW
06/10/2016 7:46 pm 10900 schneider SJ25 CIT
06/10/2016 7:33 pm 8400 WICKER AV SJ17 41.464281 -87.470364 CIT
06/10/2016 7:32 pm WALL ST AND WICKER SJ23
06/10/2016 7:29 pm 10900 cline ave SJ25 WW
06/10/2016 7:19 pm 8900 WICKER SJ23
06/10/2016 6:58 pm WALL ST AND WICKER SJ23
06/10/2016 6:51 pm 10400 109TH AVE SJ25 CIT
06/10/2016 6:39 pm W 109TH AV & ONTARIO ST SJ25 41.421154 -87.471273
06/10/2016 6:20 pm 8400 WICKER SJ23
06/10/2016 6:11 pm 9700 WICKER AVE SJ25
06/10/2016 6:01 pm 9700 WICKER SJ23
06/10/2016 5:50 pm 9200 WICKER SJ23
06/10/2016 5:28 pm 9300 WICKER SJ23
06/10/2016 5:13 pm 9600 WICKER SJ23
06/10/2016 10:16 am 9200 WICKER AV SJ18 41.453592 -87.470222
06/10/2016 9:40 am 9700 WICKER AV SJ25 41.443089 -87.470050
06/10/2016 9:15 am W 109TH AV & FORESTDALE ST SJ25 41.421168 -87.473684
06/10/2016 7:21 am FORESTDALE ST & W 109TH AV SJ25 41.421168 -87.473684
06/09/2016 10:53 pm HART ST & JOLIET ST SJ36 41.442976 -87.461448
06/09/2016 10:28 pm 8400 WICKER AV SJ19 41.464281 -87.470364
06/09/2016 10:16 pm 8801 WICKER AV; KOLLING ELEMENTARY SJ19 41.458933 -87.470299
06/09/2016 10:07 pm WICKER AV & WALL ST SJ19 41.453043 -87.470213
06/09/2016 9:53 pm 8400 WICKER AV SJ19 41.464281 -87.470364
06/09/2016 8:33 pm 10900 WICKER AVE SJ25
06/09/2016 8:24 pm W 109TH AV & ONTARIO ST SJ25 41.421154 -87.471273
06/09/2016 8:02 pm W 109TH AV & ONTARIO ST SJ19 41.421154 -87.471273
06/09/2016 7:49 pm W 97TH LN & HICKORY LN SJ26 41.442148 -87.474736
06/09/2016 7:37 pm W 109TH AV & WICKER AV SJ19 41.421149 -87.470100
06/09/2016 7:28 pm 8300 WICKER AV SJ26 41.466787 -87.470378
06/09/2016 7:22 pm W 109TH AV & HURON ST SJ19 41.421160 -87.472295
06/09/2016 7:10 pm W 97TH LN & OLCOTT AV SJ26 41.442529 -87.478840
06/09/2016 7:04 pm 101st & Whiteoak ave SJ19
06/09/2016 6:47 pm 10900 WICKER AVE SJ25
06/09/2016 6:23 pm 10800 MALOIAN DR SJ25 41.423587 -87.485846 CIT
06/09/2016 6:01 pm 10200 WHITE OAK AV SJ25 41.433370 -87.489295 CIT
06/09/2016 12:00 pm 8100 WICKER AV SJ23 41.471886 -87.470393 WW
06/09/2016 7:36 am PATTERSON ST & WALL ST SJ23 41.452823 -87.472087 WW
06/09/2016 6:50 am 9300 WICKER AV SJ23 41.449967 -87.470171
06/08/2016 10:57 am 9200 WICKER AV SJ23 41.453592 -87.470222
06/07/2016 8:47 pm PATTERSON ST & W 93RD AV SJ25 41.449971 -87.470688
06/07/2016 5:44 am 8200 WICKER AV SJ24 41.469318 -87.470392
06/07/2016 5:31 am W 96TH AV & WICKER AV SJ24 41.443973 -87.470069
06/07/2016 12:16 am W 109TH AV & PARRISH AV SJ25 41.421037 -87.450588
06/06/2016 1:33 am 8400 WICKER AV SJ19 41.464281 -87.470364
06/06/2016 12:24 am 10865 MAPLE LN; ANYTIME FITNESS SJ19 41.421686 -87.447766
06/06/2016 12:09 am W 109TH AV & CLINE AV SJ19 41.420910 -87.431171
06/05/2016 10:24 pm 10200 JOLIET ST SJ4 41.442949 -87.461297
06/05/2016 9:43 pm W 109TH AV & ONTARIO SJ19
06/05/2016 8:39 pm W 85TH AV & FAIRWAY DR SJ19 41.464359 -87.463697
06/05/2016 8:23 pm 10800 WICKER AV SJ19 41.422959 -87.470092
06/05/2016 8:14 pm 9769 WICKER AV; MCDONALDS SJ19 41.441394 -87.470026
06/05/2016 9:50 am 9885 WICKER AV; TARGET SJ23 41.439647 -87.470007 CIT
06/05/2016 1:12 am 9700 WICKER AV SJ21 41.443089 -87.470050
06/04/2016 11:46 pm W 101ST AV & CALUMET AV SJ21 41.435635 -87.508349
06/04/2016 11:28 pm W 109TH AV & HILLCREST LN SJ21 41.421205 -87.496638
06/04/2016 11:16 pm 8400 WICKER AV SJ19 41.464281 -87.470364
06/04/2016 10:28 pm 9200 WICKER AV SJ19 41.453592 -87.470222
06/04/2016 10:02 pm 93RD AV & BRAMBLEWOOD DR SJ21 41.450151 -87.505367
06/04/2016 9:26 pm 11033 W 93RD AV SJ19 41.449958 -87.469145
06/04/2016 8:13 pm 8100 WICKER AV SJ21 41.471886 -87.470393
06/04/2016 9:59 am 9200 WICKER AV SJ23 41.453592 -87.470222 CIT
06/04/2016 7:51 am W 93RD AV & MONIX DR SJ23 41.450028 -87.491955 CIT
06/04/2016 7:32 am W 109TH AV & OLCOTT AV SJ23 41.421214 -87.481530
06/04/2016 6:26 am 8200 WICKER AV SJ23 41.469318 -87.470392
06/03/2016 9:43 pm 10700 WICKER AV SJ360 41.424209 -87.470085
06/03/2016 9:00 pm W 93RD AV & OLCOTT AV SJ21 41.449974 -87.480663
06/03/2016 7:58 pm 8500 WICKER AV SJ19 41.462715 -87.470350
06/03/2016 11:28 am 8600 WICKER AV SJ23 41.461624 -87.470339
06/03/2016 11:15 am 8400 WICKER AV SJ14 41.464281 -87.470364
06/03/2016 7:59 am 11800 WICKER AV SJ23 41.404709 -87.470061
06/03/2016 7:42 am 11033 W 93RD AV SJ23 41.449958 -87.469145
06/02/2016 10:44 am W 85TH AV & FAIRWAY DR SJ10 41.464359 -87.463697
06/02/2016 10:21 am WHITE OAK AV & ROSEWOOD SJ10
06/02/2016 12:04 am 8500 WICKER AV SJ25 41.462715 -87.470350
06/01/2016 2:12 am 9700 WICKER AV SJ19 41.443089 -87.470050
06/01/2016 1:14 am 10600 WICKER AV SJ19 41.427299 -87.470069
06/01/2016 12:46 am 9700 WICKER AV SJ19 41.443089 -87.470050
05/31/2016 11:51 pm 9200 WICKER AV SJ19 41.453592 -87.470222
05/31/2016 7:56 pm W 85TH AV & AUSTIN AV SJ19 41.464273 -87.446219
05/31/2016 3:58 pm 8400 WICKER AV SJ21 41.464281 -87.470364
05/31/2016 3:24 pm 9321 WICKER AV; STANDARD BANK AND TRUST SJ23 41.449554 -87.470165
05/31/2016 2:20 pm W 93RD AV & OLCOTT AV SJ21 41.449974 -87.480663
05/31/2016 2:11 pm WICKER AV & WALL ST SJ21 41.453043 -87.470213
05/31/2016 11:20 am W 93RD AV & WICKER AV; STANDARD BANK SJ23 41.449967 -87.470171
05/31/2016 9:47 am SJ21 41.471886 -87.470393
05/31/2016 9:06 am 8200 WICKER AV SJ21 41.469318 -87.470392
05/31/2016 7:00 am WICKER AV & SCHOOL ST SJ21 41.447742 -87.470138
05/31/2016 1:07 am W 93RD AV & HILLTOP DR SJ19 41.450000 -87.487793
05/31/2016 12:48 am 9600 WICKER AV; S/B SJ14 41.443973 -87.470069
05/30/2016 10:55 pm W 109TH AV & ONTARIO ST SJ14 41.421154 -87.471273
05/30/2016 10:06 pm 7409 W 85TH AV SJ19 41.464380 -87.426270
05/30/2016 9:44 pm 9200 WICKER AV SJ14 41.453592 -87.470222
05/30/2016 8:03 pm 9700 WICKER AV SJ26 41.443089 -87.470050
05/30/2016 7:22 pm 8300 WICKER AV SJ26 41.466787 -87.470378
05/30/2016 7:20 pm 9400 WICKER AV SJ19 41.447998 -87.470142
05/30/2016 6:02 pm 9200 WICKER AV SJ26 41.453592 -87.470222
05/30/2016 3:27 pm PATTERSON ST & WALL ST SJ21 41.452823 -87.472087
05/30/2016 3:24 pm W 109TH Ave / PARK SJ23
05/30/2016 2:57 pm 9400 WHITE OAK AV SJ23 41.448199 -87.489455
05/30/2016 2:12 pm W 93RD AV & KEILMAN ST SJ21 41.449981 -87.472491
05/30/2016 2:07 pm 8300 WICKER AV SJ21 41.466787 -87.470378
05/30/2016 1:39 pm 9400 WICKER AV SJ21 41.447998 -87.470142
05/30/2016 9:52 am 10400 WICKER AV SJ23 41.429983 -87.470049
05/30/2016 9:34 am 11600 WICKER AV SJ23 41.411508 -87.470077
05/30/2016 9:10 am 9600 WICKER AV SJ21 41.443973 -87.470069
05/29/2016 7:50 am 9700 WICKER AV SJ24 41.443089 -87.470050
05/28/2016 10:21 pm 8800 WICKER AV SJ12 41.458947 -87.470300 WW
05/28/2016 8:11 pm 8300 WICKER AV SJ17 41.466787 -87.470378
05/28/2016 1:51 pm W 85TH AV & WICKER AV SJ19 41.462715 -87.470350
05/28/2016 1:44 pm 8600 WICKER AV SJ19 41.461624 -87.470339
05/28/2016 1:20 pm 11000 W 93RD AV SJ19 41.449956 -87.468941
05/28/2016 1:11 pm W 101ST AV & WHITE OAK AV SJ19 41.435563 -87.489287
05/28/2016 12:43 pm 10100 BLUFF VIEW RD SJ19 41.435603 -87.505416
05/28/2016 12:30 pm W 101ST AV & SADDLE CREEK DR SJ19 41.435592 -87.499938
05/28/2016 12:08 pm W 101ST AV & WELLINGTON CT E SJ19 41.435574 -87.493895
05/28/2016 11:55 am W 101ST AV & SADDLE CREEK DR SJ19 41.435592 -87.499938
05/28/2016 11:44 am 14100 W 101ST AV SJ19 41.435623 -87.507252
05/28/2016 11:16 am W 109TH AV & OLCOTT AV SJ19 41.421214 -87.481530
05/28/2016 11:06 am W 109TH AV & WHITE OAK AV SJ19 41.421258 -87.489398
05/28/2016 10:57 am W 109TH AV & WHITE OAK AV SJ19
05/28/2016 10:38 am W 108TH AV & SCHNEIDER PL SJ19 41.422865 -87.468127
05/28/2016 10:12 am 9400 WICKER AV SJ19 41.447998 -87.470142
05/28/2016 9:34 am 9200 WICKER AV SJ19 41.453592 -87.470222
05/28/2016 9:19 am 8400 WICKER AV SJ19 41.464281 -87.470364
05/28/2016 8:59 am 93 AV / WHITE OAK SJ16 WW
05/28/2016 8:55 am W 85TH AV & WICKER AV SJ19 41.462715 -87.470350
05/28/2016 8:41 am W 93RD AV & WICKER AV SJ16 41.449967 -87.470171 WW
05/28/2016 8:36 am 9200 WICKER AV SJ19 41.453592 -87.470222
05/28/2016 8:20 am 9200 WICKER AV SJ19 41.453592 -87.470222
05/28/2016 8:13 am WHITE OAK AV; MIDWEST TRAINING CTR SJ16 41.423231 -87.489361 CIT
05/28/2016 7:50 am W 85TH AV & WICKER AV SJ24 41.462715 -87.470350 VW
05/27/2016 2:54 pm W 101ST AV & WHITE OAK AV SJ19 41.435563 -87.489287
05/27/2016 2:43 pm W 101ST AV & WHITE OAK AV SJ19 41.435563 -87.489287
05/27/2016 2:33 pm W 101ST AV & WHITE OAK AV SJ19 41.435563 -87.489287
05/27/2016 2:24 pm W 101ST AV & WHITE OAK AV SJ19 41.435563 -87.489287
05/27/2016 1:42 pm W 101ST AV & WHITE OAK AV SJ19 41.435563 -87.489287
05/27/2016 1:23 pm 9200 OLCOTT AV SJ19 41.451570 -87.481338
05/27/2016 1:03 pm W 93RD AV & W OAKRIDGE DR SJ19 41.449989 -87.478157
05/27/2016 12:46 pm W 93RD AV & W OAKRIDGE DR SJ19 41.449989 -87.478157
05/27/2016 11:38 am 14200 W 109TH AV SJ19 41.421170 -87.503210
05/27/2016 11:25 am 108TH LN & NORTHCOTE DR SJ19 41.421443 -87.484540
05/27/2016 10:59 am W 109TH AV & HILLCREST LN SJ19 41.421205 -87.496638
05/27/2016 10:48 am W 109TH AV & HURON ST SJ19 41.421160 -87.472295
05/27/2016 10:24 am W 109TH AV & ONTARIO ST SJ19 41.421154 -87.471273
05/27/2016 10:11 am W 109TH AV & MANOR DR SJ19 41.421247 -87.487135
05/27/2016 9:59 am W 109TH AV & HURON ST SJ19 41.421160 -87.472295
05/27/2016 12:59 am W 93RD AV & OLCOTT AV SJ23 41.449974 -87.480663
05/27/2016 12:35 am 7900 WICKER AV SJ23 41.473644 -87.470406
05/26/2016 11:57 pm 9300 WHITE OAK AV SJ14 41.450009 -87.489482
05/26/2016 11:40 pm 8400 WICKER AV SJ23 41.464281 -87.470364
05/26/2016 11:37 pm 8500 WICKER AV SJ23 41.462715 -87.470350
05/26/2016 11:05 pm 8000 WICKER AV SJ23 41.472761 -87.470400
05/26/2016 8:41 pm 9200 WICKER AV SJ23 41.453592 -87.470222
05/26/2016 7:55 pm 5TH AND OLCOTT SJ23
05/26/2016 7:02 pm 9141 WICKER AV; ASPEN CAFE SJ23 41.454382 -87.470233
05/26/2016 4:24 pm 9200 OLCOTT AV SJ21 41.451570 -87.481338 WW
05/26/2016 3:50 pm 9300 BELMONT AV SJ21 41.449965 -87.483809 CIT
05/26/2016 3:20 pm 10400 W 93RD AV; VFW POST SJ26 41.449906 -87.463029 VW
05/26/2016 3:06 pm 10317 JOLIET ST SJ26 41.443468 -87.463072 WW
05/26/2016 11:08 am 9100 WICKER AV SJ21 41.454931 -87.470241 CIT
05/26/2016 9:52 am 8300 WICKER AV SJ21 41.466787 -87.470378 VW
05/26/2016 9:45 am 9100 WICKER AV SJ21 41.454931 -87.470241 VW
05/26/2016 9:21 am 9600 JULIA DR SJ26 41.444577 -87.505037 VW
05/26/2016 8:50 am W 85TH AV & WICKER AV SJ26 41.462715 -87.470350 VW
05/26/2016 7:32 am 9400 OLCOTT AV SJ26 41.449025 -87.480210 CIT
05/26/2016 6:46 am W 93RD AV & WICKER AV SJ21 41.449967 -87.470171
05/26/2016 5:08 am PARK & W 103RD ST SJ26
05/25/2016 10:58 pm 9900 JOLIET ST SJ14 41.442224 -87.457201
05/25/2016 9:45 pm 109TH AND ONTARIO SJ23
05/25/2016 8:57 pm W 105TH ST & PATNOE DR SJ23 41.429127 -87.487703
05/25/2016 7:39 pm 8400 WICKER AV SJ23 41.464281 -87.470364
05/25/2016 6:25 pm CLINE AV & W 101ST PL SJ14 41.434770 -87.431164 CIT
05/25/2016 4:24 pm 10700 W 109TH AV SJ26 41.421104 -87.462501
05/25/2016 3:43 pm 9500 WICKER AV SJ21 41.445991 -87.470111
05/25/2016 3:30 pm W 109TH AV & MAPLE LN SJ26 41.421024 -87.447732
05/25/2016 10:24 am 13800 93RD AV SJ21 41.450144 -87.506399
05/25/2016 9:42 am WICKER / 77TH Ave; JUST N SJ26
05/25/2016 8:49 am 93RD AV; E OF COLFAX SJ21 41.450131 -87.507993
05/25/2016 8:12 am WICKER AV & VENTURA DR SJ21 41.464281 -87.470364
05/25/2016 12:49 am JOLIET ST & THREE SPRINGS DR SJ24 41.442090 -87.456412
05/24/2016 9:30 pm 9280 WICKER AV SJ365 41.451133 -87.470187
05/23/2016 7:09 pm 8400 WICKER AV; SPEEDWAY SJ17 41.464281 -87.470364
05/23/2016 1:47 pm 8700 WICKER AV SJ18 41.460285 -87.470319 CIT
05/23/2016 10:47 am CLARMONTE DR & W 93RD AV SJ18 41.449796 -87.449160 WW
05/23/2016 10:13 am 8700 WICKER AV SJ18 41.460285 -87.470319
05/23/2016 6:29 am JOLIET ST & WICKER AV SJ25 41.447742 -87.470138
05/22/2016 10:40 pm JOLIET ST & WICKER AV SJ19 41.447742 -87.470138
05/22/2016 9:27 pm 10100 BELMONT CT SJ14 41.435670 -87.482606
05/22/2016 6:23 pm 9400 JOLIET ST SJ19 41.441165 -87.450616
05/22/2016 2:58 pm 8400 WICKER AV; SPEEDWAY SJ21 41.464281 -87.470364 VW
05/22/2016 1:56 pm JOLIET ST & WICKER AV SJ26 41.447742 -87.470138 WW
05/22/2016 1:36 pm 9300 VILLHEO SJ26 CIT
05/22/2016 1:01 pm W 109TH AV & MAPLE LN SJ26 41.421024 -87.447732 WW
05/22/2016 11:49 am 10900 ONTARIO SJ25 WW
05/22/2016 11:46 am 10900 SCHNEIDER PL SJ25 41.422289 -87.468199 VW
05/22/2016 11:32 am 10900 WICKER AV SJ25 41.421149 -87.470100 CIT
05/22/2016 11:25 am 10900 OLCOTT AVE SJ25 WW
05/22/2016 11:16 am 9100 PATTERSON ST SJ21 41.453963 -87.473070 CIT
05/22/2016 11:12 am 10100 WICKER AV SJ25 41.436091 -87.469997 WW
05/22/2016 11:06 am 9200 WICKER AV SJ21 41.453592 -87.470222
05/22/2016 10:59 am 9600 WICKER AV SJ25 41.443973 -87.470069 CIT
05/22/2016 10:33 am 8100 WICKER AV SJ25 41.471886 -87.470393 WW
05/22/2016 10:11 am 8200 WICKER AV SJ25 41.469318 -87.470392 VW
05/22/2016 9:50 am WALL ST & WICKER AV SJ25 41.453043 -87.470213 CIT
05/22/2016 9:39 am 9200 WICKER AV SJ25 41.453592 -87.470222 CIT
05/22/2016 9:30 am 9700 KEILMAN ST SJ25 41.442845 -87.472427 CIT
05/22/2016 8:23 am 9400 KEILMAN ST SJ25 41.448184 -87.472483 CIT
05/22/2016 8:01 am 9200 WICKER AV SJ25 41.453592 -87.470222 CIT
05/22/2016 7:12 am 9500 WICKER AV SJ25 41.445991 -87.470111 CIT
05/22/2016 5:17 am 9100 WICKER AV SJ22 41.454931 -87.470241
05/21/2016 8:46 pm KELLY DR; WICKER SJ23 41.462561 -87.472333
05/21/2016 8:12 pm 109th AND wicker SJ365
05/21/2016 7:39 pm 9200 WICKER AV SJ23 41.453592 -87.470222
05/21/2016 7:28 pm WICKER AV; WALGREENS SJ23 41.422054 -87.470096
05/21/2016 4:29 pm 10100 WICKER AV SJ26 41.436091 -87.469997 CIT
05/21/2016 1:19 pm 8500 WICKER AV SJ343 41.462715 -87.470350 CIT
05/21/2016 12:28 pm JOLIET ST & INDUSTRIAL DR SJ26 41.443788 -87.464124
05/21/2016 11:40 am 7900 WICKER AV SJ343 41.473644 -87.470406
05/21/2016 3:07 am 9600 WICKER AV SJ14 41.443973 -87.470069
05/21/2016 12:36 am 9700 WICKER AV SJ14 41.443089 -87.470050
05/20/2016 10:38 pm 8400 WICKER AV SJ19 41.464281 -87.470364
05/20/2016 8:14 pm 8500 WICKER AV SJ19 41.462715 -87.470350
05/20/2016 3:16 pm 11700 W 93RD AV; PRAIRIE WEST PARK SJ26 41.449987 -87.476751
05/20/2016 3:09 pm LIBRARY PKLT SJ21
05/20/2016 1:45 pm JOLIET ST & IVY AV SJ21 41.441512 -87.452718 CIT
05/20/2016 11:49 am WICKER AV & JOLIET ST SJ21 41.447742 -87.470138 WW
05/20/2016 11:40 am WICKER AV & WALL ST SJ21 41.453043 -87.470213
05/20/2016 10:47 am 8200 WICKER AV SJ10 41.469318 -87.470392
05/20/2016 10:29 am 9700 WICKER AV SJ10 41.443089 -87.470050
05/20/2016 10:13 am W 95TH AV & WICKER AV SJ10 41.446031 -87.470111
05/20/2016 9:51 am W 109TH AV & CLINE AV; JUST W OF CLINE SJ26 41.420910 -87.431171 WW
05/20/2016 9:29 am 11000 W 93RD AV SJ10 41.449956 -87.468941
05/20/2016 9:23 am 8100 CLINE SJ21
05/20/2016 9:16 am 8200 WICKER AV SJ10 41.469318 -87.470392
05/20/2016 9:05 am 8400 WICKER AV SJ10 41.464281 -87.470364
05/20/2016 8:55 am 8200 WICKER AV SJ10 41.469318 -87.470392
05/20/2016 8:51 am 9200 WICKER AV SJ21 41.453592 -87.470222
05/20/2016 8:39 am 8500 WICKER AV SJ10 41.462715 -87.470350
05/20/2016 8:29 am 8800 WICKER AV SJ10 41.458947 -87.470300
05/20/2016 8:12 am 8400 WICKER AV SJ10 41.464281 -87.470364
05/20/2016 7:36 am 8900 WICKER AV SJ10 41.457608 -87.470280
05/20/2016 7:30 am 9200 WICKER AV SJ26 41.453592 -87.470222 CIT
05/20/2016 7:11 am 8400 WICKER AV; LAKE CENTRAL HIGH SCHOOL SJ1 41.464281 -87.470364 WW
05/20/2016 7:07 am W 85TH AV & WICKER AV SJ10 41.462715 -87.470350
05/20/2016 6:43 am WICKER AV & WALL ST SJ10 41.453043 -87.470213
05/20/2016 6:32 am 9100 WICKER AV SJ10 41.454931 -87.470241
05/20/2016 6:03 am 8400 WICKER AV SJ10 41.464281 -87.470364
05/20/2016 5:51 am 9200 WICKER AV SJ10 41.453592 -87.470222
05/20/2016 5:33 am 9400 WICKER AV SJ10 41.447998 -87.470142
05/20/2016 5:24 am WALL ST & PATTERSON ST SJ10 41.452823 -87.472087
05/20/2016 5:09 am 9280 WICKER AV SJ10 41.451133 -87.470187
05/19/2016 8:33 pm W 101ST AV & WHITE OAK AV SJ10 41.435563 -87.489287
05/19/2016 8:17 pm 10600 WHITE OAK AV SJ10 41.427178 -87.489314
05/19/2016 6:38 pm 11700 W 93RD AV; PRAIRIE WEST PARK SJ24 41.449987 -87.476751
05/19/2016 5:00 pm 8500 WICKER AV SJ24 41.462715 -87.470350
05/19/2016 11:54 am 11400 WICKER AV SJ25 CIT
05/19/2016 11:43 am 11900 WICKER AV SJ25 41.402878 -87.470053 CIT
05/19/2016 11:25 am 10900 WICKER AV SJ25
05/19/2016 11:15 am 10900 WICKER AVE SJ25 WW
05/19/2016 11:07 am 10700 WICKER AV SJ25 41.424209 -87.470085 WW
05/19/2016 9:49 am CLINE AV & HAVENWOOD PASS SJ25 41.390197 -87.431225
05/19/2016 8:44 am 9600 WICKER AV SJ25 41.443973 -87.470069 CIT
05/19/2016 8:36 am WALL ST & WICKER AV SJ17 41.453043 -87.470213 CIT
05/19/2016 8:33 am 9500 WICKER AV SJ25 41.445991 -87.470111
05/19/2016 8:32 am 9200 wicker ave SJ25
05/19/2016 8:26 am 10100 WICKER AV SJ25 41.436091 -87.469997 VW
05/19/2016 8:18 am 10900 SCHNEIDER PL SJ25 41.422289 -87.468199 CIT
05/19/2016 8:03 am 10100 WICKER AV SJ25 41.436091 -87.469997
05/19/2016 7:29 am 9200 WICKER AV SJ17 41.453592 -87.470222 CIT
05/19/2016 7:11 am 87TH / PATTERSON SJ16 WW
05/18/2016 10:23 pm 8700 WICKER AV SJ18 41.460285 -87.470319
05/18/2016 10:11 pm 8700 WICKER AV SJ18 41.460285 -87.470319
05/18/2016 9:06 pm 11000 WICKER AV SJ25 41.420373 -87.470098
05/18/2016 8:52 pm 10900 WICKER AV SJ25 41.421149 -87.470100
05/18/2016 8:29 pm 10900 WICKER AVE SJ25
05/18/2016 8:21 pm 10900 WICKER AV SJ25 41.421149 -87.470100
05/18/2016 7:41 pm WHITE OAK AV; 10900 SJ25 41.423231 -87.489361
05/18/2016 7:15 pm 10900 WICKER AVE SJ25
05/18/2016 6:58 pm 10900 wicker ave SJ25
05/18/2016 6:45 pm 10900 WICKER AV SJ25 41.421149 -87.470100 WW
05/18/2016 6:32 pm 10900 wicker ave SJ25 CIT
05/18/2016 6:06 pm 10900 schneider SJ25 WW
05/18/2016 5:40 pm 109000 white oak SJ25 CIT
05/18/2016 5:27 pm 10900 ONTARIO SJ25
05/18/2016 5:17 pm 10900 HURON ST SJ25 41.421160 -87.472295 WW
05/18/2016 12:46 pm 9200 WICKER AV SJ17 41.453592 -87.470222 CIT
05/18/2016 7:49 am WALL ST & WICKER AV SJ17 41.453043 -87.470213 CIT
05/18/2016 6:27 am 10100 WICKER AV SJ17 41.436091 -87.469997
05/18/2016 6:19 am 9500 WICKER AV SJ17 41.445991 -87.470111
05/18/2016 5:44 am 10100 PARRISH AV SJ17 41.438508 -87.450596
05/18/2016 4:33 am 8100 WICKER AV SJ21 41.471886 -87.470393
05/18/2016 12:05 am 11300 CALUMET AV SJ21 41.408461 -87.508203
05/17/2016 10:08 pm 9500 WICKER AV SJ24 41.445991 -87.470111
05/17/2016 9:32 pm W 93RD AV & W OAKRIDGE DR SJ24 41.449989 -87.478157
05/17/2016 9:10 pm W 109TH AV & WICKER AV SJ24 41.421149 -87.470100
05/17/2016 9:02 pm W 109TH AV & WICKER AV SJ24 41.421149 -87.470100
05/17/2016 8:48 pm W 109TH AV & HILLCREST LN SJ24 41.421205 -87.496638
05/17/2016 8:13 pm W 101ST AV & WHITE OAK AV SJ24 41.435563 -87.489287
05/17/2016 8:00 pm 9200 WICKER AV SJ14 41.453592 -87.470222
05/17/2016 7:56 pm 10600 WHITE OAK AV SJ24 41.427178 -87.489314
05/17/2016 7:44 pm 10600 WHITE OAK AV SJ24 41.427178 -87.489314
05/17/2016 7:35 pm 10600 WHITE OAK AV SJ24 41.427178 -87.489314
05/17/2016 7:24 pm 106TH & WHITE OAK Ave SJ24
05/17/2016 7:16 pm INDUSTRIAL DR & JOLIET ST SJ21 41.443788 -87.464124
05/17/2016 6:59 pm W 101ST AV & WHITE OAK AV SJ24 41.435563 -87.489287
05/17/2016 6:23 pm 9500 WHITE OAK AV SJ24 41.446362 -87.489428
05/17/2016 6:14 pm PRAIRE West PARK SJ24
05/17/2016 5:59 pm W 93RD AV & WICKER AV SJ24 41.449967 -87.470171 WW
05/17/2016 8:36 am W 101ST AV & WHITE OAK AV SJ23 41.435563 -87.489287
05/16/2016 11:15 pm sr231 & cline SJ14
05/16/2016 9:58 pm W 109TH AV & WICKER AV SJ24 41.421149 -87.470100
05/16/2016 9:35 pm W 109TH AV & HILLCREST LN SJ24 41.421205 -87.496638
05/16/2016 9:10 pm 8500 WICKER AV SJ14 41.462715 -87.470350
05/16/2016 8:58 pm W 109TH AV & HILLCREST LN SJ24 41.421205 -87.496638
05/16/2016 8:53 pm W 109TH AV & WICKER AV SJ24 41.421149 -87.470100
05/16/2016 8:44 pm W 109TH AV & WICKER AV SJ24 41.421149 -87.470100
05/16/2016 8:27 pm W 109TH AV & HURON ST SJ24 41.421160 -87.472295
05/16/2016 8:12 pm W 109TH AV & WICKER AV SJ24 41.421149 -87.470100
05/16/2016 7:46 pm 10600 WHITE OAK AV SJ24 41.427178 -87.489314
05/16/2016 7:36 pm W 109TH AV & WICKER AV SJ24 41.421149 -87.470100
05/16/2016 7:26 pm W 109TH AV & WICKER AV SJ24 41.421149 -87.470100
05/16/2016 7:06 pm W 109TH AV & HILLCREST LN SJ24 41.421205 -87.496638
05/16/2016 6:32 pm W 93RD AV & WICKER AV SJ24 41.449967 -87.470171 CIT
05/16/2016 6:22 pm W 93RD AV & WICKER AV SJ24 41.449967 -87.470171
05/16/2016 6:04 pm ROBIN HOOD / LITTLE JOHN SJ24 VW
05/16/2016 12:52 pm JOLIET ST & INDUSTRIAL DR SJ23 41.443788 -87.464124
05/16/2016 10:50 am JOLIET ST & WICKER AV SJ23 41.447742 -87.470138
05/15/2016 11:24 pm 8700 WICKER AV SJ24 41.460285 -87.470319
05/15/2016 9:05 pm W OAKRIDGE DR & W 93RD AV SJ25 41.449989 -87.478157
05/15/2016 8:22 pm 7967 WICKER AV SJ16 41.473053 -87.470402
05/15/2016 8:17 pm 9500 WICKER AV SJ24 41.445991 -87.470111
05/15/2016 7:57 pm W 101ST AV & WHITE OAK AV SJ16 41.435563 -87.489287
05/15/2016 7:55 pm 10900 WICKER AVE SJ25
05/15/2016 7:48 pm W 101ST AV & WHITE OAK AV SJ16 41.435563 -87.489287
05/15/2016 7:47 pm WICKER AV & WALL ST SJ10 41.453043 -87.470213
05/15/2016 7:40 pm 10900 ONTARIO SJ25
05/15/2016 7:31 pm 10900 ONTARIO SJ25
05/15/2016 7:15 pm 10900 WICKER AV SJ25 41.421149 -87.470100
05/15/2016 6:53 pm 10900 WICKER AVE SJ25 CIT
05/15/2016 6:44 pm 10900 WICKER SJ25 WW
05/15/2016 6:30 pm JOLIET ST & WICKER AV SJ24 41.447742 -87.470138
05/15/2016 6:15 pm 10900 ONTARIO SJ25 CIT
05/15/2016 5:54 pm 8800 WICKER AV SJ25 41.458947 -87.470300
05/15/2016 5:31 pm 9500 WHITEOAK SJ25
05/15/2016 5:03 pm 9300 olcott ave SJ25 CIT
05/15/2016 4:15 pm 9200 WICKER AV SJ17 41.453592 -87.470222 CIT
05/15/2016 12:21 pm 9500 WICKER AV SJ17 41.445991 -87.470111 CIT
05/15/2016 11:38 am W 93RD AV & MALLARD COVE SJ18 41.449778 -87.436813 CIT
05/15/2016 11:03 am shilling lumber SJ17 CIT
05/15/2016 10:30 am W 109TH AV & FORESTDALE ST SJ25 41.421168 -87.473684
05/15/2016 8:46 am 93RD AV SJ18 41.450131 -87.507993
05/14/2016 6:29 pm W 93RD AV SJ16 41.450129 -87.508672 CIT
05/14/2016 5:28 pm 9700 WHITE OAK AV SJ24 CIT
05/14/2016 5:26 pm 9600 WHITE OAK AV SJ16 WW
05/14/2016 5:16 pm 9623 WICKER AV; RASCALS SJ16 41.443768 -87.470065
05/14/2016 1:09 pm WALL ST & WICKER AV SJ19 41.453043 -87.470213
05/14/2016 1:06 pm WALL ST & WICKER AV SJ19 41.453043 -87.470213
05/14/2016 12:42 pm W 93RD AV & MARQUETTE ST SJ19 41.449792 -87.441074
05/14/2016 12:30 pm 9200 SCHAFER DR SJ19 41.451935 -87.443222
05/14/2016 11:35 am 101ST Ave / WHITE OAK SJ19
05/14/2016 11:21 am 9400 WHITE OAK AV SJ19 41.448199 -87.489455
05/14/2016 10:51 am W 109TH AV & SCHNEIDER PL; 231 SJ19 41.421141 -87.468343
05/14/2016 10:37 am W 109TH AV & CALUMET AV SJ19 41.421141 -87.508266
05/14/2016 10:22 am 13200 W 109TH AV SJ19 41.422939 -87.500622
05/14/2016 10:08 am W 109TH AV & SCHNEIDER PL; 231 SJ19 41.421141 -87.468343
05/14/2016 9:46 am W 101ST AV & WHITE OAK AV SJ19 41.435563 -87.489287
05/14/2016 9:26 am 11700 W 93RD AV SJ19 41.449987 -87.476751
05/14/2016 9:13 am SJ19
05/14/2016 8:29 am 8400 WICKER AV SJ19 41.464281 -87.470364
05/13/2016 7:28 pm 231 WICKER Ave SJ16 CIT
05/13/2016 5:19 pm 9300 WHITE OAK AV SJ19 41.450009 -87.489482
05/13/2016 4:56 pm W 93RD AV & BELMONT AV SJ19 41.449965 -87.483809
05/13/2016 4:10 pm 9400 W OAKRIDGE DR SJ19 41.449588 -87.478013
05/13/2016 3:54 pm W 93RD AV & OLCOTT AV SJ19 41.449969 -87.481228
05/13/2016 2:52 pm 9600 KEILMAN ST SJ25 41.444611 -87.472455 WW
05/13/2016 2:48 pm 10900 WICKER AV SJ19 41.421149 -87.470100
05/13/2016 2:36 pm 231 & WICKER SJ19
05/13/2016 2:20 pm 109TH & HERON SJ19
05/13/2016 2:02 pm W 109TH AV & SCHNEIDER PL; US 231 SJ19 41.421141 -87.468343
05/13/2016 1:37 pm 109TH / HURON SJ19
05/13/2016 1:18 pm 10900 WICKER AV SJ19 41.421149 -87.470100
05/13/2016 1:07 pm W 109TH AV & HURON ST SJ19 41.421160 -87.472295
05/13/2016 12:52 pm 359406D IL PC SJ19
05/13/2016 10:05 am WICKER AV & SCHOOL ST SJ10 41.447742 -87.470138
05/13/2016 9:56 am W 93RD AV & WICKER AV SJ17 41.449967 -87.470171
05/13/2016 9:51 am WICKER AV & WALL ST SJ10 41.453043 -87.470213
05/13/2016 9:39 am WICKER AV & W 97TH AV SJ10 41.441590 -87.470028
05/13/2016 9:18 am 9100 WICKER AV SJ10 41.454931 -87.470241
05/13/2016 9:00 am WICKER AV & JOLIET ST SJ10 41.447742 -87.470138
05/13/2016 7:59 am 8400 WICKER AV SJ10 41.464281 -87.470364
05/13/2016 7:43 am WALL ST & WICKER AV SJ17 41.453043 -87.470213 CIT
05/13/2016 7:35 am W 96TH AV & WICKER AV SJ10 41.443973 -87.470069
05/13/2016 7:25 am 8200 HERON LAKE RD SJ17 41.468095 -87.480732 CIT
05/13/2016 7:23 am 9200 WICKER AV SJ10 41.453592 -87.470222
05/13/2016 7:14 am 8300 HERON LAKE RD SJ17 41.467572 -87.481551 CIT
05/13/2016 7:05 am 8400 WICKER AV; LAKE CENTRAL HIGH SCHOOL SJ10 41.464281 -87.470364
05/13/2016 6:28 am 9200 WICKER AV SJ10 41.453592 -87.470222
05/13/2016 6:12 am 9500 WICKER AV SJ10 41.445991 -87.470111
05/13/2016 6:01 am 9800 WICKER AV SJ10 41.441083 -87.470022
05/13/2016 5:41 am 9200 WICKER AV SJ10 41.453592 -87.470222
05/13/2016 5:31 am 9200 WICKER AV SJ10 41.453592 -87.470222
05/12/2016 11:38 pm W 91ST PL & LEE PL SJ4 41.452858 -87.429629
05/12/2016 9:01 pm BULL RUN DR & HOMESTEAD VILLAGE CT SJ26 41.431714 -87.473573 WW
05/12/2016 2:59 pm 13600 W 90TH AV SJ343 41.455229 -87.495475
05/12/2016 2:37 pm 13600 LANTERN DR SJ343 41.458307 -87.498381
05/12/2016 12:14 pm 10255 WICKER AV; ALSIP HOME NURSERY SJ343 41.432984 -87.470025 WW
05/12/2016 12:04 pm W 93RD PL & BRAMBLEWOOD DR SJ23 41.449382 -87.505377
05/12/2016 11:42 am W 93RD AV & HACK ST SJ23 41.449925 -87.465068
05/12/2016 11:41 am W 101ST AV & WHITE OAK AV SJ343 41.435563 -87.489287 WW
05/12/2016 11:15 am LATERN & COLUMBIA SJ343 WW
05/12/2016 11:12 am WALGREENS SJ19
05/12/2016 8:15 am WALL ST & WICKER AV SJ10 41.453043 -87.470213
05/12/2016 8:03 am W 85TH AV & WICKER AV SJ10 41.462715 -87.470350
05/12/2016 7:59 am W 106TH AV & BRIDLEWOOD SJ19 41.426087 -87.444668
05/12/2016 7:36 am W 85TH AV & WICKER AV SJ10 41.462715 -87.470350
05/12/2016 7:32 am KELLY DR & WICKER AV SJ10 41.462025 -87.470344
05/12/2016 7:22 am W 93RD AV & MONIX DR SJ23 41.450028 -87.491955
05/12/2016 7:17 am W 85TH AV & WICKER AV SJ10 41.462715 -87.470350
05/12/2016 7:13 am 8400 WICKER AV SJ10 41.464281 -87.470364
05/12/2016 6:54 am 9800 WICKER AV SJ10 41.441083 -87.470022
05/12/2016 6:42 am 10200 PARRISH AV SJ23 41.437569 -87.450589
05/12/2016 6:31 am WALL ST & PATTERSON ST SJ10 41.452823 -87.472087
05/12/2016 6:24 am W 109 Ave AND PARISH SJ19
05/12/2016 6:20 am 9200 WICKER AV SJ10 41.453592 -87.470222
05/12/2016 5:56 am 9200 WICKER AV SJ10 41.453592 -87.470222
05/12/2016 5:42 am 9200 wicker test SJ19
05/12/2016 5:26 am WICKER AV & WALL ST SJ10 41.453043 -87.470213
05/12/2016 5:14 am 9200 WICKER AV SJ10 41.453592 -87.470222
05/11/2016 10:13 pm VENTURA DR & WICKER AV SJ24 41.464281 -87.470364
05/11/2016 10:02 pm W 85TH AV & WICKER AV SJ24 41.462715 -87.470350
05/11/2016 9:52 pm 8300 WICKER AV SJ24 41.466787 -87.470378 WW
05/11/2016 9:32 pm W 93RD & MONIX DR SJ24
05/11/2016 9:17 pm W 93RD AV & MONIX SJ24
05/11/2016 8:34 pm 7700 WICKER AV SJ24 41.478956 -87.470527
05/11/2016 8:09 pm 11700 W 93RD AV SJ24 41.449987 -87.476751
05/11/2016 7:47 pm 8400 WICKER AV SJ24 41.464281 -87.470364
05/11/2016 6:41 pm 9000 W 93RD AV SJ26 41.449796 -87.449160
05/11/2016 6:28 pm 9500 WHITE OAK AV SJ24 41.446362 -87.489428 CIT
05/11/2016 6:25 pm 9800 WHITE OAK AV SJ24 41.440970 -87.489352
05/11/2016 6:16 pm W 93RD AV / SHELTON SJ24
05/11/2016 6:04 pm 10600 WHITE OAK AV SJ24 41.427178 -87.489314
05/11/2016 5:46 pm W 93RD AV & HILLTOP DR SJ24 41.450000 -87.487793 CIT
05/11/2016 5:18 pm W 109TH AV & WICKER AV; 231 SJ24 41.421149 -87.470100 CIT
05/11/2016 10:59 am 9407 WICKER AV; DUNKIN DONUTS SJ19 41.447861 -87.470140
05/11/2016 10:07 am 8400 WICKER AV SJ19 41.464281 -87.470364 CIT
05/11/2016 8:57 am W 97TH AV & WICKER AV SJ21 41.441590 -87.470028
05/11/2016 7:29 am WICKER AV & W 93RD AV SJ1 41.449967 -87.470171
05/11/2016 12:31 am 9300 WICKER AV SJ25 41.449967 -87.470171
05/11/2016 12:06 am 9700 WICKER AV SJ24 41.443089 -87.470050
05/10/2016 11:59 pm 8300 WICKER AV SJ24 41.466787 -87.470378
05/10/2016 11:47 pm 9200 WICKER AV SJ25 41.453592 -87.470222
05/10/2016 11:25 pm OLCOTT AV & W 109TH AV SJ25 41.421214 -87.481530
05/10/2016 11:21 pm WHITE OAK AV & W 109TH AV SJ25
05/10/2016 11:06 pm 8200 WICKER AV SJ25 41.469318 -87.470392
05/10/2016 11:04 pm W 77TH AV & WICKER AV SJ24 41.478956 -87.470527
05/10/2016 3:14 pm 9200 WICKER AV SJ17 41.453592 -87.470222
05/10/2016 2:46 pm 9500 / WICKER SJ17 CIT
05/10/2016 1:39 pm W 109TH AV & PARK PL SJ18 41.420989 -87.441287 WW
05/10/2016 12:17 pm JOLIET ST & HART ST SJ17 41.442976 -87.461448
05/10/2016 9:16 am AUSTIN AV & W 85TH AV SJ18 41.464273 -87.446219 CIT
05/10/2016 4:46 am 8200 WICKER AV SJ24 41.469318 -87.470392
05/10/2016 4:36 am 9700 WICKER AV SJ24 41.443089 -87.470050 WW
05/09/2016 10:46 pm W 85TH AV & WICKER AV SJ25 41.462715 -87.470350
05/09/2016 7:46 pm 9200 WICKER AV SJ19 41.453592 -87.470222
05/09/2016 7:33 pm 8400 WICKER AV SJ19 41.464281 -87.470364
05/09/2016 7:09 pm 9200 WICKER AV SJ19 41.453592 -87.470222
05/09/2016 6:41 pm W 93RD AV & HILLTOP DR SJ19 41.450000 -87.487793
05/09/2016 6:29 pm 8600 WICKER AV SJ24 41.461624 -87.470339
05/09/2016 6:23 pm W 102ND AV & WHITE OAK AV SJ19 41.433370 -87.489295
05/09/2016 6:00 pm 9500 WHITE OAK AV SJ19 41.446362 -87.489428
05/09/2016 5:44 pm W 101ST AV & WHITE OAK AV SJ19 41.435563 -87.489287
05/09/2016 5:32 pm W 101ST AV & WHITE OAK AV SJ19 41.435563 -87.489287
05/09/2016 1:23 pm 8575 WICKER AV; speedway SJ17 41.461959 -87.470344
05/09/2016 2:31 am W 96TH AV & WICKER AV SJ21 41.443973 -87.470069
05/08/2016 10:28 pm 8200 WICKER AV SJ21 41.469318 -87.470392
05/08/2016 9:19 pm E 93RD AV & GRAND BLVD SJ4 41.449202 -87.258378
05/08/2016 6:34 pm 11033 W 93RD AV SJ21 41.449958 -87.469145
05/08/2016 10:23 am 10600 WHITE OAK AV SJ19 41.427178 -87.489314
05/08/2016 9:31 am 10500 OLCOTT SJ19 41.429002 -87.481120
05/08/2016 9:18 am W 107TH AV & OLCOTT AV SJ26 41.424932 -87.481142
05/08/2016 9:16 am W 107TH AV & O SJ19 41.424932 -87.481142
05/08/2016 8:43 am W 103RD CT & OLCOT SJ19 41.431781 -87.481105
05/08/2016 7:19 am 10700 OLCOTT AV; sje church SJ26 41.425421 -87.481139
05/08/2016 6:57 am 10600 MALOIAN SJ26 41.426426 -87.485826
05/08/2016 2:02 am 9500 WICKER AV SJ21 41.445991 -87.470111
05/07/2016 9:08 pm W 77TH AV & WICKER AV SJ21 41.478956 -87.470527
05/07/2016 9:02 pm 8500 WICKER AV SJ4 41.462715 -87.470350
05/07/2016 8:54 pm W 93RD AV & WICKER AV SJ21 41.449967 -87.470171
05/07/2016 4:26 pm rosewood & white oak SJ19
05/07/2016 4:04 pm 106th & calumet SJ19
05/07/2016 2:44 pm 9400 WHITE OAK AV SJ25 41.448199 -87.489455
05/07/2016 2:34 pm 9700 WHITEOAK SJ25
05/07/2016 2:22 pm 10100 WHITEOAK AVE SJ25
05/07/2016 2:02 pm 9800 WHITEOAK AVE SJ25
05/07/2016 1:48 pm 9800 WHITEOAK SJ25
05/07/2016 1:35 pm 9600 WHITEOAK AVE SJ25
05/07/2016 1:24 pm WHITE OAK AV & ROSEWOOD SJ25
05/07/2016 1:02 pm 9300 WHITEOAK AVE SJ25
05/07/2016 12:52 pm W 95TH PL & W OAKRIDGE DR SJ26 41.446273 -87.477198
05/07/2016 12:43 pm 93RD AV SJ25 41.450131 -87.507993
05/07/2016 12:30 pm 9300 WHITEOAK AVE SJ25
05/07/2016 12:17 pm WHITE OAK AV & ROSEWOOD SJ25
05/07/2016 12:17 pm 9900 WHITEOAK AVE SJ25
05/07/2016 11:48 am 9600 WHITE OAK AV SJ25 41.444525 -87.489400
05/07/2016 11:22 am 10900 WICKER AVE SJ25
05/07/2016 10:48 am 10900 wicker ave SJ25
05/07/2016 5:34 am 8200 WICKER AV SJ23 41.469318 -87.470392
05/07/2016 12:00 am 9200 MONIX DR SJ21 41.452220 -87.492832
05/06/2016 11:40 pm 93RD AV & BRAMBLEWOOD DR SJ365 41.450151 -87.505367
05/06/2016 11:39 pm PARRISH AV; 10900 BLK SJ4 41.421600 -87.450588
05/06/2016 11:00 pm 11000 W 109TH AV SJ4 41.421125 -87.465951
05/06/2016 10:42 pm 9200 WICKER AV SJ21 41.453592 -87.470222 CIT
05/06/2016 8:16 pm 8575 WICKER AV SJ21 41.461959 -87.470344
05/06/2016 10:38 am W OAKTREE / 93RD SJ12 VW
05/06/2016 7:38 am W 85TH AV & MARQUETTE RD SJ23 41.464263 -87.441366
05/06/2016 12:04 am 9600 WICKER AV SJ24 41.443973 -87.470069
05/05/2016 5:33 pm W 93RD AV & THIEL ST SJ25 41.449948 -87.467867
05/05/2016 2:25 pm WICKER AV & W 109TH AV; 231 SJ16 41.421149 -87.470100 CIT
05/05/2016 11:40 am 93rd cardell SJ16 WW
05/04/2016 7:57 pm 10600 WHITE OAK AV SJ24 41.427178 -87.489314
05/04/2016 7:46 pm 10100 WICKER AV SJ25 41.436091 -87.469997 WW
05/04/2016 2:43 pm 9300 WHITE OAK AV SJ10 41.450009 -87.489482
05/04/2016 8:27 am W 97TH AV & WICKER AV SJ10 41.441590 -87.470028
05/04/2016 12:38 am WICKER AV & VENTURA DR SJ19 41.464281 -87.470364
05/03/2016 8:31 am W 101ST AV & WHITE OAK ; WEST SJ23 41.435563 -87.489287
05/03/2016 8:14 am 8500 PRIMROSE SJ357 41.464508 -87.487911 WW
05/03/2016 8:14 am 101ST & CALUMET ; WEST SJ26
05/03/2016 7:44 am 8500 PRIMROSE DR SJ357 41.464508 -87.487911 WW
05/03/2016 4:29 am 9885 WICKER AV SJ19 41.439647 -87.470007
05/02/2016 11:05 pm 9400 WICKER AV SJ19 41.447998 -87.470142
05/02/2016 2:02 pm WICKER AV & WALL ST SJ21 41.453043 -87.470213
05/02/2016 1:13 pm 9400 OLCOTT AV SJ26 41.449025 -87.480210
05/02/2016 10:49 am 109TH Ave / WICKER Ave SJ14 CIT
05/02/2016 10:02 am W 95TH AV & WICKER AV SJ21 41.446031 -87.470111 VW
05/01/2016 10:22 pm 11033 W 93RD AV SJ17 41.449958 -87.469145
05/01/2016 6:28 pm 9200 WICKER AV SJ17 41.453592 -87.470222 CIT
05/01/2016 12:06 pm HABICUS / ASTOR CODE SJ12 WW
05/01/2016 11:37 am PKLT YESTERYEARS SJ16
05/01/2016 8:43 am 9300 KEILMAN ST SJ12 41.449981 -87.472491
05/01/2016 1:07 am 8500 WICKER AV SJ17 41.462715 -87.470350 CIT
04/30/2016 9:44 pm W 101ST AV & WELLINGTON CT E SJ18 41.435574 -87.493895
04/30/2016 9:17 am 11033 W 93RD AV SJ10 41.449958 -87.469145 CIT
04/30/2016 7:42 am aspen SJ10
04/30/2016 7:40 am SJ10
04/30/2016 7:31 am 109th Huron SJ16 WW
04/30/2016 6:17 am W 109TH AV & WICKER AV; 231 SJ16 41.421149 -87.470100
04/29/2016 9:15 pm W 109TH AV & WICKER AV SJ19 41.421149 -87.470100
04/29/2016 9:03 pm W 109TH AV & WICKER AV SJ19 41.421149 -87.470100
04/29/2016 8:51 pm W 109TH AV & HURON ST SJ19 41.421160 -87.472295
04/29/2016 8:33 pm W 109TH AV & SCHNEIDER PL; 231 SJ19 41.421141 -87.468343
04/29/2016 7:42 pm W 108TH AV & ONTARIO ST SJ19 41.422962 -87.471269
04/29/2016 7:26 pm W 109TH AV & WICKER AV; 231 SJ19 41.421149 -87.470100
04/29/2016 7:03 pm 8400 WICKER AV SJ17 41.464281 -87.470364
04/29/2016 6:52 pm 11700 CLINE AV SJ19 41.406370 -87.431185
04/29/2016 6:33 pm 10800 CLINE AV SJ19 41.422869 -87.431175
04/29/2016 6:26 pm 10900 CLINE AV SJ19 41.420910 -87.431171
04/29/2016 6:02 pm 11500 CLINE AV SJ19 41.410030 -87.431181
04/29/2016 5:32 pm 8900 WICKER AV SJ19 41.457608 -87.470280
04/29/2016 3:24 pm 10700 WHITE OAK AV SJ16 41.425204 -87.489324
04/29/2016 12:16 pm WICKER AV & 109TH SJ16
04/29/2016 12:04 pm 109TH AV & OLCOTT AV SJ16
04/29/2016 7:24 am 11033 W 93RD AV; SJPD SJ1 41.449958 -87.469145
04/29/2016 2:08 am JAMES LN SJ19
04/28/2016 5:36 pm 8100 WICKER AV SJ14
04/28/2016 4:59 pm CLINE AV & W 101ST AV SJ14 41.436724 -87.431153
04/28/2016 10:42 am W 101ST AV & BLAINE ST SJ26 41.436088 -87.426323
04/28/2016 10:25 am 8600 MARQUETTE RD SJ4 41.460207 -87.441307
04/28/2016 8:27 am 10500 WHITE OAK AV SJ26 41.429191 -87.489305
04/28/2016 7:09 am JOLIET ST & WICKER AV SJ26 41.447742 -87.470138
04/28/2016 6:40 am 10200 JOLIET ST SJ26 41.442949 -87.461297
04/28/2016 6:01 am JOLIET ST; EAST OF WICKER AV SJ26 41.446940 -87.468764
04/28/2016 2:12 am W 102ND AV & OLCOTT AV SJ14 41.433394 -87.481104
04/27/2016 3:42 pm JOLIET ST & INDUSTRIAL DR SJ26 41.443788 -87.464124
04/27/2016 11:06 am lincoln lagoon / hart SJ21
04/27/2016 11:06 am 11200 CLINE Ave SJ26
04/27/2016 10:37 am 10200 JOLIET ST SJ21 41.442949 -87.461297
04/27/2016 9:21 am SJ1
04/27/2016 7:34 am 9500 WICKER AV SJ21 41.445991 -87.470111 CIT
04/27/2016 12:00 am 9600 WICKER AV SJ17 41.443973 -87.470069
04/26/2016 6:56 pm W OAKRIDGE DR & W 93RD AV SJ1 41.449989 -87.478157 VW
04/26/2016 11:14 am 8200 WICKER AV SJ25 41.469318 -87.470392 WW
04/26/2016 7:02 am 9500 KEILMAN ST SJ25 41.446388 -87.472473
04/26/2016 6:28 am 9200 WICKER AV SJ21 41.453592 -87.470222
04/25/2016 10:05 pm 8400 WICKER AV SJ18 41.464281 -87.470364 CIT
04/25/2016 9:56 pm WICKER AV & WALL ST SJ18 41.453043 -87.470213 WW
04/25/2016 7:09 pm 9500 WICKER AV SJ17 41.445991 -87.470111 CIT
04/25/2016 6:56 pm 9500 WICKER A SJ17 41.445991 -87.470111 CIT
04/24/2016 12:06 pm 9900 HICKORY LN SJ26 41.439826 -87.475201
04/24/2016 11:43 am 10701 OLCOTT AV; ST SJ26 41.425402 -87.481139
04/24/2016 9:38 am W 107TH AV & NORTHCOTE ST SJ26 41.425199 -87.484557
04/24/2016 9:24 am W 107TH AV & NORTHCOTE ST SJ26 41.425199 -87.484557
04/24/2016 9:15 am 10600 NORTHCOTE DR SJ26 41.426705 -87.483899
04/24/2016 12:19 am W 93RD AV & MARQUETTE ST SJ19 41.449792 -87.441074
04/24/2016 12:04 am 92ND & OLCOTT SJ14
04/23/2016 11:17 pm W 77TH AV & WICKER AV SJ19 41.478956 -87.470527
04/23/2016 7:13 pm W 85TH AV & WICKER AV SJ19 41.462715 -87.470350
04/23/2016 6:44 pm 10100 WICKER AV SJ19 41.436091 -87.469997
04/23/2016 6:04 pm 9100 WICKER AV SJ19 41.454931 -87.470241
04/23/2016 5:55 pm W 93RD AV & KEILMAN ST SJ19 41.449981 -87.472491
04/23/2016 3:00 pm 10600 WHITE OAK AV SJ26 41.427178 -87.489314
04/23/2016 1:46 pm W 101ST AV & PARK PL SJ26 41.437293 -87.438335
04/23/2016 7:19 am 10500 OLCOTT AV SJ26 41.429002 -87.481120
04/23/2016 4:36 am 8500 WICKER AV SJ14 41.462715 -87.470350
04/23/2016 12:52 am 8400 WICKER AV SJ19 41.464281 -87.470364
04/22/2016 8:21 pm W 93RD AV & CLARMONTE DR SJ19 41.449796 -87.449160
04/22/2016 3:10 pm 93RD AV; W OF CLINE SJ26 41.450125 -87.510032 CIT
04/22/2016 3:07 pm 8500 PATTERSON ST SJ4 41.464531 -87.481506
04/22/2016 2:31 pm FRONT OF MIDDLE SCHOOL SJ26 WW
04/22/2016 1:33 pm 9400 JOLIET ST SJ12 41.441165 -87.450616 WW
04/22/2016 10:42 am 9100 MARQUETTE ST SJ26 41.453759 -87.441168 WW
04/22/2016 10:26 am PKLT MIDDLE SCHOOL SJ26 VW
04/22/2016 10:09 am 93RD / MIDDLE SCHOOL SJ26 WW
04/21/2016 10:31 pm 11700 W 93RD AV SJ19 41.449987 -87.476751
04/21/2016 10:15 pm 10200 WICKER AVE SJ19
04/21/2016 9:55 pm 97TH AVE & WICKER AVE SJ19
04/21/2016 9:28 pm 9400 WICKER AVE SJ19
04/21/2016 8:55 pm 9500 WICKER AVE SJ19
04/21/2016 8:17 pm 9200 WICKER AVE SJ19
04/21/2016 8:03 pm WALL ST & WICKER AVE SJ19
04/21/2016 7:44 pm 9400 WICKER AVE SJ19
04/21/2016 7:07 pm 9200 WICKER AVE SJ19
04/21/2016 6:24 pm W 93RD AVE & HILLTOP SJ19
04/21/2016 6:08 pm W 101ST AVE & WHITEOAK AVE SJ19
04/21/2016 6:16 am 89TH PL & CLINE AV XSJ11
04/21/2016 3:30 am 9200 WICKER AV SJ25 41.453592 -87.470222
04/20/2016 10:59 pm 9600 WICKER AV SJ17 41.443973 -87.470069
04/20/2016 6:57 pm 8400 WICKER AV SJ17 41.464281 -87.470364 CIT
04/19/2016 8:41 pm 85TH AV; E OF AUSTIN SJ23
04/19/2016 2:43 pm W 90TH AV & PATTE SJ19 41.455863 -87.474706
04/19/2016 1:28 pm ELLE AV SJ19 41.448074 -87.453735
04/19/2016 11:45 am W 93RD AV & HIL SJ19 41.450000 -87.487793
04/19/2016 8:41 am 93rd & clairmaont SJ19
04/19/2016 7:46 am 10600 WHITE OAK SJ19 41.427178 -87.489314
04/18/2016 8:14 pm W 109TH AV & FORRESTDALE SJ23
04/18/2016 7:42 pm 9700 WICKER SJ23
04/18/2016 12:43 pm W 90TH AV & PATTERSON ST SJ14 41.455863 -87.474706
04/18/2016 9:10 am 9500 WICKER AV SJ14 41.445991 -87.470111
04/17/2016 4:02 pm 10600 WICKER AV SJ25 41.427299 -87.470069
04/17/2016 7:43 am 10900 W 93RD AV SJ15 41.449951 -87.468324
04/17/2016 6:25 am 9200 WICKER AV SJ15 41.453592 -87.470222
04/16/2016 8:17 pm 8400 WICKER AV SJ17 41.464281 -87.470364
04/16/2016 7:33 pm KEILMAN ST & W 93RD AV SJ17 41.449981 -87.472491
04/16/2016 7:29 pm 10800 WHITE OAK AV SJ16 41.423212 -87.489361
04/16/2016 1:59 pm W 93RD AV & SCHAFER DR SJ12 41.449796 -87.442718
04/16/2016 11:54 am WALL ST & WICKER AV SJ12 41.453043 -87.470213
04/16/2016 9:17 am 8800 WICKER AV SJ25 41.458947 -87.470300
04/16/2016 7:46 am 9400 WHITE OAK Ave SJ25
04/15/2016 2:17 pm 9300 WHITE OAK AV SJ25 41.450009 -87.489482
04/15/2016 2:00 pm 9300 WICKER AV SJ66 41.449967 -87.470171
04/15/2016 8:51 am 9500 wicker ave SJ25
04/15/2016 8:49 am 8700 WICKER AV SJ18 41.460285 -87.470319
04/15/2016 2:35 am 9500 WICKER AV SJ26 41.445991 -87.470111
04/14/2016 11:34 pm 9700 WICKER AV SJ14 41.443089 -87.470050
04/14/2016 9:47 pm W 93RD AV; E OF MARQUETTE SJ26
04/14/2016 9:11 pm NORTHCOTE AV & OLCOTT AV SJ26 41.439875 -87.478798
04/14/2016 8:53 pm 9600 OLCOTT AV SJ26 41.444100 -87.478864
04/14/2016 8:30 pm 9900 OLCOTT AV SJ26 41.438624 -87.479369
04/14/2016 8:23 pm WALL ST & WICKER AV SJ25 41.453043 -87.470213
04/14/2016 7:51 pm 10100 WELLINGTON SJ25
04/14/2016 7:32 pm 9300 HILLTOP SJ25
04/14/2016 7:22 pm 9300 HILLTOP DR SJ25 41.450000 -87.487793
04/14/2016 7:11 pm 9400 WHITE OAK AV SJ25 41.448199 -87.489455
04/14/2016 6:50 pm 9700 white oak SJ25
04/14/2016 6:34 pm 10200 white oak SJ25 CIT
04/14/2016 6:17 pm 10200 WHITE OAK AV SJ25 41.433370 -87.489295 CIT
04/14/2016 5:39 pm 8200 wicker SJ25
04/14/2016 4:33 pm W 101ST AV & TULIP LN SJ19 41.439649 -87.447138
04/14/2016 4:14 pm W 101ST AV & BLAINE ST SJ19 41.436088 -87.426323
04/14/2016 4:04 pm 9000 WICKER AV SJ21 41.456270 -87.470261
04/14/2016 3:53 pm 8900 W 93RD AV SJ19 41.449796 -87.442718 CIT
04/14/2016 11:46 am W 101ST AV & CLINE AV SJ19 41.436724 -87.431153
04/14/2016 10:44 am W 93RD AV & BLAINE ST SJ21 41.449720 -87.426537 CIT
04/14/2016 1:50 am W 105TH ST & SIEDLEMANN CT SJ14 41.429003 -87.482485
04/13/2016 9:52 pm W 93RD AV & DEODO SJ14 41.450808 -87.452756 VW
04/13/2016 7:43 pm 9500 WICKER AV SJ14 41.445991 -87.470111 CIT
04/13/2016 6:02 pm 85TH / VENTURA SJ26 WW
04/12/2016 9:51 am KEILMAN ST & W 93RD AV SJ18 41.449981 -87.472491
04/12/2016 9:44 am 8915 W 93RD AV; CLARK MIDDLE SCHOOL; BEHIND SCHOOL SJ1 41.449796 -87.443725
04/11/2016 9:17 pm 8300 WICKER AV SJ21 41.466787 -87.470378
04/11/2016 7:56 pm 9500 WICKER AV SJ21 41.445991 -87.470111
04/11/2016 7:33 pm 8200 WICKER AV SJ21 41.469318 -87.470392
04/11/2016 7:19 am W 101ST AV & BLUFF VIEW RD SJ24 41.435603 -87.505416
04/11/2016 1:56 am 8200 WICKER AV SJ26 41.469318 -87.470392
04/10/2016 11:47 pm W OAKRIDGE DR S OF W 93RD AV SJ26
04/10/2016 11:59 am 10900 WHITE OAK AV SJ343
04/10/2016 8:38 am 9400 WICKER AV SJ19 41.447998 -87.470142
04/10/2016 7:51 am 10700 WICKER AV SJ23 41.424209 -87.470085
04/10/2016 4:08 am 11033 W 93RD AV SJ21 41.449958 -87.469145
04/10/2016 1:31 am 8900 WICKER AV SJ26 41.457608 -87.470280
04/10/2016 12:26 am W 109TH & PARK SJ21
04/10/2016 12:12 am W 93RD AV & CLARMONTE DR SJ4 41.449796 -87.449160
04/09/2016 9:29 pm 108TH PL SJ26 41.422384 -87.481941
04/09/2016 8:31 pm 8200 austin SJ26
04/09/2016 7:31 pm NORTHGATE DR & POLK AV SJ26 41.518081 -87.513938
04/09/2016 9:24 am 8500 WICKER SJ19 41.462715 -87.470350
04/08/2016 10:49 pm PARK PL S OF 109TH SJ4
04/08/2016 10:34 pm 9600 WICKER AV SJ25 41.443973 -87.470069
04/08/2016 10:18 pm 9500 WICKER AV SJ25 41.445991 -87.470111
04/08/2016 9:33 pm 8900 WICKER AV SJ17 41.457608 -87.470280
04/08/2016 9:24 pm 8800 WICKER AV SJ25 41.458947 -87.470300
04/08/2016 9:10 pm WALL ST & WICKER AV SJ25 41.453043 -87.470213
04/08/2016 9:03 pm 9825 WICKER AV SJ17 41.440661 -87.470018
04/08/2016 8:52 pm 9400 WICKER AV SJ25 41.447998 -87.470142
04/08/2016 8:47 pm 9100 WICKER AV SJ17 41.454931 -87.470241
04/08/2016 8:24 pm 8300 WICKER AV SJ21 41.466787 -87.470378
04/08/2016 8:02 pm 9600 WICKER AV SJ25 41.443973 -87.470069
04/08/2016 7:49 pm 9600 WICKER AV SJ25 41.443973 -87.470069
04/08/2016 6:53 pm 11700 cline SJ25
04/08/2016 6:51 pm W 117TH AV & CLI SJ25 41.406370 -87.431185 VW
04/08/2016 6:46 pm 10900 CLINE AV SJ25 41.420910 -87.431171 VW
04/08/2016 6:28 pm W 94TH AV & EL SJ26 41.447737 -87.451383 WW
04/08/2016 6:20 pm 10900 cline ave SJ25 CIT
04/08/2016 6:06 pm 10900 Park Place SJ25 CIT
04/08/2016 6:01 pm WALL ST & WICK SJ17 41.453043 -87.470213
04/08/2016 5:50 pm 9200 WICKER AV; ASPEN CAFE SJ17 41.453592 -87.470222 WW
04/08/2016 5:38 pm 9141 WICKE SJ17 41.454382 -87.470233 CIT
04/08/2016 4:59 pm 101ST & PARK SJ21
04/08/2016 12:13 pm 8400 WICKER AV SJ17 41.464281 -87.470364
04/08/2016 3:52 am 7700 WICKER AV SJ14 41.478956 -87.470527
04/08/2016 2:13 am 9500 WICKER AV SJ14 41.445991 -87.470111
04/07/2016 11:47 pm 9000 WICKER AV SJ18 41.456270 -87.470261
04/07/2016 11:26 pm 9500 KEILMAN ST SJ25 41.446388 -87.472473
04/07/2016 11:17 pm VENTURA DR & WICKER AV SJ25 41.464281 -87.470364
04/07/2016 11:16 pm 9600 WICKER AV SJ14 41.443973 -87.470069
04/07/2016 10:38 pm WICKER AV & WALL ST SJ18 41.453043 -87.470213
04/07/2016 10:24 pm 9300 WICKER AV SJ25 41.449967 -87.470171
04/07/2016 2:57 pm 94TH PL & CALUMET ST SJ24 41.447693 -87.509082
04/07/2016 7:35 am W 108TH AV & ONTARIO ST SJ16 41.422962 -87.471269 CIT
04/06/2016 8:15 am SCHOOL ST & KEILMAN ST SJ16 41.447734 -87.472480
04/06/2016 6:58 am 9700 WICKER AV SJ24 41.443089 -87.470050
04/06/2016 6:38 am W 83RD PL & HERON LAKE RD SJ24 41.467357 -87.481887
04/06/2016 4:29 am W 93RD AV & W OAKRIDGE DR SJ26 41.449989 -87.478157
04/05/2016 5:38 pm W 93RD AV & OLCOTT AV SJ26 41.449974 -87.480663
04/05/2016 2:27 pm W 101ST AV & PARK PL SJ21 41.437293 -87.438335
04/05/2016 11:28 am 11900 WICKER AV SJ14 41.402878 -87.470053
04/05/2016 11:22 am W 93RD AV & MONIX DR SJ21 41.450028 -87.491955
04/05/2016 6:55 am 109TH & S PARK SJ21
04/03/2016 9:31 am 8200 WICKER SJ24 41.469318 -87.470392
04/01/2016 11:36 am W 109TH AV & HILLCREST LN SJ24 41.421205 -87.496638
03/31/2016 10:27 pm W 93RD AV & OLCOTT AV SJ14 41.449974 -87.480663
03/31/2016 8:32 pm PARRISH AV & JOLIET ST SJ14 41.441165 -87.450616
03/31/2016 2:17 pm 11033 W 93RD AV; SJPD SJ21 41.449958 -87.469145
03/31/2016 9:57 am 9300 OLCOTT SJ12
03/31/2016 7:22 am WICKER AV & W 95TH AV SJ21 41.446031 -87.470111
03/31/2016 3:16 am 9955 HUNTERS RUN SJ14 41.437941 -87.472552
03/30/2016 2:10 pm 101ST / WHITE OAK SJ21 CIT
03/30/2016 10:07 am W 101ST AV & CLINE AV SJ21 41.436724 -87.431153 CIT
03/29/2016 7:12 pm W 101ST AV; 6000 SJ17 41.436227 -87.487298
03/29/2016 5:55 pm 9200 WICKER AV SJ17 41.453592 -87.470222
03/29/2016 1:49 pm W 109TH AVE & WICKER AVE SJ19
03/29/2016 1:31 pm W 109TH AVE & HURON SJ19
03/29/2016 1:04 pm 10700 WICKER AVE SJ19
03/29/2016 12:35 pm W 109TH AVE & WICKER AVE SJ19
03/29/2016 12:18 pm W 109TH AVE & ONTARIO ST SJ19
03/29/2016 11:39 am W 109TH AVE & OLCOTT AVE SJ19
03/29/2016 11:38 am 93RD AV; PRAIRIE WEST PARK SJ16 41.450131 -87.507993 VW
03/29/2016 11:19 am W 109TH AVE & OLCOTT AVE SJ19
03/29/2016 11:09 am W109TH AVE & WICKER AVE SJ19
03/29/2016 10:44 am 9200 WICKER AVE SJ19
03/29/2016 10:33 am 13300 101ST Ave SJ16 CIT
03/29/2016 10:25 am MIDWEST ICE ARENA SJ16 WW
03/29/2016 12:09 am 8400 WICKER AV SJ17 41.464281 -87.470364
03/28/2016 9:44 pm W 101ST AV & WELLINGTON CT E SJ18 41.435574 -87.493895 CIT
03/28/2016 9:33 pm W 101ST AV & WELLINGTON CT E SJ18 41.435574 -87.493895
03/28/2016 9:24 pm 10606 WHITE OAK AV SJ18 41.427057 -87.489315 WW
03/28/2016 5:55 pm 9200 WICKER AV SJ17 41.453592 -87.470222
03/28/2016 2:02 pm W 93RD AV & RENAISSANCE DR SJ26 41.449797 -87.446679
03/28/2016 12:44 am W 101ST AV & BLAINE ST SJ19 41.436088 -87.426323
03/27/2016 10:36 pm W 101ST PL & PEARWOOD DR SJ19 41.434656 -87.433895
03/27/2016 5:51 pm W 93RD AV & MARQUETTE ST SJ19 41.449792 -87.441074
03/27/2016 5:46 pm 11600 w 97th av SJ14
03/27/2016 12:52 pm W 95TH AV & WICKER AV SJ343 41.446031 -87.470111
03/27/2016 10:57 am 85th AND school SJ343
03/27/2016 3:34 am PARRISH AV; N OF 109 SJ14 41.421600 -87.450588
03/27/2016 2:05 am 9200 WICKER AV SJ14 41.453592 -87.470222
03/26/2016 10:54 pm OLCOTT AV SJ19 41.421798 -87.481518
03/26/2016 10:24 pm HUNTERS RUN & HUNTERS CT SJ14 41.438072 -87.472470 CIT
03/26/2016 6:53 pm 9600 WICKER AV SJ19 41.443973 -87.470069
03/26/2016 3:08 pm 8300 WICKER AV SJ21 41.466787 -87.470378
03/26/2016 1:11 am 8800 WICKER AV SJ14 41.458947 -87.470300
03/26/2016 1:10 am NIETING CT & PATNOE DR SJ365 41.429964 -87.483803
03/25/2016 11:55 pm W 90TH AV & SCHAFER DR SJ14 41.455145 -87.445182
03/25/2016 9:30 pm W 109TH AV & HILLCREST LN SJ23 41.421205 -87.496638
03/25/2016 8:23 pm 9700 WICKER AV SJ19 41.443089 -87.470050
03/25/2016 8:21 pm W 85TH AV; 12500 BLK SJ26 41.464535 -87.496385
03/25/2016 7:36 pm W 109TH AV; OLCOTT SJ19 41.421213 -87.495438
03/25/2016 7:00 pm 8700 HILLSIDE DR SJ365 41.460315 -87.462743
03/25/2016 11:37 am 101 / WHITE OAK SJ24 WW
03/25/2016 11:28 am 10600 WHITE OAK AV SJ24 41.427178 -87.489314
03/25/2016 11:06 am W 93RD AV & W OAKRIDGE DR SJ24 41.449989 -87.478157
03/25/2016 10:49 am 85TH / GRASSELLI SJ24 WW
03/25/2016 10:30 am W 101ST AV & PARRISH AV SJ24 41.441165 -87.450616 CIT
03/25/2016 10:04 am W 93RD AV & KEILMAN ST SJ24 41.449981 -87.472491
03/25/2016 8:55 am W 102ND AV & WHITE OAK AV SJ24 41.433370 -87.489295 CIT
03/25/2016 8:34 am W 101ST AV & CALUMET AV SJ24 CIT
03/25/2016 7:55 am WHITE OAK / ROSEWOOD SJ24 CIT
03/25/2016 7:30 am 93RD AV & CALUMET AV SJ24 41.450132 -87.507827 CIT
03/25/2016 6:48 am W 93RD & COLUMBIA SJ24
03/23/2016 12:20 pm W 93RD AVE & HILLTOP DR SJ19
03/23/2016 12:07 pm 9200 WICKER AVE SJ19
03/23/2016 11:31 am 9400 WICKER AVE SJ19
03/23/2016 11:09 am 9200 WICKER AV SJ19 41.453592 -87.470222
03/23/2016 10:50 am 8900 WICKER AVE SJ19
03/23/2016 10:38 am 9400 WICKER AVE SJ19
03/23/2016 10:20 am WALL ST & WICKER AVE SJ19
03/23/2016 10:04 am WALL ST & WICKER AVE SJ19
03/23/2016 9:53 am 9200 WICKER AVE SJ19
03/23/2016 9:13 am 14500 W 101ST AVE SJ19
03/23/2016 8:58 am 107TH AVE & WHITEOAK AVE SJ19
03/23/2016 8:37 am W 93RD AVE & HILLTOP DR SJ19
03/22/2016 8:27 pm 109TH AND HURON SJ23
03/22/2016 7:47 pm 11000 BLOCK OF WICKER SJ23
03/22/2016 7:37 pm 109TH AND ONTARIO SJ23
03/22/2016 7:24 pm 109TH AND FORESTDALE SJ23
03/22/2016 6:51 pm 101ST AND WELLINGTON SJ23
03/22/2016 6:38 pm 101ST AND WHITE OAK SJ23
03/22/2016 6:22 pm 11700 W 93RD AV SJ23
03/22/2016 5:54 pm SPEEDWAY (8400 WICKER) SJ23
03/22/2016 5:24 pm 93rd Ave. and Hack St. SJ23
03/22/2016 4:49 pm 8400 WICKER AV; N/B SJ343 41.464281 -87.470364
03/22/2016 12:33 pm 8200 WICKER AV SJ21 41.469318 -87.470392
03/22/2016 12:24 pm 8600 WICKER AV SJ21 41.461624 -87.470339
03/22/2016 7:59 am W 105TH PL & BRIDLE SJ23 41.427874 -87.444670
03/21/2016 7:40 pm 10600 OLCOTT AV SJ26 41.427195 -87.481126
03/21/2016 7:13 pm 11700 UPPER PENINSULA LN SJ26
03/21/2016 6:57 pm BULL RUN DR & UPPER PENINSULA PL SJ26 41.434314 -87.474014
03/21/2016 6:29 pm 500 BULL RUN SJ26
03/21/2016 3:03 pm WICKER AV & VENTURA DR SJ23 41.464281 -87.470364
03/21/2016 1:40 pm 10900 ONTARIO SJ25
03/21/2016 1:33 pm 10900 HURON SJ25
03/21/2016 1:22 pm 10900 WICKER AVE SJ25
03/21/2016 1:07 pm 10900 WICKER SJ25 CIT
03/21/2016 12:53 pm ONTARIO ST & W 109TH AV SJ25 41.421154 -87.471273 CIT
03/21/2016 12:39 pm 10900 Wicker Ave SJ25 CIT
03/21/2016 12:28 pm 10900 Huron SJ25 CIT
03/21/2016 12:13 pm 10900 wicker ave SJ25 CIT
03/21/2016 11:55 am 10900 Wicker Ave SJ25 WW
03/21/2016 11:45 am 10700 CLINE AV SJ23 41.424868 -87.431179
03/21/2016 11:41 am 10900 Wicker Ave SJ25 CIT
03/21/2016 11:09 am 9500 WICKER AV SJ25 41.445991 -87.470111 CIT
03/21/2016 10:54 am 101ST / WHITE OAK SJ23
03/21/2016 10:40 am 8126 WICKER AV; PRODUCE DEPOT SJ25 41.471434 -87.470393 CIT
03/20/2016 3:55 pm MONIX DR & W 93RD AV SJ25 41.450028 -87.491955 CIT
03/20/2016 11:33 am W 107TH AV & WHITE OAK AV SJ24 41.425204 -87.489324 CIT
03/19/2016 10:56 pm 9200 WICKER AV SJ17 41.453592 -87.470222
03/19/2016 10:36 pm 8400 WICKER AV SJ18 41.464281 -87.470364 VW
03/19/2016 9:52 pm W 85TH AV & PATTERSON ST SJ16 41.464506 -87.481488 WW
03/19/2016 9:03 pm BULL RUN / HEDWIG DR SJ18 CIT
03/19/2016 8:51 pm W 102ND AV & WHITE OAK AV SJ18 41.433370 -87.489295 CIT
03/19/2016 8:38 pm W 101ST AV & SADDLE CREEK DR SJ18 41.435592 -87.499938 WW
03/19/2016 8:24 pm W 101ST AV & WHITE OAK AV; JUST WEST SJ18 41.435563 -87.489287 WW
03/19/2016 12:26 pm 10700 WHITEOAK AVE SJ19
03/19/2016 12:16 pm 10700 WHITEOAK AVE SJ19
03/19/2016 12:00 pm 10100 WHITEOAK AVE SJ19
03/19/2016 11:46 am 10700 WHITEOAK AVE SJ19
03/19/2016 10:50 am 11700 CALUMET AVE SJ19
03/19/2016 10:25 am 231 & SCHNEIDER PL SJ19
03/19/2016 10:13 am 10900 WICKER AVE SJ19
03/19/2016 9:31 am 231&SCHNEIDER PL SJ19 CIT
03/19/2016 9:04 am 9600 WICKER AVE SJ19
03/19/2016 8:53 am 10400 WICKER AVE SJ19
03/19/2016 8:29 am 9700 WICKER AVE SJ19
03/19/2016 1:47 am 93RD AV SJ17 41.450131 -87.507993 CIT
03/19/2016 12:25 am E SCHNEIDER CT / 109th SJ17 CIT
03/18/2016 11:56 pm PRAIRIE West PARK SJ18
03/18/2016 8:49 pm 8400 WICKER AV SJ17 41.464281 -87.470364
03/18/2016 8:32 pm 9280 WICKER AV; WALGREENS #4276 SJ18 41.451133 -87.470187 WW
03/18/2016 8:26 pm 8400 WICKER AV SJ17 41.464281 -87.470364
03/18/2016 8:10 pm SCHNEIDER PL & W 109TH AV; 231 SJ18 41.421141 -87.468343 WW
03/18/2016 7:51 pm 8600 WICKER AV SJ17 41.461624 -87.470339 CIT
03/18/2016 6:49 pm 8500 WICKER AV SJ17 41.462715 -87.470350
03/18/2016 5:38 pm 8900 W 93RD AVE SJ19
03/18/2016 5:29 pm 8900 W 93RD AVE SJ19
03/18/2016 5:17 pm 8900 W 93RD AVE SJ19
03/18/2016 5:00 pm 8900 W 93RD AVE SJ19
03/18/2016 4:23 pm 9300 WHITEOAK AVE SJ19
03/18/2016 4:16 pm JOLIET ST & WICK SJ25 41.447742 -87.470138
03/18/2016 4:02 pm W 101ST AVE & WHITEOAK AVE SJ19
03/18/2016 3:32 pm W 109TH AVE & CALUMET AVE SJ19
03/18/2016 3:08 pm 14400 W 101ST AV SJ19 41.435635 -87.508349
03/18/2016 2:52 pm W109TH AVE& CALUMET AVE SJ19
03/18/2016 1:56 pm W101ST AVE&WHITEOAK AVE SJ19
03/18/2016 1:17 pm 9400 WICKER AVE SJ19
03/18/2016 1:05 pm 11033W 93RD AVE SJ19
03/18/2016 10:27 am W 90TH AV & PATTERSON ST SJ24 41.455863 -87.474706
03/18/2016 10:19 am WICKER AV & WALL ST SJ24 41.453043 -87.470213
03/18/2016 9:14 am 14500 W 101ST AV SJ12 41.435633 -87.509569
03/18/2016 4:42 am W 93RD AV & COLUMBIA AV SJ14 41.450881 -87.500558
03/17/2016 10:45 pm 8800 WICKER SJ14 41.458947 -87.470300
03/17/2016 9:48 pm 8400 WICKER AV; LAKE CENTRAL HIGH SCHOOL SJ26 41.464281 -87.470364
03/17/2016 4:19 pm W 93RD AV & MARQU SJ19 41.449792 -87.441074
03/17/2016 4:19 pm 8900 W 93RD AVE SJ19
03/17/2016 3:50 pm 8915 W 93RD AV; CLARK MIDDLE SCHOOL SJ19 41.449796 -87.443725
03/17/2016 3:17 pm 8400 WICKER AV SJ19 41.464281 -87.470364
03/17/2016 1:24 pm W 85TH AVE & JENNIFER CT SJ19
03/17/2016 1:21 pm W 93RD AV & OLCOTT AV SJ23 41.449974 -87.480663
03/17/2016 12:30 pm W 93RD PL & CALUMET AV SJ24 41.449399 -87.507845
03/17/2016 12:15 pm 10600 WHITE OAK AV SJ24 41.427178 -87.489314
03/17/2016 12:04 pm 10600 WHITE OAK AV SJ24 41.427178 -87.489314
03/17/2016 11:53 am W 101ST AV & CALUMET AV SJ24 41.435635 -87.508349
03/17/2016 10:54 am WHITE OAK AV & ROSEWOOD SJ24
03/17/2016 10:40 am 9700 WHITE OAK AV SJ24 41.442725 -87.489373
03/17/2016 10:23 am W 102ND AV & WHITE OAK AV SJ24 41.433370 -87.489295
03/17/2016 10:11 am W 101ST AV & CAL SJ24 41.435635 -87.508349
03/17/2016 9:56 am 9700 WHITE OAK AV SJ24 41.442725 -87.489373
03/17/2016 8:57 am W 93RD AV & COLUMBIA AV SJ24
03/17/2016 6:17 am W 109TH AV & FORESTDALE ST SJ19 41.421168 -87.473684
03/17/2016 5:44 am 8400 WICKER AV SJ23 41.464281 -87.470364
03/17/2016 1:48 am 8300 WICKER AV SJ26 41.466787 -87.470378
03/16/2016 7:20 pm W 97TH LN & W OAKRIDGE SJ26 41.442714 -87.477150 VW
03/16/2016 6:57 pm 9700 OLCOTT AV SJ26 41.442181 -87.478835 WW
03/16/2016 6:42 pm W 107TH AV & NORTHCOTE ST SJ26 41.425199 -87.484557
03/16/2016 4:18 pm 11800 CLINE AVE SJ25
03/16/2016 4:07 pm 10900 PARK PL SJ25 CIT
03/16/2016 3:55 pm 11000 CLINE AVE SJ25 WW
03/16/2016 3:41 pm 10900 CLINE AVE SJ25
03/16/2016 3:35 pm 8900 W 93RD AV SJ19 41.449796 -87.442718 CIT
03/16/2016 3:27 pm 10900 PARK PLACE SJ25 WW
03/16/2016 3:16 pm 10900 CLINE AVE SJ25 WW
03/16/2016 2:08 pm 11700 CLINE AVE SJ25 CIT
03/16/2016 1:52 pm 11700 CLINE AVE SJ25 CIT
03/16/2016 1:41 pm 11800 CLINE AVE SJ25
03/16/2016 1:27 pm 11700 CLINE AV SJ25 CIT
03/16/2016 1:17 pm 11700 CLINE AVE SJ25 WW
03/16/2016 1:04 pm 11800 cline ave SJ25
03/16/2016 12:50 pm 11700 cline ave SJ25
03/16/2016 8:45 am 9300 RENAISSANCE DR SJ19 41.449797 -87.446679 CIT
03/16/2016 8:44 am 9300 CLAIRMONTE SJ12 WW
03/16/2016 8:34 am 11600 WICKER AV SJ23
03/15/2016 6:42 pm PATTERSON ST & WALL ST SJ16 41.452823 -87.472087 WW
03/15/2016 2:18 pm 11990 HURON LAKE SJ17
03/15/2016 1:42 pm 13300 WICKER AVE SJ17
03/15/2016 1:20 pm 12900 WICKER AVE SJ17
03/15/2016 1:08 pm 12800 WICKER AVE SJ17
03/15/2016 12:55 pm 13400 WICKER AVE SJ17 CIT
03/15/2016 12:04 pm 9100 WICKER, SUBWAY SJ17 CIT
03/15/2016 11:43 am WALL N WICKER SJ17
03/15/2016 11:27 am 9600 WICKER SJ17 CIT
03/15/2016 10:59 am 9200 WICKER AVE SJ17 CIT
03/15/2016 10:44 am WALL AND WICKER AVE SJ17 CIT
03/15/2016 7:32 am 9400 CLAIRMONT SJ25 WW
03/15/2016 5:33 am 9500 us 41 SJ12
03/15/2016 1:38 am 9700 WICKER AV SJ24 41.443089 -87.470050
03/14/2016 10:56 pm 8575 WICKER AV; SPEEDWAY SJ12 41.461959 -87.470344
03/14/2016 9:19 pm WHITE OAK AV & W 101ST AV SJ16 41.435563 -87.489287
03/14/2016 9:03 pm W 101ST AV & SADDLE CREEK DR SJ24 41.435592 -87.499938
03/14/2016 8:41 pm BLUFF VIEW RD & ROLLING MEADOWS LN SJ16 41.434299 -87.503039
03/14/2016 7:57 pm 9400 JOLIET ST SJ12 41.441165 -87.450616
03/14/2016 7:35 pm 9300 WICKER AV SJ23 41.449967 -87.470171
03/14/2016 6:48 pm 107TH AND OLCOTT SJ23
03/14/2016 6:32 pm 109TH AND ONTARIO SJ23
03/14/2016 6:24 pm US 231 AND SCHNEIDER SJ23
03/14/2016 6:15 pm 109TH AND OLCOTT SJ23
03/14/2016 1:49 pm 105TH PL AN BAILEY SJ23
03/14/2016 1:30 pm 8500 WICKER SJ23
03/14/2016 12:58 pm 109TH AND HILLCREST SJ23
03/14/2016 12:50 pm 109th and HILLCREST SJ23
03/14/2016 12:37 pm W 109TH AV & HILLCREST LN SJ23 41.421205 -87.496638
03/14/2016 12:10 pm 9200 PATTERSON ST SJ23 41.452344 -87.471852
03/14/2016 8:17 am 8500 WICKER AV SJ18 41.462715 -87.470350
03/13/2016 11:41 pm 9700 WICKER AV SJ21 41.443089 -87.470050
03/13/2016 11:01 pm 9200 WICKER AV SJ21 41.453592 -87.470222
03/13/2016 10:14 pm 7700 WICKER AV SJ21 41.478956 -87.470527
03/13/2016 8:26 pm HEDWIG AV & VALLEY CT SJ26 41.437190 -87.474046
03/13/2016 7:33 pm 9500 WICKER AV SJ26 41.445991 -87.470111
03/13/2016 12:37 pm 9100 WICKER SJ14 41.454931 -87.470241 CIT
03/13/2016 11:23 am 10200 OLCOTT SJ19 41.433927 -87.481103 CIT
03/13/2016 10:32 am W 109TH AV & C SJ19 41.420910 -87.431171
03/13/2016 9:27 am W 107TH AV & O SJ19 41.424932 -87.481142 CIT
03/13/2016 8:09 am 9500 WICKER AV SJ19 41.445991 -87.470111 CIT
03/13/2016 3:02 am 7800 WICKER AV SJ21 41.475903 -87.470459
03/12/2016 9:23 pm WINDSONG WAY SJ4 41.433651 -87.497888
03/12/2016 9:20 pm W 107TH AV & GOLDEN GROVE AV SJ21 41.424897 -87.496226
03/12/2016 4:57 pm PARK PL SJ26 41.422740 -87.441265 WW
03/12/2016 3:52 pm W 101ST AV & WHITE SJ19 41.435563 -87.489287
03/12/2016 3:37 pm 9500 WHITE OAK AV SJ19 41.446362 -87.489428
03/12/2016 3:16 pm 8800 WICKER AV SJ14 41.458947 -87.470300 CIT
03/12/2016 3:04 pm 8600 WICKER AV; KOHLING SJ17 41.461624 -87.470339 CIT
03/12/2016 2:40 pm 13400 WICKER AV SJ17 41.374282 -87.470031 CIT
03/12/2016 2:30 pm 14200 WICKER AV SJ17 41.361445 -87.469900 CIT
03/12/2016 2:17 pm 13500 WICKER AV SJ17 41.372894 -87.470001 CIT
03/12/2016 2:08 pm 13400 WICKER AV SJ17 41.374282 -87.470031 CIT
03/12/2016 1:39 pm 13100 WICKER AV SJ17 41.380992 -87.470024 CIT
03/12/2016 1:31 pm 13500 WICKER AV SJ17 41.372894 -87.470001 CIT
03/12/2016 1:13 pm 12500 WICKER AV SJ17 41.391919 -87.470025 CIT
03/12/2016 12:47 pm WALL ST & WICKER AV SJ17 41.453043 -87.470213 WW
03/12/2016 12:21 pm WALL ST & WICKER SJ17 41.453043 -87.470213 CIT
03/12/2016 12:07 pm 9200 WICKER AV SJ17 41.453592 -87.470222 CIT
03/12/2016 11:54 am 8600 WICKER AV SJ17 41.461624 -87.470339 CIT
03/12/2016 11:45 am W 109TH AV & CALUMET AV SJ19 41.421141 -87.508266 WW
03/12/2016 11:41 am 8500 WICKER AV SJ17 41.462715 -87.470350
03/12/2016 11:28 am 9500 wicker SJ17 CIT
03/12/2016 7:46 am WICKER AND VENTURA SJ23
03/12/2016 7:29 am WICKER AV & VENT SJ23 41.464281 -87.470364
03/12/2016 4:12 am 8600 WICKER AV SJ26 41.461624 -87.470339
03/12/2016 3:35 am 8100 WICKER AV SJ21
03/12/2016 2:30 am 8200 WICKER AV SJ26 41.469318 -87.470392
03/11/2016 11:00 pm 7800 WICKER AV SJ21
03/11/2016 8:10 pm W 85TH AV & PATTERSON ST SJ21 41.464506 -87.481488
03/11/2016 4:17 pm 10600 WHITE OAK AV SJ19 41.427178 -87.489314
03/11/2016 3:44 pm 9100 W 93RD AV SJ19 41.450808 -87.452756
03/11/2016 2:52 pm W 85TH AV & WICKER AV SJ19 41.462715 -87.470350
03/11/2016 2:18 pm 11000 W 93RD AV SJ19 41.449956 -87.468941
03/11/2016 2:04 pm WALL ST & PATTERSON ST SJ23 41.452823 -87.472087
03/11/2016 11:48 am W 81ST AV & PATTERSON AV SJ24 41.471726 -87.485009
03/11/2016 11:33 am W 85TH AV & PATT SJ24 41.464506 -87.481488 CIT
03/11/2016 10:19 am 93RD AV & CALU SJ24 41.450132 -87.507827 WW
03/11/2016 10:11 am W 101ST AV & WHIT SJ24 41.435563 -87.489287
03/11/2016 9:57 am W 93RD AV & COL SJ24 41.450881 -87.500558 CIT
03/11/2016 9:48 am 10600 WHITE OAK DR SJ24 WW
03/11/2016 9:32 am 93RD AV & CALU SJ24 41.450132 -87.507827 CIT
03/11/2016 9:02 am BIRCHBROOK DR & SUN SJ24 41.433599 -87.499785 CIT
03/11/2016 8:40 am 9200 W 93RD AV SJ19 41.450902 -87.453235
03/11/2016 8:33 am 9500 WICKER AV SJ24 41.445991 -87.470111 CIT
03/11/2016 8:33 am 9500 WICKER AV SJ24 41.445991 -87.470111
03/11/2016 8:06 am 8801 WIC SJ24 41.458933 -87.470299 CIT
03/11/2016 7:30 am 9200 WICKER AV SJ24 41.453592 -87.470222 WW
03/11/2016 7:28 am W 105TH ST & WHITE O SJ14 41.429197 -87.489325 CIT
03/11/2016 7:11 am W 105TH ST & WHIT SJ14 41.429197 -87.489325 CIT
03/11/2016 7:02 am W 83RD PL & PATT SJ24 41.469357 -87.484956 CIT
03/11/2016 6:54 am KNICKERBOCKER PL & HERON LAKE RD SJ23 41.468974 -87.476799
03/11/2016 6:53 am 8400 WICKER AV; LAKE CENTRAL HIGH SCHOOL SJ24 41.464281 -87.470364
03/11/2016 6:43 am JOLIET ST & THIELEN ST SJ13 41.446138 -87.467390
03/11/2016 6:20 am 8400 WICKER AV SJ24 41.464281 -87.470364
03/11/2016 6:07 am W 105TH ST & SIEDLEMANN CT SJ24 41.429003 -87.482485
03/11/2016 5:15 am SJ23
03/10/2016 11:23 pm 7000 101st SJ17
03/10/2016 9:26 pm W 97TH LN & WICKER AV SJ365 41.441590 -87.470028
03/10/2016 9:02 pm 8200 WICKER AV SJ24 41.469318 -87.470392
03/10/2016 8:50 pm 10300 WICKER AV SJ24 41.431350 -87.470039
03/10/2016 8:33 pm 9700 WICKER AV SJ24 41.443089 -87.470050
03/10/2016 8:31 pm 11900 WICKER AV SJ17 41.402878 -87.470053
03/10/2016 7:41 pm 9200 WICKER AV SJ17 41.453592 -87.470222
03/10/2016 7:08 pm 8400 WICKER AV SJ17 41.464281 -87.470364
03/10/2016 1:30 pm HILLTOP DR & W 93RD AV SJ343 41.450000 -87.487793
03/10/2016 1:06 pm 8900 COLUMBIA AV SJ343 41.458148 -87.498806
03/10/2016 12:40 pm 8400 WICKER AV SJ343 41.464281 -87.470364
03/10/2016 12:18 pm 9200 WICKER SJ23
03/10/2016 12:05 pm WALL AND WICKER SJ23
03/10/2016 11:56 am 9200 WICKER SJ23
03/10/2016 11:40 am 9600 WICKER SJ23
03/10/2016 11:31 am 8400 WICKER SJ23
03/10/2016 11:13 am HILLTOP DR & W 93RD AV SJ343 41.450000 -87.487793
03/10/2016 11:13 am 9500 WICKER SJ23
03/10/2016 10:56 am 9000 patterson SJ25
03/10/2016 10:45 am 8500 PATTERSON ST SJ25 41.464531 -87.481506
03/10/2016 10:40 am SJ343
03/10/2016 10:24 am 93RD AVE AND SCHILLTON SJ23
03/10/2016 9:47 am 109TH AND OLCOTT SJ23
03/10/2016 9:37 am 101ST AND WHITE OAK SJ23
03/10/2016 9:02 am 9280 WICKER SJ23
03/10/2016 8:45 am 9400 WICKER AV; ST JOHN EVANGELIST SCHOOL SJ23 41.447998 -87.470142
03/10/2016 8:21 am 8700 WICKER AV SJ23 41.460285 -87.470319
03/09/2016 10:51 pm 77TH AV & WICKER SJ24
03/09/2016 10:39 pm W 109TH AV & MANOR DR SJ24 41.421247 -87.487135
03/09/2016 10:18 pm JOLIET ST & WICKER AV SJ24 41.447742 -87.470138
03/09/2016 9:17 pm 8600 wicker ave SJ25
03/09/2016 9:08 pm 8500 WICKER AV SJ25 41.462715 -87.470350
03/09/2016 8:54 pm 8600 WICKER AV SJ25 41.461624 -87.470339
03/09/2016 8:30 pm 9500 WICKER AV SJ25 41.445991 -87.470111
03/09/2016 8:10 pm 11033 W 93RD AV; PD SJ25 41.449958 -87.469145
03/09/2016 7:50 pm 8200 WICKER AV SJ24 41.469318 -87.470392
03/09/2016 7:48 pm 10500 WHITE OAK AV SJ25 41.429191 -87.489305
03/09/2016 6:57 pm 9500 WICKER SJ25 41.445991 -87.470111
03/09/2016 6:28 pm 9000 PATTERSON ST SJ25 41.455863 -87.474706
03/09/2016 6:10 pm 9500 WICKER AV SJ17 41.445991 -87.470111
03/09/2016 6:05 pm 8500 PATTERSON ST SJ25 41.464531 -87.481506
03/09/2016 5:53 pm 8800 patterson SJ25 WW
03/09/2016 2:31 pm W 85TH AV & MAGNOLIA ST SJ15 41.464537 -87.497139 CIT
03/09/2016 1:37 pm 9600 WHITE OAK AV SJ15 41.444525 -87.489400
03/09/2016 12:47 pm 8800 PATTERSON ST SJ16 41.459071 -87.478294 WW
03/09/2016 7:26 am WICKER AV & WALL ST SJ1 41.453043 -87.470213
03/09/2016 7:26 am 94th & claremont SJ16
03/08/2016 6:10 pm 9300 WHITE OAK AV SJ25 41.450009 -87.489482
03/08/2016 5:56 pm 9300 WHITE OAK AV SJ25 41.450009 -87.489482
03/08/2016 5:22 pm 8500 PATTERSON ST SJ25 41.464531 -87.481506 CIT
03/08/2016 2:46 pm 93rd & claremont av SJ23
03/08/2016 2:32 pm W 93RD AV & CLARMONTE DR SJ23 41.449796 -87.449160
03/08/2016 2:28 pm W 101ST AV & WHITE OAK AV SJ21 41.435563 -87.489287
03/08/2016 1:17 pm 9500 berkley ln SJ12
03/08/2016 11:53 am 8600 PARRISH AV SJ23 41.462823 -87.451046
03/08/2016 7:57 am 9600 WHITE OAK AV SJ23 41.444525 -87.489400
03/08/2016 7:43 am W 102ND AV & WHITE OAK AV SJ23 41.433370 -87.489295
03/08/2016 12:11 am W 90TH LN SJ4 41.455750 -87.448864
03/07/2016 8:26 pm 8400 WICKER AV SJ19 41.464281 -87.470364
03/07/2016 8:14 pm 9400 WICKER AV SJ19 41.447998 -87.470142
03/07/2016 3:13 pm W 101ST AV & WHITE OAK AV SJ24
03/07/2016 3:00 pm W 93RD AV & OLCOTT AV SJ24 41.449974 -87.480663
03/07/2016 2:54 pm 9600 WHITE OAK AV SJ24 41.444525 -87.489400
03/07/2016 2:38 pm W 101ST AV & WHITE OAK AV SJ24 41.435563 -87.489287 CIT
03/07/2016 2:36 pm 9600 CLAREMONTE DR SJ23 41.444143 -87.450542
03/07/2016 2:20 pm 101 / WHITE OAK SJ24
03/07/2016 2:07 pm JOLIET / VERSELLI SJ23
03/07/2016 1:48 pm 9500 WHITE OAK AV SJ23
03/07/2016 12:38 pm 87TH / PATTERSON SJ24 CIT
03/07/2016 12:03 pm W 93RD AV & W OAKRIDGE DR SJ24 41.449989 -87.478157 CIT
03/07/2016 11:53 am W 93RD AV & W OAKRIDGE DR SJ24 41.449989 -87.478157 CIT
03/07/2016 11:32 am 108TH PL & MALOIAN DR SJ24 41.422028 -87.485840
03/07/2016 11:04 am W 101ST AV & SADDLE CREEK DR SJ24 41.435592 -87.499938
03/07/2016 10:33 am 8200 WICKER AV SJ24 41.469318 -87.470392
03/07/2016 10:08 am 101 / SADDLECREEK DR SJ24 WW
03/07/2016 9:57 am KOLLING / 85TH SJ23
03/07/2016 9:53 am W 101ST AV & WELLINGTON CT E SJ24 41.435574 -87.493895
03/07/2016 8:04 am 9600 CLAREMONTE DR SJ12 41.444143 -87.450542
03/07/2016 12:42 am 9300 WICKER AV SJ17 41.449967 -87.470171
03/06/2016 11:55 pm W 109TH AV & SCHNEIDER PL SJ17 41.421141 -87.468343
03/06/2016 8:26 pm 8600 WICKER AV SJ17 41.461624 -87.470339
03/06/2016 7:54 pm W 109TH AV & WICKER AV SJ17 41.421149 -87.470100
03/06/2016 3:54 pm WALL ST & WICKER AV SJ66 41.453043 -87.470213 WW
03/06/2016 3:39 pm E OAKWOOD DR & PATTERSON ST SJ66 41.459686 -87.478444 WW
03/06/2016 12:41 pm 9300 WICKER AV SJ24 41.449967 -87.470171 WW
03/06/2016 8:07 am 9500 blk wicker SJ24
03/06/2016 6:34 am 8200 WICKER AV SJ24 41.469318 -87.470392
03/06/2016 6:16 am W 109TH AV & HILLCREST LN SJ24 41.421205 -87.496638
03/06/2016 3:04 am 8500 PATTERSON ST SJ25 41.464531 -87.481506
03/06/2016 12:07 am FORESTDALE ST & W 109TH AV SJ25 41.421168 -87.473684
03/05/2016 10:58 pm 8200 WICKER AV; SB SJ14 41.469318 -87.470392
03/05/2016 10:46 pm W 82ND LN & WICKER AV SJ14 41.469318 -87.470392
03/05/2016 10:45 pm 8700 WICKER AV SJ25 41.460285 -87.470319
03/05/2016 9:56 pm 8300 PATTERSON ST SJ25 41.469357 -87.484956
03/05/2016 9:37 pm 9700 WICKER AV SJ14 41.443089 -87.470050
03/05/2016 9:03 pm W 109TH AV & FORESTDALE ST SJ18 41.421168 -87.473684
03/05/2016 7:13 pm 8500 PATTERSON ST SJ25 41.464531 -87.481506
03/05/2016 4:06 pm W 90TH AV & PATTERSON ST SJ25 41.455863 -87.474706
03/05/2016 3:39 pm W 90TH AV & PATTERSON ST SJ25 41.455863 -87.474706 CIT
03/05/2016 3:24 pm 8500 PATTERSON ST SJ25 41.464531 -87.481506
03/05/2016 3:11 pm E OAKWOOD DR & PATTERSON ST SJ25 41.459686 -87.478444
03/05/2016 2:26 pm 8900 PATTERSON ST SJ25 41.455943 -87.474813
03/05/2016 1:58 pm W 90TH AV & PATTERSON ST SJ25 41.455863 -87.474706 CIT
03/05/2016 1:38 pm 8300 PATTERSON ST SJ25 41.469357 -87.484956
03/05/2016 1:24 pm 8500 PATTERSON ST SJ25 41.464531 -87.481506
03/05/2016 12:54 pm WALL ST & PATTERSON ST SJ25 41.452823 -87.472087
03/04/2016 10:55 pm 9700 WICKER AV SJ25 41.443089 -87.470050
03/04/2016 9:41 pm 8600 WICKER AV SJ18 41.461624 -87.470339
03/04/2016 8:14 pm 8267 WICKER AV; LIVIO'S RESTAURANT SJ25 41.467623 -87.470383
03/04/2016 7:57 pm 8500 WICKER AV SJ17 41.462715 -87.470350
03/04/2016 7:42 pm PARK ST & E 109TH AV SJ25 41.420281 -87.243847
03/04/2016 6:54 pm FORREST DR & PATTERSON SJ18 41.458455 -87.478144
03/04/2016 4:16 pm 109TH AND OLCOTT SJ23
03/04/2016 4:04 pm 10800 OLCOTT SJ343 41.423403 -87.481327 CIT
03/04/2016 3:51 pm 9500 WHITE OAK SJ23
03/04/2016 3:34 pm 93RD AVE AND KEILMAN SJ23
03/04/2016 3:01 pm 7700 BLOCK OF WICKER SJ23
03/04/2016 2:38 pm 101ST AND EARL DR. SJ23
03/04/2016 2:18 pm WALL ST & WIC SJ343 41.453043 -87.470213
03/04/2016 2:13 pm WALL ST & WIC SJ343 41.453043 -87.470213 VW
03/04/2016 2:10 pm 109TH AND CALUMET SJ23
03/04/2016 2:01 pm 9200 ST JOHN CROSSING SJ343
03/04/2016 2:00 pm 13500 BLOCK OF W. 109TH AVE SJ23
03/04/2016 1:40 pm WICKER AVE AT KELLY DR SJ23
03/04/2016 1:24 pm 109TH AND HILLCREST SJ23
03/04/2016 1:01 pm BINGO LAKE / FARMINGTON SJ23
03/04/2016 12:58 pm BINGO LAKE AND FARMINGTON SJ23
03/04/2016 12:56 pm 9600 WICKER AV SJ343 41.443973 -87.470069
03/04/2016 11:50 am 9500 WICKER AV SJ343 41.445991 -87.470111
03/04/2016 11:42 am NORTHCOTE DR & W 106TH CT SJ12 41.425773 -87.484555
03/04/2016 11:13 am W 101ST AV & WHITE OAK AV SJ343 41.435563 -87.489287
03/04/2016 11:04 am W 93RD AV & W OAKRIDGE DR SJ24 41.449989 -87.478157
03/04/2016 10:53 am WHITE OAK / ROSEWOOD SJ343
03/04/2016 10:49 am 9300 CLAREMONTE SJ12
03/04/2016 10:32 am HILLTOP DR & W 93RD AV SJ343 41.450000 -87.487793
03/04/2016 10:23 am 94TH / CLAREMONTE SJ12
03/04/2016 10:20 am 9300 WHITE OAK AV SJ343 41.450009 -87.489482
03/04/2016 9:58 am W 101ST AV & WHITE OAK AV SJ343 41.435563 -87.489287
03/04/2016 9:31 am 9500 WICKER SJ343 41.445991 -87.470111
03/04/2016 1:36 am HART ST & JOL SJ14 41.442976 -87.461448
03/03/2016 2:36 pm 9300 WHITE OAK AV SJ25 41.450009 -87.489482
03/03/2016 2:21 pm 9500 WHITE OAK AV SJ25 41.446362 -87.489428 WW
03/03/2016 10:32 am 8500 PATTERSON ST SJ25 41.464531 -87.481506 WW
03/03/2016 9:50 am 9300 CLARMONTE DR SJ25 41.449796 -87.449160
03/03/2016 9:43 am 9280 WICKER AV SJ23 41.451133 -87.470187
03/03/2016 9:35 am E OAKWOOD DR & PATTERSON ST SJ23 41.459686 -87.478444
03/03/2016 9:24 am WILDWOOD DR & PATTERSON ST SJ23 41.463196 -87.480041
03/03/2016 9:14 am E OAKWOOD DR & PATTERSON ST SJ23 41.459686 -87.478444
03/03/2016 1:12 am 10200 WICKER AV SJ14 41.435026 -87.470008
03/02/2016 11:18 pm W 77TH AV & W SJ19 41.478956 -87.470527
03/02/2016 10:13 pm 10900 WICKER SJ19
03/02/2016 11:38 am SCHILLTON DR & JAMES DR SJ23 41.456693 -87.492151
03/02/2016 8:18 am 8400 blk BROADWAY SJ19 CIT
03/02/2016 1:14 am W 85TH AV & WICKER AV SJ18 41.462715 -87.470350
03/02/2016 12:36 am VENTURA DR & WICKER AV SJ18 41.464281 -87.470364
03/01/2016 10:36 pm SCHNEIDER PL & W 109TH AV SJ18 41.421141 -87.468343
03/01/2016 10:44 am WALL ST & WICKER AVE SJ25
03/01/2016 10:44 am 9400 CLARMONTE DR SJ12 41.448153 -87.449027
03/01/2016 7:36 am 9300 CLARMONTE DR SJ25 41.449796 -87.449160
03/01/2016 7:05 am 9600 CLARMONTE DR SJ25
02/29/2016 3:55 pm WICKER AV; #7739-7799,7801-7899,8110-8148 SJ25 41.422054 -87.470096
02/29/2016 3:09 pm HEATHER CT & VENTU SJ25 41.462775 -87.474927
02/29/2016 11:58 am 10800 WICKER A SJ66 41.422959 -87.470092
02/29/2016 10:54 am 9500 WICKER SJ25 41.445991 -87.470111
02/29/2016 10:36 am 9600 WICKER SJ25 41.443973 -87.470069
02/29/2016 10:32 am 10800 WICKER AV SJ66 41.422959 -87.470092
02/29/2016 9:48 am 8100 PATTERSON ST SJ25 41.468955 -87.484669
02/29/2016 9:30 am 8500 PATTERSON ST SJ25 41.464531 -87.481506
02/29/2016 9:17 am 9200 PATTERSON ST SJ25 41.452344 -87.471852
02/29/2016 8:18 am SCHOOL ST & KEILMAN SJ16 41.447734 -87.472480
02/29/2016 7:58 am 9500 CLAREMONT SJ25
02/29/2016 7:30 am 9300 CLAREMONT SJ25
02/29/2016 7:18 am 9400 CLAREMONT SJ25
02/29/2016 1:54 am 11700 W 93RD AV SJ26 41.449987 -87.476751
02/29/2016 12:48 am 9800 WICKER AV SJ26 41.441083 -87.470022 WW
02/28/2016 11:06 pm 11700 W 93RD AV SJ19 41.449987 -87.476751
02/28/2016 10:20 pm 9600 WICKER AV SJ26 41.443973 -87.470069 WW
02/28/2016 8:49 pm 93RD AV/IN FRONT OF PD SJ19
02/28/2016 8:36 pm 9200 WICKER AV SJ19 41.453592 -87.470222
02/28/2016 8:22 pm 9500 WICKER AV SJ19 41.445991 -87.470111
02/28/2016 7:27 pm 9500 OLCOTE AV SJ26 WW
02/28/2016 7:16 pm W 97TH AV/NORTHCOTE SJ26 WW
02/28/2016 6:41 pm 9400 WICKER AV SJ19 41.447998 -87.470142
02/28/2016 6:33 pm 9400 OLCOTT AV SJ26 41.449025 -87.480210
02/28/2016 6:24 pm W 90TH AV & PATTERSON ST SJ19 41.455863 -87.474706
02/28/2016 5:41 pm 9500 WICKER SJ19 41.445991 -87.470111
02/28/2016 10:39 am WICKER AV & VENTURA DR SJ23 41.464281 -87.470364
02/28/2016 7:17 am W 77TH AV & WICKER AV SJ23 41.478956 -87.470527
02/28/2016 3:11 am w 85th av; just east of wicker SJ26 CIT
02/27/2016 11:50 pm 9400 JOLIET ST SJ19 41.441165 -87.450616
02/27/2016 11:35 pm JOLIET ST & THIELEN ST; JUST PAST THIELEN SJ365 41.446138 -87.467390
02/27/2016 11:25 pm 9200 WICKER AV SJ19 41.453592 -87.470222
02/27/2016 11:12 pm 8500 WICKER AV SJ365 41.462715 -87.470350
02/27/2016 10:22 pm 9300 BELMONT AV SJ19 41.449965 -87.483809
02/27/2016 10:09 pm 9200 WICKER AV SJ365 41.453592 -87.470222
02/27/2016 8:57 pm 9400 WICKER AV SJ365 41.447998 -87.470142
02/27/2016 8:46 pm 8100 WICKER AV SJ19 41.471886 -87.470393
02/27/2016 8:27 pm 9800 OLCOTT AV SJ26 41.440244 -87.478804
02/27/2016 8:06 pm 9700 WICKER AV SJ26 41.443089 -87.470050
02/27/2016 7:42 pm W 109TH AV & E SCHNEIDER CT SJ365 41.421136 -87.467561
02/27/2016 6:12 pm BULLRUN & HEDWIG SJ26
02/27/2016 11:52 am W 109TH AV; E OF CALUMET SJ23 41.421213 -87.495438
02/27/2016 8:47 am W 93RD AV & MONIX D SJ23 41.450028 -87.491955
02/27/2016 8:26 am 9700 WICKER AV SJ14 41.443089 -87.470050
02/27/2016 1:28 am 7600 WICKER AV SJ26
02/27/2016 12:49 am 8400 WICKER AV SJ19 41.464281 -87.470364
02/27/2016 12:07 am W 90TH AV & RANDAL ST SJ19 41.455411 -87.497188
02/26/2016 7:31 pm THREE SPRINGS DR & JOLIET ST SJ19 41.442090 -87.456412
02/25/2016 4:10 pm 9500 WICKER AV SJ15 41.445991 -87.470111
02/25/2016 12:36 pm 8500 WICKER AV SJ1 41.462715 -87.470350
02/25/2016 10:54 am PARK PL & W 109TH SJ25 41.420989 -87.441287
02/24/2016 7:03 am 9300 claremonte SJ25
02/23/2016 9:09 pm 9300 BLK WICKER SJ14
02/23/2016 7:45 pm 9800 BLK WICKER SJ23
02/23/2016 6:51 pm 9600 CLAREMONTE DR SJ26 41.444143 -87.450542
02/23/2016 3:52 pm 8800 W 93RD SJ19 41.449792 -87.441074
02/23/2016 11:55 am 9600 WICKER SJ19 41.443973 -87.470069
02/23/2016 7:26 am 12200 W 83RD PL SJ19 41.468125 -87.482873
02/23/2016 7:02 am 12300 W 83RD SJ19 41.468896 -87.483910
02/23/2016 1:27 am WHEELER PL & W 85TH PL SJ14 41.463591 -87.414153
02/22/2016 9:53 pm 8300 WICKER AV SJ26 41.466787 -87.470378
02/22/2016 1:19 am 8200 WICKER AV SJ24 41.469318 -87.470392
02/22/2016 1:07 am W 93RD AV & WICKER AV SJ24 41.449967 -87.470171
02/21/2016 10:18 pm W 109TH & OLCOTT SJ365
02/21/2016 8:57 pm W 93RD AV & WICKER AV SJ365 41.449967 -87.470171
02/21/2016 7:32 pm W 97TH LN & PHEASANT LN SJ365 41.441077 -87.471281
02/21/2016 6:44 pm W 101ST AV & BLUFF VIEW RD SJ365 41.435603 -87.505416
02/21/2016 3:50 pm 9200 WICKER AV SJ343 41.453592 -87.470222 WW
02/21/2016 2:12 pm TAPPER ST & COLUMBIA AV SJ343 41.452758 -87.500079 WW
02/21/2016 12:54 pm 13200 W 109TH AV SJ66 41.422939 -87.500622
02/21/2016 12:36 pm 12800 109TH Ave SJ66 CIT
02/21/2016 10:55 am 7600 wicker av SJ343
02/21/2016 10:41 am 9400 WICKER AV SJ343 41.447998 -87.470142
02/21/2016 8:33 am 9600 WICKER AV SJ343 41.443973 -87.470069
02/21/2016 7:27 am WICKER AV & WALL ST SJ18 41.453043 -87.470213
02/21/2016 3:51 am W 109TH AV; 12300 BLK SJ25 41.421213 -87.495438
02/20/2016 10:35 am 8400 WICKER AV SJ18 41.464281 -87.470364
02/20/2016 7:44 am 231 / SCHNEIDER SJ18
02/20/2016 6:23 am 8400 WICKER AV SJ17 41.464281 -87.470364
02/20/2016 2:50 am 8575 WICKER AV; SPEEDWAY LOT SJ24 41.461959 -87.470344
02/19/2016 11:18 pm WALL ST & WICKER AV SJ12 41.453043 -87.470213
02/19/2016 7:07 pm 8400 WICKER AV; NB SJ365 41.464281 -87.470364
02/19/2016 6:33 pm W 109TH AV & WICKER AV; 231 SJ365 41.421149 -87.470100 VW
02/19/2016 6:23 pm W 109TH AV & SCHNEIDER PL SJ365 VW
02/19/2016 5:35 pm RENAISSANCE DR & W 93RD AV SJ365 41.449797 -87.446679 CIT
02/19/2016 5:22 pm 8400 WICKER AV; NB SJ365 41.464281 -87.470364 WW
02/19/2016 3:18 pm 9200 WICKER AV; SB SJ365 41.453592 -87.470222
02/19/2016 2:36 pm 12100 GOLDEN ROD PL SJ66
02/19/2016 2:35 pm OLCOTT AV & W 103RD CT SJ1 41.431781 -87.481105
02/19/2016 2:22 pm 9200 WICKER AV; SB SJ365 41.453592 -87.470222
02/19/2016 2:00 pm 9200 WICKER AV SJ17 41.453592 -87.470222 CIT
02/19/2016 1:38 pm W 93RD AV & SCHAFER DR SJ1 41.449796 -87.442718 WW
02/19/2016 1:12 pm 9200 WICKER AV SJ17 41.453592 -87.470222
02/19/2016 1:12 pm 9600 WHITE OAK AV SJ1
02/19/2016 12:54 pm E OAKRIDGE DR SJ66 41.439935 -87.474431
02/19/2016 12:32 pm ROSEWOOD / WHITEOAK SJ1 WW
02/19/2016 12:28 pm FRANCISICAN CLINIC SJ66
02/19/2016 7:58 am SJ17
02/19/2016 7:40 am 9885 WICKER AV; TARGET SJ17 41.439647 -87.470007 CIT
02/18/2016 9:02 pm W 93RD AV & MONIX DR SJ14 41.450028 -87.491955
02/18/2016 6:38 pm 9700 CLAIRMONTE SJ26 CIT
02/18/2016 6:22 pm 9300 CLAIRMONTE SJ26 WW
02/18/2016 6:14 pm 9600 CLAREMONTE SJ26 41.444143 -87.450542 VW
02/18/2016 5:42 pm 9600 CLAREMONTE SJ26 41.444143 -87.450542 CIT
02/18/2016 3:23 pm W 97TH LN & OLCOTT AV SJ23 41.442529 -87.478840
02/18/2016 3:06 pm W 97TH AV & WICK SJ23 41.441590 -87.470028
02/18/2016 1:27 am 9400 WICKER AV SJ14 41.447998 -87.470142
02/17/2016 7:43 pm 9500 WICKER AV SJ26 41.445991 -87.470111
02/17/2016 6:50 pm 9400 WICKER AV SJ26 41.447998 -87.470142
02/17/2016 2:55 pm WHITE OAK / ROSEWOOD SJ23 CIT
02/17/2016 7:58 am 9400 WICKER AV SJ19 41.447998 -87.470142
02/16/2016 5:38 pm 11300 CLINE AV SJ25
02/16/2016 2:01 pm W 97TH LN & OLCOTT AV SJ17 41.442529 -87.478840 CIT
02/16/2016 1:20 pm 8400 WICKER AV SJ17 41.464281 -87.470364 CIT
02/16/2016 11:21 am W 85TH AV & WICKER AV SJ17 41.462715 -87.470350 CIT
02/16/2016 10:51 am 8000 WICKER SJ17 VW
02/16/2016 8:55 am W 85TH AV & PRIMROSE DR SJ18 41.464508 -87.487911
02/16/2016 8:53 am 9200 WICKER AV SJ17 41.453592 -87.470222 CIT
02/15/2016 4:32 pm ROSEWOOD CT & PRIMR SJ17 41.463143 -87.487872 WW
02/15/2016 4:14 pm 8600 PRIMROSE DR SJ17 41.463256 -87.487876
02/15/2016 3:50 pm W 87TH AV & PRI SJ17 41.460848 -87.487808 WW
02/15/2016 2:17 pm W 83RD PL & HERON LAKE RD SJ24 41.467357 -87.481887 WW
02/15/2016 2:11 pm 8500 WICKER AV SJ17 41.462715 -87.470350
02/15/2016 1:57 pm VENTURA DR & HEAT SJ24 41.462775 -87.474927
02/14/2016 9:59 pm 9200 WICKER AV; SB SJ4 41.453592 -87.470222
02/14/2016 10:55 am 8801 WICKER AV; KOLLING SCHOOL SJ14 41.458933 -87.470299
02/14/2016 10:25 am W 109TH AV & HILLCREST LN SJ23 41.421205 -87.496638
02/14/2016 5:25 am 9500 WICKER AV SJ14 41.445991 -87.470111
02/14/2016 1:51 am 10600 OLCOTT AV SJ26 41.427195 -87.481126
02/14/2016 12:46 am 10500 WICKER AV SJ26 41.428395 -87.470062
02/13/2016 11:43 pm 9200 WICKER AV SJ19 41.453592 -87.470222
02/13/2016 10:57 pm 10100 WICKER AV SJ26 41.436091 -87.469997
02/13/2016 8:24 pm 9700 OLCOTT AV SJ26 41.442181 -87.478835
02/13/2016 7:56 pm 9300 CLAREMONT DR SJ4
02/13/2016 7:46 pm 9900 OLCOTT AV SJ26 41.438624 -87.479369
02/13/2016 7:42 pm 9500 CLAIRMONT SJ4
02/13/2016 7:24 pm 9400 WICKER AV; DQ LOT SJ19 41.447998 -87.470142
02/13/2016 7:08 pm 9800 OLCOTT AV SJ26 41.440244 -87.478804
02/13/2016 6:58 pm 8400 PATTERSON ST SJ19 41.466944 -87.483231
02/13/2016 6:54 pm DRIVEWAY OLCOTT West OF NORTHCOTE SJ26
02/13/2016 6:29 pm 9900 OLCOTT AV SJ26 41.438624 -87.479369
02/13/2016 6:00 pm PRIMROSE DR; 8500 BLK SJ19 41.458890 -87.487778
02/13/2016 5:40 pm W 85TH AV & PATTERSON ST SJ19 41.464506 -87.481488
02/13/2016 1:53 pm 10400 ADLER CV SJ14 41.429673 -87.441407 CIT
02/13/2016 11:24 am KELLY DR & WICKER AV SJ23 41.462025 -87.470344
02/13/2016 10:52 am WALL ST & WICKER AV SJ23 41.453043 -87.470213
02/13/2016 10:44 am 9300 WICKER AV SJ23 41.449967 -87.470171
02/13/2016 8:57 am W 109TH AV & PARK PL; 231 SJ23 41.420989 -87.441287
02/13/2016 8:34 am 9500 WICKER AV SJ14 41.445991 -87.470111 CIT
02/13/2016 8:33 am W 85TH AV & WINDING TRAIL SJ23 41.464348 -87.460495
02/12/2016 11:48 pm 10400 OLCOTT AV SJ26 41.430593 -87.481111
02/12/2016 10:31 pm 11000 WICKER AV SJ26 41.420373 -87.470098 WW
02/12/2016 2:30 pm W 97TH LN & OLCOTT AV SJ23 41.442529 -87.478840
02/12/2016 2:07 pm 9600 W OAKRIDGE DR SJ23 41.448785 -87.477725
02/12/2016 1:57 pm W 97TH LN & PHEASANT LN SJ23 41.441077 -87.471281
02/12/2016 1:48 pm 700 BLK OLCOTT SJ23
02/12/2016 11:57 am 9500 OLCOTT SJ23 WW
02/12/2016 11:18 am 9900 BLK PARRISH SJ23
02/12/2016 7:15 am W 100TH AV & PARRISH AV SJ23 41.436695 -87.450582 WW
02/12/2016 1:13 am 11000 W 109TH AV SJ17 41.421125 -87.465951
02/12/2016 1:11 am 9500 WICKER AV SJ24 41.445991 -87.470111
02/11/2016 7:59 pm 9500 WICKER AV SJ25 41.445991 -87.470111
02/11/2016 7:59 pm W 93RD AV & COLUMBIA AV SJ24
02/11/2016 7:45 pm W 101ST AV & CA SJ24 41.435635 -87.508349
02/11/2016 7:41 pm 9500 WICKER SJ17 41.445991 -87.470111
02/11/2016 7:11 pm 8500 WICKER SJ24 41.462715 -87.470350
02/11/2016 6:59 pm W 93RD AV & W OAKRIDGE DR SJ24 41.449989 -87.478157
02/11/2016 6:51 pm 8400 WICKER AV SJ17 41.464281 -87.470364
02/11/2016 6:44 pm 9400 WICKER AV SJ24 41.447998 -87.470142
02/11/2016 6:33 pm 9200 WICKER AV SJ17 41.453592 -87.470222 CIT
02/11/2016 6:19 pm WICKER AV & WALL ST SJ17 41.453043 -87.470213
02/11/2016 3:43 pm 8400 WICKER AV SJ343 41.464281 -87.470364
02/11/2016 3:30 pm WICKER AV & WALL ST SJ343 41.453043 -87.470213 WW
02/11/2016 3:04 pm 93RD AV & CALUMET AV SJ343 41.450132 -87.507827 WW
02/11/2016 1:40 pm VENTURA DR & WICKER AV SJ343 41.464281 -87.470364
02/11/2016 12:59 pm 13200 W 109TH AV; CORNERSTONE CHURCH SJ343 41.422939 -87.500622
02/11/2016 12:10 pm W 93RD AV & COLUMBIA AV SJ343 41.450881 -87.500558
02/11/2016 11:59 am 8600 WICKER AV SJ343 41.461624 -87.470339 VW
02/11/2016 8:03 am W 97TH LN & HEDWIG AV SJ18 41.441070 -87.472398
02/11/2016 3:52 am LAKE HILLS DR & W 85TH AV SJ25 41.464322 -87.455889
02/10/2016 11:42 pm 8500 WICKER AV SJ17 41.462715 -87.470350
02/10/2016 11:23 pm WALL ST & WICKER AV SJ17 41.453043 -87.470213
02/10/2016 11:11 pm 9700 WICKER AV SJ25 41.443089 -87.470050
02/10/2016 11:00 pm 8600 WICKER AV SJ25 41.461624 -87.470339
02/10/2016 10:46 pm 8300 WICKER AV SJ25 41.466787 -87.470378
02/09/2016 8:21 pm 11400 W 109TH AV SJ4 41.421156 -87.471733
02/09/2016 8:53 am W 97TH LN & O SJ23 41.442529 -87.478840
02/09/2016 8:18 am 8800 PRIMROSE SJ14 41.460848 -87.487808
02/09/2016 7:51 am 8500 PRIMROSE SJ14 41.464508 -87.487911
02/08/2016 9:25 pm 8400 WICKER AV SJ19 41.464281 -87.470364
02/08/2016 12:15 pm 10900 WICKER AV; SB SJ14 41.421149 -87.470100 CIT
02/08/2016 12:04 pm 8400 WICKER AV SJ23 41.464281 -87.470364
02/08/2016 11:46 am 10200 WICKER AV SJ23 41.435026 -87.470008
02/08/2016 9:28 am 8500 WICKER AV SJ14 41.462715 -87.470350 CIT
02/08/2016 7:33 am W 102ND AV & WHITE OAK AV SJ14 41.433370 -87.489295
02/08/2016 7:20 am 9800 WHITE OAK AV SJ14 41.440970 -87.489352
02/07/2016 6:20 pm W 85TH AV & WINDING TRAIL SJ18 41.464348 -87.460495
02/07/2016 1:43 pm 8400 ALEXANDER ST SJ343 41.465542 -87.465554
02/07/2016 1:11 pm 9600 OLCOTT AV SJ343 41.444100 -87.478864
02/07/2016 10:46 am KNICKERBOCKER PL & HERON LAKE RD SJ343 41.468974 -87.476799
02/07/2016 10:38 am 117TH OF HUERON LAKE SJ343
02/07/2016 8:55 am 8600 WICKER AV SJ343 41.461624 -87.470339
02/07/2016 7:41 am 9400 WICKER AV SJ24 41.447998 -87.470142
02/07/2016 7:33 am 9407 WICKER AV; DUNKIN DONUTS SJ24 41.447861 -87.470140
02/07/2016 7:10 am W 97TH AV & WICKER AV SJ24 41.441590 -87.470028
02/07/2016 5:45 am 10100 WICKER AV SJ24 41.436091 -87.469997
02/06/2016 7:54 pm 8200 WICKER AV SJ17 41.469318 -87.470392
02/06/2016 6:52 pm 9280 WICKER AV SJ17 41.451133 -87.470187
02/06/2016 6:41 pm W 85TH AV & LAKE HILLS DR SJ25 41.464322 -87.455889
02/06/2016 6:02 pm 9500 WICKER AV SJ17 41.445991 -87.470111
02/06/2016 5:17 pm 8200 WICKER AV SJ17 41.469318 -87.470392
02/06/2016 2:51 pm 8200 WICKER AV SJ24 41.469318 -87.470392
02/06/2016 12:46 pm 10600 WHITE OAK AV SJ24 41.427178 -87.489314
02/06/2016 12:39 pm W 101ST AV & SADDLE CREEK DR SJ24 41.435592 -87.499938
02/06/2016 12:32 pm W 101ST AV & WHITE OAK AV SJ24 41.435563 -87.489287
02/06/2016 12:17 pm 8200 WICKER AV SJ24 41.469318 -87.470392
02/06/2016 8:02 am 8200 WICKER AV SJ24 41.469318 -87.470392
02/05/2016 9:41 pm WICKER AV; S OF 97TH SJ18 41.422054 -87.470096
02/05/2016 7:46 pm WHITE OAK AV & W 93RD AV SJ18 41.450009 -87.489482
02/05/2016 7:04 pm 7300 SPRINGHILL DR SJ25
02/05/2016 7:50 am W 85TH AV & MONFORT DR SJ10 41.464507 -87.486456
02/05/2016 2:40 am WHITE OAK AV & W 93RD AV SJ364 41.450009 -87.489482
02/04/2016 9:02 pm HEDWIG DR & FEHLBERG CT SJ19 41.434189 -87.479379
02/04/2016 8:57 pm BULL RUN DR & HOMESTEAD VILLAGE CT SJ14 41.431714 -87.473573
02/04/2016 7:57 pm 105TH AV & NEEDING SJ14
02/04/2016 11:29 am W 93RD AV & KEILMAN ST SJ23 41.449981 -87.472491
02/04/2016 10:54 am 9200 WICKER AV SJ23 41.453592 -87.470222
02/04/2016 9:36 am 9400 WHITE OAK SJ23
02/03/2016 10:17 pm 10300 GOLDEN ARCH SJ26 41.431016 -87.436037
02/03/2016 9:24 pm W 102ND AV & NORTHCOT SJ26 41.433393 -87.482473
02/03/2016 9:34 am W 101ST AV & WELLINGTON CT E SJ23 41.435574 -87.493895 WW
02/03/2016 8:21 am 10800 CALUMET AV SJ23 41.419816 -87.508261 WW
02/02/2016 11:42 pm 9500 WICKER AV SJ24 41.445991 -87.470111
02/02/2016 10:38 pm W 85TH AV & WICKER AV SJ25 41.462715 -87.470350
02/02/2016 5:51 pm 9400 WICKER AV SJ24 41.447998 -87.470142
02/02/2016 6:48 am 8200 WICKER AV SJ10 41.469318 -87.470392
02/01/2016 3:11 pm JENNIFER CT & W 85TH AV SJ66 41.464517 -87.490791
02/01/2016 2:52 pm 8700 PRIMROSE DR SJ66 41.462251 -87.487848
02/01/2016 11:31 am 9800 OLCOTT AV SJ16 41.440244 -87.478804
02/01/2016 10:41 am 9700 OLCOTT SJ16 41.442181 -87.478835
02/01/2016 9:16 am 7905 CALUMET AV; HAMMOND CLINIC; 97TH SJ10 41.569569 -87.508976
02/01/2016 9:09 am W 97TH LN & PHE SJ12 41.441077 -87.471281
02/01/2016 8:50 am 9800 OLCOTT SJ12 41.440244 -87.478804
02/01/2016 8:20 am 11033 W 93RD AV SJ16 41.449958 -87.469145
02/01/2016 1:57 am JOLIET ST & THREE SPRINGS DR SJ19 41.442090 -87.456412
01/31/2016 11:09 pm 900 PARRISH SJ19
01/31/2016 10:48 pm JOLIET ST; E OF CLINE SJ26 41.446940 -87.468764
01/31/2016 8:47 pm 11200 WICKER AV SJ19
01/31/2016 8:15 pm 11100 WICKER AV SJ26
01/31/2016 8:03 pm W 109TH AV & FORESTDALE ST SJ19 41.421168 -87.473684
01/31/2016 6:39 pm 9800 WICKER SJ19 41.441083 -87.470022
01/31/2016 4:21 pm WICKER AV & WALL ST SJ23 41.453043 -87.470213
01/31/2016 3:41 pm 8100 WICKER AV SJ343 41.471886 -87.470393
01/31/2016 2:52 pm 9000 COLUMBIA SJ343 41.456680 -87.498822
01/31/2016 1:39 pm W 97TH LN & PHEAS SJ343 41.441077 -87.471281
01/31/2016 12:46 pm 8700 WICKER SJ343 41.460285 -87.470319
01/31/2016 10:14 am MONFORT DR & W SJ343 41.464507 -87.486456
01/31/2016 8:33 am 8575 WIC SJ343 41.461959 -87.470344
01/31/2016 2:00 am JOLIET ST & INDUSTRIAL DR SJ26 41.443788 -87.464124
01/31/2016 12:08 am 8400 WICKER AV SJ19 41.464281 -87.470364
01/30/2016 11:48 pm 8100 WICKER AV SJ19
01/30/2016 8:42 pm 13300 WICKER AV SJ25
01/30/2016 7:43 pm 8500 WICKER AV SJ19 41.462715 -87.470350
01/30/2016 7:29 pm 9400 WICKER AV SJ19 41.447998 -87.470142
01/30/2016 7:17 pm 10700 WICKER AV SJ19 41.424209 -87.470085
01/30/2016 7:00 pm 10700 WICKER AV SJ19 41.424209 -87.470085
01/30/2016 11:44 am W 97TH LN & PHEA SJ23 41.441077 -87.471281
01/30/2016 7:41 am BURGESS WAY; SILVER LEAF SJ23 41.426258 -87.496188
01/29/2016 2:56 pm 10200 CLINE AV SJ23 41.435299 -87.431161
01/29/2016 12:28 pm W 109TH AV & HILLCREST LN SJ23 41.421205 -87.496638 CIT
01/29/2016 9:29 am CALUMET AV & 93RD AV SJ23 41.450132 -87.507827
01/28/2016 11:49 pm WALL ST & WICKER AV SJ18 41.453043 -87.470213
01/28/2016 11:42 pm WALL ST & WICKER AV SJ18 41.453043 -87.470213
01/28/2016 2:49 pm 8400 WICKER AV SJ17 41.464281 -87.470364 CIT
01/28/2016 11:59 am 9600 WICKER AV SJ17 41.443973 -87.470069 CIT
01/28/2016 11:07 am 9700 OLCOTT AV SJ25 41.442181 -87.478835 VW
01/28/2016 10:54 am 9700 OLCOTT AV SJ25 41.442181 -87.478835 WW
01/28/2016 10:35 am 8000 WICKER SJ17 CIT
01/28/2016 7:00 am 8800 WICKER AV; SHILLING SJ12 41.458947 -87.470300
01/28/2016 6:58 am 10800 WICKER AV SJ17 41.422959 -87.470092 CIT
01/27/2016 3:26 pm W 97TH LN & HEDWIG AV SJ17 41.441070 -87.472398
01/27/2016 12:49 pm 10800 WICKER AV SJ25 41.422959 -87.470092
01/27/2016 8:00 am 8500 WICKER AV SJ17 41.462715 -87.470350
01/26/2016 10:06 pm 9700 WICKER AV SJ14 41.443089 -87.470050
01/26/2016 8:46 pm W 97TH LN & OLCOTT AV SJ26 41.442529 -87.478840
01/26/2016 8:15 pm 9800 OLCOTT AV SJ26 41.440244 -87.478804
01/26/2016 4:16 pm 9700 OLCOTT AV SJ19 41.442181 -87.478835
01/26/2016 3:50 pm W 97TH LN & OLCOTT AV SJ19 41.442529 -87.478840
01/26/2016 10:56 am W 97TH LN & HEDWIG AV SJ19 41.441070 -87.472398
01/26/2016 10:44 am 10700 WICKER SJ19 41.424209 -87.470085
01/25/2016 8:05 pm 97TH AV; W OF WICKER SJ26
01/25/2016 6:37 pm 10400 NIETING CT SJ26 41.429634 -87.483803
01/25/2016 4:01 pm 93RD / MONIX SJ19 CIT
01/25/2016 2:24 pm 12100 W 83RD PL SJ19 41.467333 -87.481858
01/25/2016 11:35 am 8400 WICKER AV SJ19 41.464281 -87.470364 CIT
01/25/2016 11:20 am W 85TH AV & WICKER AV SJ19 41.462715 -87.470350
01/24/2016 7:42 pm 8200 WICKER AV SJ16 41.469318 -87.470392
01/24/2016 7:34 pm WICKER AV; 10300 BLK SJ25 41.422054 -87.470096
01/24/2016 10:14 am 9200 WICKER AV SJ24 41.453592 -87.470222
01/24/2016 10:04 am 8300 WICKER AV SJ24 41.466787 -87.470378
01/23/2016 6:54 pm 10800 WICKER AV SJ25 41.422959 -87.470092
01/22/2016 5:52 pm W 93RD AV & SCHIL SJ16 41.450605 -87.496506
01/22/2016 2:07 am W 103RD ST & PARRISH AV SJ19 41.431520 -87.450546
01/21/2016 11:33 pm 8500 LAKE HILLS DR SJ19 41.464322 -87.455889
01/21/2016 7:40 pm 7700 WICKER AV SJ19
01/21/2016 7:18 pm WICKER AV & WALL ST SJ19 41.453043 -87.470213
01/21/2016 12:02 pm 9500 WICKER AV SJ23 41.445991 -87.470111
01/21/2016 11:24 am 9400 WICKER AV; DUNKIN DONUTS SJ23 41.447998 -87.470142
01/21/2016 12:03 am JOLIET ST & WICKER AV SJ19 41.447742 -87.470138
01/20/2016 7:10 pm W 77TH AV & WICKER AV SJ19 41.478956 -87.470527
01/20/2016 6:58 pm 200 PATTERSON SJ4
01/19/2016 7:59 am W 93RD AV & HILLTOP DR SJ18 41.450000 -87.487793
01/17/2016 9:23 pm W 109TH AV; W OF CLINE AV SJ26 41.421213 -87.495438
01/17/2016 12:33 am W 93RD AV & OLCOTT AV SJ26 41.449974 -87.480663
01/16/2016 3:46 pm 8400 CHRISTOPHER DR SJ19 41.466216 -87.494224
01/16/2016 8:56 am KEILMAN ST & W 93 SJ23 41.449981 -87.472491
01/16/2016 8:34 am W 109TH AV & CLINE AV SJ19 41.420910 -87.431171
01/16/2016 7:49 am 8500 WICKER AV SJ19 41.462715 -87.470350
01/16/2016 7:34 am 9200 WICKER SJ23 41.453592 -87.470222
01/16/2016 12:46 am PEOPLES BANK SJ4
01/15/2016 11:25 pm WICKER AV; 8300 blk SJ26 41.422054 -87.470096
01/15/2016 6:47 am W 109TH & SCHNEIDER SJ23
01/15/2016 6:35 am 10200 WICKER AV SJ23 41.435026 -87.470008
01/15/2016 1:04 am 8200 WICKER AV SJ24 41.469318 -87.470392
01/12/2016 10:49 pm 8700 PARRISH AV SJ19 41.461347 -87.451027 WW
01/12/2016 9:57 am 9500 WICKER SJ14 41.445991 -87.470111
01/11/2016 8:04 pm 8500 WICKER AV SJ19 41.462715 -87.470350
01/11/2016 7:31 pm 10623 CLINE AV SJ26 41.426390 -87.431180
01/10/2016 4:36 pm 8300 WICKER AV SJ343 41.466787 -87.470378
01/10/2016 3:18 pm 7700 wicker SJ343
01/10/2016 11:57 am 8400 WICKER AV SJ343 41.464281 -87.470364
01/09/2016 10:06 pm W 93RD AV & SCHILLTON DR SJ24
01/09/2016 3:03 am 8400 WICKER AV SJ24 41.464281 -87.470364
01/08/2016 1:06 pm 10700 OLCOTT SJ66 41.425421 -87.481139
01/08/2016 12:37 pm 10808 wicker dr & 109; behind dicks SJ66 WW
01/08/2016 12:37 pm SJ66
01/08/2016 12:09 pm 1700 wicker SJ18
01/07/2016 7:40 pm W OAKRIDGE DR & W 97T SJ26 41.442714 -87.477150
01/07/2016 6:47 pm 10200 OLCOTT SJ26 41.433927 -87.481103
01/07/2016 6:30 pm W 97TH LN & HIC SJ26 41.442148 -87.474736
01/07/2016 11:43 am 8200 WICKER SJ23 41.469318 -87.470392 WW
01/07/2016 10:27 am 9600 WICKER SJ23 41.443973 -87.470069 CIT
01/07/2016 8:12 am 8500 WICKER AV SJ4 41.462715 -87.470350
01/07/2016 12:27 am W 77TH AV & WICKER AV SJ14 41.478956 -87.470527
01/06/2016 10:01 am 9400 WHITE OAK SJ23
01/06/2016 8:04 am 8200 WICKER AV SJ23 41.469318 -87.470392
01/05/2016 2:35 am 8100 WICKER AV SJ24
01/04/2016 10:21 pm 109TH AV & FORESTDALE SJ18
01/04/2016 9:05 pm 8575 WICKER AV; SPEEDWAY LOT SJ365 41.461959 -87.470344
01/04/2016 8:37 pm 8700 WICKER AV; NB SJ365 41.460285 -87.470319
01/04/2016 8:10 pm 8400 WICKER AV SJ365 41.464281 -87.470364
01/04/2016 6:45 pm W 85TH AV SJ18 41.462715 -87.470350
01/04/2016 6:09 pm W 107TH LN SJ365 41.423372 -87.483424
01/04/2016 6:00 pm 106 white oak ave SJ24
01/04/2016 9:45 am 9600 OLCOTT AV SJ25 41.444100 -87.478864
01/04/2016 2:15 am 9600 WICKER AV SJ14 41.443973 -87.470069
01/03/2016 11:12 pm W 93RD AV & W OAKRIDGE DR SJ19 41.449989 -87.478157
01/03/2016 10:31 pm 9200 WICKER AV SJ14 41.453592 -87.470222
01/03/2016 9:08 pm 10800 WICKER AV; NB SJ14 41.422959 -87.470092
01/03/2016 7:28 pm 9600 WICKER AV SJ19 41.443973 -87.470069
01/03/2016 6:50 pm 9600 WICKER AV SJ19 41.443973 -87.470069
01/03/2016 4:08 pm 8400 WICKER AV SJ343 41.464281 -87.470364
01/03/2016 3:57 pm 8900 WICKER AV SJ4 41.457608 -87.470280
01/03/2016 9:59 am WALL ST & WICKER AV SJ343 41.453043 -87.470213
01/02/2016 9:54 pm 10800 WICKER AV SJ26 41.422959 -87.470092
01/02/2016 8:07 pm 8900 WICKER SJ19 41.457608 -87.470280
01/02/2016 8:00 pm ROSEWOOD DR & WHITE OAK AV SJ25
01/02/2016 7:50 pm 10100 wellington SJ25
01/02/2016 6:49 pm 9300 NORTHCOTE SJ25 41.449966 -87.482130
01/02/2016 6:37 pm 9400 whiteoak SJ25
01/02/2016 6:17 pm 9400 whiteoak SJ25
01/02/2016 6:02 pm 10100 whiteoak SJ25
01/02/2016 5:51 pm 9300 WHITE OAK AV SJ25 41.450009 -87.489482
01/02/2016 5:34 pm 9300 white oak SJ25
01/02/2016 8:59 am 109 matter SJ23
01/02/2016 8:39 am 49 & wall st SJ4
01/02/2016 7:57 am cedar creek & us 231 SJ23
01/02/2016 7:51 am WICKER AV SJ23 41.422054 -87.470096
01/02/2016 12:11 am 11000 WICKER AV SJ19 41.420373 -87.470098
01/01/2016 11:01 pm 8209 WICKER AV SJ26 41.469091 -87.470391
01/01/2016 8:42 pm 9700 WICKER AV SJ14 41.443089 -87.470050
01/01/2016 8:22 pm 9200 WICKER AV SJ26 41.453592 -87.470222
01/01/2016 10:46 am W 109TH AV & HILLCREST LN SJ23 41.421205 -87.496638